[[{"header":{"parameterUnit":"m.s-1","parameterCategory":1,"la1":30.6,"la2":28.766,"lo1":-90.7593,"lo2":-88.6598,"dy":0.0162,"dx":0.0183,"nx":116,"ny":114,"refTime":"2023-05-30T06:00:00:Z","depth":0,"parameterNumber":2,"parameterNumberName":"U-component_of_WINDS"},"data":[0.0,0.0,0.0,0.0,0.0,0.0,0.0,0.0,0.0,0.0,0.0,0.0,0.0,0.0,0.0,0.0,0.0,0.0,0.0,0.0,0.0,0.0,0.0,0.0,0.0,0.0,0.0,0.0,0.0,0.0,0.0,0.0,0.0,0.0,0.0,0.0,0.0,0.0,0.0,0.0,0.0,0.0,0.0,0.0,0.0,0.0,0.0,0.0,0.0,0.0,0.0,0.0,0.0,0.0,0.0,0.0,0.0,0.0,0.0,0.0,0.0,0.0,0.0,0.0,0.0,0.0,0.0,0.0,0.0,0.0,0.0,0.0,0.0,0.0,0.0,0.0,0.0,0.0,0.0,0.0,0.0,0.0,0.0,0.0,0.0,0.0,0.0,0.0,0.0,0.0,0.0,0.0,0.0,0.0,0.0,0.0,0.0,0.0,0.0,0.0,0.0,0.0,0.0,0.0,0.0,0.0,0.0,0.0,0.0,0.0,0.0,0.0,0.0,0.0,0.0,0.0,0.0,0.0,0.0,0.0,0.0,0.0,0.0,0.0,0.0,0.0,0.0,0.0,0.0,0.0,0.0,0.0,0.0,0.0,0.0,0.0,0.0,0.0,0.0,0.0,0.0,0.0,0.0,0.0,0.0,0.0,0.0,0.0,0.0,0.0,0.0,0.0,0.0,0.0,0.0,0.0,0.0,0.0,0.0,0.0,0.0,0.0,0.0,0.0,0.0,0.0,0.0,0.0,0.0,0.0,0.0,0.0,0.0,0.0,0.0,0.0,0.0,0.0,0.0,0.0,0.0,0.0,0.0,0.0,0.0,0.0,0.0,0.0,0.0,0.0,0.0,0.0,0.0,0.0,0.0,0.0,0.0,0.0,0.0,0.0,0.0,0.0,0.0,0.0,0.0,0.0,0.0,0.0,0.0,0.0,0.0,0.0,0.0,0.0,0.0,0.0,0.0,0.0,0.0,0.0,0.0,0.0,0.0,0.0,0.0,0.0,0.0,0.0,0.0,0.0,0.0,0.0,0.0,0.0,0.0,0.0,0.0,0.0,0.0,0.0,0.0,0.0,0.0,0.0,0.0,0.0,0.0,0.0,0.0,0.0,0.0,0.0,0.0,0.0,0.0,0.0,0.0,0.0,0.0,0.0,0.0,0.0,0.0,0.0,0.0,0.0,0.0,0.0,0.0,0.0,0.0,0.0,0.0,0.0,0.0,0.0,0.0,0.0,0.0,0.0,0.0,0.0,0.0,0.0,0.0,0.0,0.0,0.0,0.0,0.0,0.0,0.0,0.0,0.0,0.0,0.0,0.0,0.0,0.0,0.0,0.0,0.0,0.0,0.0,0.0,0.0,0.0,0.0,0.0,0.0,0.0,0.0,0.0,0.0,0.0,0.0,0.0,0.0,0.0,0.0,0.0,0.0,0.0,0.0,0.0,0.0,0.0,0.0,0.0,0.0,0.0,0.0,0.0,0.0,0.0,0.0,0.0,0.0,0.0,0.0,0.0,0.0,0.0,0.0,0.0,0.0,0.0,0.0,0.0,0.0,0.0,0.0,0.0,0.0,0.0,0.0,0.0,0.0,0.0,0.0,0.0,0.0,0.0,0.0,0.0,0.0,0.0,0.0,0.0,0.0,0.0,0.0,0.0,0.0,0.0,0.0,0.0,0.0,0.0,0.0,0.0,0.0,0.0,0.0,0.0,0.0,0.0,0.0,0.0,0.0,0.0,0.0,0.0,0.0,0.0,0.0,0.0,0.0,0.0,0.0,0.0,0.0,0.0,0.0,0.0,0.0,0.0,0.0,0.0,0.0,0.0,0.0,0.0,0.0,0.0,0.0,0.0,0.0,0.0,0.0,0.0,0.0,0.0,0.0,0.0,0.0,0.0,0.0,0.0,0.0,0.0,0.0,0.0,0.0,0.0,0.0,0.0,0.0,0.0,0.0,0.0,0.0,0.0,0.0,0.0,0.0,0.0,0.0,0.0,0.0,0.0,0.0,0.0,0.0,0.0,0.0,0.0,0.0,0.0,0.0,0.0,0.0,0.0,0.0,0.0,0.0,0.0,0.0,0.0,0.0,0.0,0.0,0.0,0.0,0.0,0.0,0.0,0.0,0.0,0.0,0.0,0.0,0.0,0.0,0.0,0.0,0.0,0.0,0.0,0.0,0.0,0.0,0.0,0.0,0.0,0.0,0.0,0.0,0.0,0.0,0.0,0.0,0.0,0.0,0.0,0.0,0.0,0.0,0.0,0.0,0.0,0.0,0.0,0.0,0.0,0.0,0.0,0.0,0.0,0.0,0.0,0.0,0.0,0.0,0.0,0.0,0.0,0.0,0.0,0.0,0.0,0.0,0.0,0.0,0.0,0.0,0.0,0.0,0.0,0.0,0.0,0.0,0.0,0.0,0.0,0.0,0.0,0.0,0.0,0.0,0.0,0.0,0.0,0.0,0.0,0.0,0.0,0.0,0.0,0.0,0.0,0.0,0.0,0.0,0.0,0.0,0.0,0.0,0.0,0.0,0.0,0.0,0.0,0.0,0.0,0.0,0.0,0.0,0.0,0.0,0.0,0.0,0.0,0.0,0.0,0.0,0.0,0.0,0.0,0.0,0.0,0.0,0.0,0.0,0.0,0.0,0.0,0.0,0.0,0.0,0.0,0.0,0.0,0.0,0.0,0.0,0.0,0.0,0.0,0.0,0.0,0.0,0.0,0.0,0.0,0.0,0.0,0.0,0.0,0.0,0.0,0.0,0.0,0.0,0.0,0.0,0.0,0.0,0.0,0.0,0.0,0.0,0.0,0.0,0.0,0.0,0.0,0.0,0.0,0.0,0.0,0.0,0.0,0.0,0.0,0.0,0.0,0.0,0.0,0.0,0.0,0.0,0.0,0.0,0.0,0.0,0.0,0.0,0.0,0.0,0.0,0.0,0.0,0.0,0.0,0.0,0.0,0.0,0.0,0.0,0.0,0.0,0.0,0.0,0.0,0.0,0.0,0.0,0.0,0.0,0.0,0.0,0.0,0.0,0.0,0.0,0.0,0.0,0.0,0.0,0.0,0.0,0.0,0.0,0.0,0.0,0.0,0.0,0.0,0.0,0.0,0.0,0.0,0.0,0.0,0.0,0.0,0.0,0.0,0.0,0.0,0.0,0.0,0.0,0.0,0.0,0.0,0.0,0.0,0.0,0.0,0.0,0.0,0.0,0.0,0.0,0.0,0.0,0.0,0.0,0.0,0.0,0.0,0.0,0.0,0.0,0.0,0.0,0.0,0.0,0.0,0.0,0.0,0.0,0.0,0.0,0.0,0.0,0.0,0.0,0.0,0.0,0.0,0.0,0.0,0.0,0.0,0.0,0.0,0.0,0.0,0.0,0.0,0.0,0.0,0.0,0.0,0.0,0.0,0.0,0.0,0.0,0.0,0.0,0.0,0.0,0.0,0.0,0.0,0.0,0.0,0.0,0.0,0.0,0.0,0.0,0.0,0.0,0.0,0.0,0.0,0.0,0.0,0.0,0.0,0.0,0.0,0.0,0.0,0.0,0.0,0.0,0.0,0.0,0.0,0.0,0.0,0.0,0.0,0.0,0.0,0.0,0.0,0.0,0.0,0.0,0.0,0.0,0.0,0.0,0.0,0.0,0.0,0.0,0.0,0.0,0.0,0.0,0.0,0.0,0.0,0.0,0.0,0.0,0.0,0.0,0.0,0.0,0.0,0.0,0.0,0.0,0.0,0.0,0.0,0.0,0.0,0.0,0.0,0.0,0.0,0.0,0.0,0.0,0.0,0.0,0.0,0.0,0.0,0.0,0.0,0.0,0.0,0.0,0.0,0.0,0.0,0.0,0.0,0.0,0.0,0.0,0.0,0.0,0.0,0.0,0.0,0.0,0.0,0.0,0.0,0.0,0.0,0.0,0.0,0.0,0.0,0.0,0.0,0.0,0.0,0.0,0.0,0.0,0.0,0.0,0.0,0.0,0.0,0.0,0.0,0.0,0.0,0.0,0.0,0.0,0.0,0.0,0.0,0.0,0.0,0.0,0.0,0.0,0.0,0.0,0.0,0.0,0.0,0.0,0.0,0.0,0.0,0.0,0.0,0.0,0.0,0.0,0.0,0.0,0.0,0.0,0.0,0.0,0.0,0.0,0.0,0.0,0.0,0.0,0.0,0.0,0.0,0.0,0.0,0.0,0.0,0.0,0.0,0.0,0.0,0.0,0.0,0.0,0.0,0.0,0.0,0.0,0.0,0.0,0.0,0.0,0.0,0.0,0.0,0.0,0.0,0.0,0.0,0.0,0.0,0.0,0.0,0.0,0.0,0.0,0.0,0.0,0.0,0.0,0.0,0.0,0.0,0.0,0.0,0.0,0.0,0.0,0.0,0.0,0.0,0.0,0.0,0.0,0.0,0.0,0.0,0.0,0.0,0.0,0.0,0.0,0.0,0.0,0.0,0.0,0.0,0.0,0.0,0.0,0.0,0.0,0.0,0.0,0.0,0.0,0.0,0.0,0.0,0.0,0.0,0.0,0.0,0.0,0.0,0.0,0.0,0.0,0.0,0.0,0.0,0.0,0.0,0.0,0.0,0.0,0.0,0.0,0.0,0.0,0.0,0.0,0.0,0.0,0.0,0.0,0.0,0.0,0.0,0.0,0.0,0.0,0.0,0.0,0.0,0.0,0.0,0.0,0.0,0.0,0.0,0.0,0.0,0.0,0.0,0.0,0.0,0.0,0.0,0.0,0.0,0.0,0.0,0.0,0.0,0.0,0.0,0.0,0.0,0.0,0.0,0.0,0.0,0.0,0.0,0.0,0.0,0.0,0.0,0.0,0.0,0.0,0.0,0.0,0.0,0.0,0.0,0.0,0.0,0.0,0.0,0.0,0.0,0.0,0.0,0.0,0.0,0.0,0.0,0.0,0.0,0.0,0.0,0.0,0.0,0.0,0.0,0.0,0.0,0.0,0.0,0.0,0.0,0.0,0.0,0.0,0.0,0.0,0.0,0.0,0.0,0.0,0.0,0.0,0.0,0.0,0.0,0.0,0.0,0.0,0.0,0.0,0.0,0.0,0.0,0.0,0.0,0.0,0.0,0.0,0.0,0.0,0.0,0.0,0.0,0.0,0.0,0.0,0.0,0.0,0.0,0.0,0.0,0.0,0.0,0.0,0.0,0.0,0.0,0.0,0.0,0.0,0.0,0.0,0.0,0.0,0.0,0.0,0.0,0.0,0.0,0.0,0.0,0.0,0.0,0.0,0.0,0.0,0.0,0.0,0.0,0.0,0.0,0.0,0.0,0.0,0.0,0.0,0.0,0.0,0.0,0.0,0.0,0.0,0.0,0.0,0.0,0.0,0.0,0.0,0.0,0.0,0.0,0.0,0.0,0.0,0.0,0.0,0.0,0.0,0.0,0.0,0.0,0.0,0.0,0.0,0.0,0.0,0.0,0.0,0.0,0.0,0.0,0.0,0.0,0.0,0.0,0.0,0.0,0.0,0.0,0.0,0.0,0.0,0.0,0.0,0.0,0.0,0.0,0.0,0.0,0.0,0.0,0.0,0.0,0.0,0.0,0.0,0.0,0.0,0.0,0.0,0.0,0.0,0.0,0.0,0.0,0.0,0.0,0.0,0.0,0.0,0.0,0.0,0.0,0.0,0.0,0.0,0.0,0.0,0.0,0.0,0.0,0.0,0.0,0.0,0.0,0.0,0.0,0.0,0.0,0.0,0.0,0.0,0.0,0.0,0.0,0.0,0.0,0.0,0.0,0.0,0.0,0.0,0.0,0.0,0.0,0.0,0.0,0.0,0.0,0.0,0.0,0.0,0.0,0.0,0.0,0.0,0.0,0.0,0.0,0.0,0.0,0.0,0.0,0.0,0.0,0.0,0.0,0.0,0.0,0.0,0.0,0.0,0.0,0.0,0.0,0.0,0.0,0.0,0.0,0.0,0.0,0.0,0.0,0.0,0.0,0.0,0.0,0.0,0.0,0.0,0.0,0.0,0.0,0.0,0.0,0.0,0.0,0.0,0.0,0.0,0.0,0.0,0.0,0.0,0.0,0.0,0.0,0.0,0.0,0.0,0.0,0.0,0.0,0.0,0.0,0.0,0.0,0.0,2.2637,2.3259,0.0,0.0,0.0,0.0,0.0,0.0,0.0,0.0,0.0,0.0,0.0,0.0,0.0,0.0,0.0,0.0,0.0,0.0,0.0,0.0,0.0,0.0,0.0,0.0,0.0,0.0,0.0,0.0,0.0,0.0,0.0,0.0,0.0,0.0,0.0,0.0,0.0,0.0,1.5871,1.6672,1.7533,1.7358,1.7306,1.7388,0.0,0.0,0.0,0.0,0.0,0.0,0.0,0.0,0.0,0.0,0.0,0.0,0.0,0.0,0.0,0.0,0.0,0.0,0.0,0.0,0.0,0.0,0.0,0.0,0.0,0.0,0.0,0.0,0.0,0.0,0.0,0.0,0.0,0.0,0.0,0.0,0.0,0.0,0.0,0.0,0.0,0.0,0.0,0.0,0.0,0.0,0.0,0.0,0.0,0.0,0.0,0.0,0.0,0.0,0.0,0.0,0.0,0.0,0.0,0.0,0.0,0.0,0.0,0.0,0.0,0.0,0.0,0.0,0.0,0.0,2.3384,2.343,0.0,0.0,0.0,0.0,0.0,0.0,0.0,0.0,0.0,0.0,0.0,0.0,0.0,0.0,0.0,0.0,0.0,0.0,0.0,0.0,0.0,0.0,0.0,0.0,1.2329,1.2294,1.2652,1.3139,0.0,0.0,0.0,0.0,0.0,0.0,0.0,0.0,0.0,1.5511,1.5934,1.6688,1.7767,1.7972,1.8072,1.8085,1.8119,0.0,0.0,0.0,0.0,0.0,0.0,0.0,0.0,0.0,0.0,0.0,0.0,0.0,0.0,0.0,0.0,0.0,0.0,0.0,0.0,0.0,0.0,0.0,0.0,0.0,0.0,0.0,0.0,0.0,0.0,0.0,0.0,0.0,0.0,0.0,0.0,0.0,0.0,0.0,0.0,0.0,0.0,0.0,0.0,0.0,0.0,0.0,0.0,0.0,0.0,0.0,0.0,0.0,0.0,0.0,0.0,0.0,0.0,0.0,0.0,0.0,0.0,0.0,2.4052,2.4314,2.4738,2.4607,2.5216,2.628,2.4191,2.382,2.4599,2.3694,0.0,0.0,0.0,0.0,0.0,0.0,0.0,0.0,0.0,0.0,0.0,0.0,0.0,0.0,0.0,0.0,0.0,0.0,0.0,0.0,0.0,1.1523,1.1491,1.2242,1.2815,1.3313,0.0,0.0,0.0,0.0,0.0,0.0,0.0,1.4351,1.4679,1.4749,1.6557,1.7506,1.7641,1.8407,1.8778,1.8771,1.9018,1.9384,1.9826,0.0,0.0,0.0,0.0,0.0,0.0,0.0,0.0,0.0,0.0,0.0,0.0,0.0,0.0,0.0,0.0,0.0,0.0,0.0,0.0,0.0,0.0,0.0,0.0,0.0,0.0,0.0,0.0,0.0,0.0,0.0,0.0,0.0,0.0,0.0,0.0,0.0,0.0,0.0,0.0,0.0,2.2739,2.2805,0.0,0.0,0.0,0.0,0.0,0.0,0.0,0.0,0.0,0.0,0.0,0.0,0.0,2.3615,2.3615,2.4465,2.4943,2.5009,2.5415,2.5655,2.5689,2.4998,2.5156,2.5911,2.4902,0.0,2.644,2.5172,0.0,0.0,0.0,0.0,0.0,0.0,0.0,0.0,0.0,0.0,0.0,0.0,0.0,0.0,0.0,0.0,0.0,0.0,0.0,0.0,0.0,1.2328,1.2649,1.2686,1.4183,1.4847,1.4192,1.4532,0.0,0.0,0.0,1.3986,1.439,1.4723,1.5217,1.5886,1.7595,1.8502,1.8684,1.9595,2.0028,2.0037,2.0142,2.0267,2.0408,2.0415,0.0,0.0,0.0,0.0,0.0,0.0,0.0,0.0,0.0,0.0,0.0,0.0,0.0,0.0,0.0,0.0,0.0,0.0,0.0,0.0,0.0,0.0,0.0,0.0,0.0,0.0,0.0,0.0,0.0,0.0,0.0,0.0,0.0,0.0,0.0,0.0,0.0,0.0,0.0,2.2575,2.3001,2.3001,2.2826,2.2764,0.0,0.0,0.0,0.0,0.0,0.0,0.0,0.0,0.0,2.2984,2.3411,2.3639,2.3639,2.4303,2.4759,2.5018,2.4999,2.526,2.5704,2.5134,2.5377,2.6183,2.5267,2.5516,2.6458,2.5186,2.4505,2.4201,0.0,0.0,0.0,0.0,2.2964,2.3191,0.0,0.0,0.0,0.0,0.0,0.0,0.0,0.0,0.0,0.0,0.0,0.0,1.1835,1.295,1.3555,1.3191,1.4971,1.5629,1.4469,1.4738,0.0,0.0,0.0,1.4144,1.4695,1.519,1.6064,1.7367,1.8517,1.9255,1.9619,2.0535,2.0945,2.0965,2.1242,2.1148,2.0798,2.0656,2.0585,2.0452,0.0,0.0,0.0,0.0,0.0,0.0,0.0,0.0,0.0,0.0,0.0,0.0,0.0,0.0,0.0,0.0,0.0,0.0,0.0,0.0,0.0,0.0,0.0,0.0,0.0,0.0,0.0,0.0,0.0,0.0,0.0,0.0,0.0,0.0,0.0,0.0,0.0,2.2797,2.3143,2.3012,2.2969,2.2907,0.0,0.0,0.0,0.0,0.0,0.0,2.2876,2.2605,2.275,2.3436,2.3873,2.409,2.409,2.4628,2.5066,2.5408,2.5138,2.5351,2.5962,2.5344,2.5595,2.6452,2.5485,2.5482,2.6066,2.503,2.44,2.405,2.3236,2.2792,2.2552,2.2069,2.21,2.2387,0.0,0.0,0.0,0.0,0.0,0.0,0.0,0.0,0.0,0.0,0.0,1.1282,1.1921,1.2685,1.326,1.3547,1.4328,1.4601,1.4157,1.4204,1.3925,1.3204,1.346,1.3648,1.3673,1.5416,1.709,1.8604,1.9054,1.9496,1.9909,2.0722,2.1102,2.1142,2.2163,2.204,2.1046,2.0548,2.0068,1.9671,1.978,0.0,0.0,0.0,0.0,0.0,0.0,0.0,0.0,0.0,0.0,0.0,0.0,0.0,0.0,0.0,0.0,0.0,0.0,0.0,0.0,0.0,0.0,0.0,0.0,0.0,0.0,0.0,0.0,0.0,0.0,0.0,0.0,0.0,0.0,0.0,0.0,0.0,0.0,2.3056,2.2889,0.0,0.0,0.0,0.0,2.1828,2.2161,2.2711,2.3507,2.3903,2.4264,2.4712,2.5159,2.5411,2.5411,2.6319,2.6773,2.6793,2.6911,2.698,2.6986,2.582,2.5722,2.644,2.5649,2.5453,2.5691,2.5116,2.4401,2.3618,2.3577,2.3094,2.2412,2.2392,2.2381,2.2401,0.0,0.0,0.0,0.0,0.0,0.0,0.0,0.0,1.1485,1.1557,1.1604,1.1924,1.2631,1.4335,1.5317,1.5042,1.6475,1.6873,1.5606,1.5574,1.5364,1.4801,1.4679,1.4961,1.5712,1.7135,1.8398,1.9474,2.0399,2.105,2.1462,2.1989,2.2245,2.2277,2.2654,2.2322,2.1462,2.1201,2.0879,2.0474,1.952,1.8922,0.0,0.0,0.0,0.0,0.0,0.0,0.0,0.0,0.0,0.0,0.0,0.0,0.0,0.0,0.0,0.0,0.0,0.0,0.0,0.0,0.0,0.0,0.0,0.0,0.0,0.0,0.0,0.0,0.0,0.0,0.0,0.0,0.0,0.0,0.0,0.0,0.0,2.302,2.341,0.0,2.3465,2.2904,2.276,2.3293,2.2705,2.2764,2.3754,2.3273,2.3291,2.3956,2.4405,2.4646,2.4646,2.5238,2.5557,2.5547,2.5332,2.5376,2.5607,2.4898,2.475,2.4996,2.4726,2.4641,2.4725,2.4531,2.4293,2.3973,2.3292,2.2857,2.2537,2.2117,2.2114,2.234,0.0,0.0,0.0,0.0,0.0,0.0,0.0,0.0,1.1843,1.1642,1.2293,1.3055,1.3754,1.5731,1.6828,1.6409,1.7768,1.8018,1.6606,1.6536,1.6269,1.5583,1.5599,1.6222,1.7515,1.8565,1.9639,2.072,2.1517,2.2185,2.2717,2.3138,2.333,2.334,2.3486,2.3092,2.2277,2.2073,2.1482,2.0605,1.9579,1.8967,1.8709,0.0,0.0,0.0,0.0,0.0,0.0,0.0,0.0,0.0,0.0,0.0,0.0,0.0,0.0,0.0,0.0,0.0,0.0,0.0,0.0,0.0,0.0,0.0,0.0,0.0,0.0,0.0,0.0,0.0,0.0,0.0,0.0,0.0,0.0,2.2798,2.3219,2.3208,2.3638,2.3868,2.372,2.314,2.2973,2.3525,2.2906,2.2995,2.4144,2.3668,2.3706,2.4521,2.4985,2.5157,2.5003,2.5416,2.5544,2.539,2.4985,2.4964,2.5196,2.4799,2.459,2.459,2.459,2.4542,2.4388,2.4388,2.4438,2.4361,2.3366,2.2891,2.2723,2.228,2.2272,2.2492,0.0,0.0,0.0,0.0,0.0,0.0,0.0,1.1864,1.2045,1.2699,1.3679,1.4563,1.524,1.6713,1.7627,1.7559,1.7895,1.7767,1.7018,1.6919,1.6448,1.542,1.6087,1.7241,1.8823,1.9595,2.0766,2.2359,2.2369,2.279,2.3563,2.403,2.4238,2.4238,2.4627,2.4317,2.3471,2.3096,2.1787,1.9991,2.0079,1.9888,1.9534,0.0,0.0,0.0,0.0,0.0,0.0,0.0,0.0,0.0,0.0,0.0,0.0,0.0,0.0,0.0,0.0,0.0,0.0,0.0,0.0,0.0,0.0,0.0,0.0,0.0,0.0,0.0,0.0,0.0,0.0,0.0,0.0,0.0,2.2275,2.3179,2.3704,2.3628,2.3543,2.3322,2.2866,2.2246,2.2039,2.2424,2.2812,2.3578,2.4819,2.5232,2.5792,2.6545,2.6967,2.6976,2.6554,2.6958,2.6958,2.6545,2.6169,2.5967,2.5984,2.5572,2.5398,2.5398,2.5398,2.5177,2.4829,2.4829,2.4829,2.4721,2.3862,2.3288,2.2959,2.295,2.295,2.295,0.0,0.0,0.0,0.0,0.0,0.0,0.0,1.1562,1.1991,1.2509,1.3842,1.4976,1.5592,1.7329,1.8559,1.8801,1.8363,1.8131,1.8197,1.7388,1.6908,1.69,1.7923,1.8981,1.9998,2.1098,2.2318,2.3681,2.3984,2.4372,2.4867,2.5012,2.4911,2.4636,2.4755,2.4317,2.3532,2.3739,2.2988,2.1581,2.1047,2.0407,1.976,0.0,0.0,0.0,0.0,0.0,0.0,0.0,0.0,0.0,0.0,0.0,0.0,0.0,0.0,0.0,0.0,0.0,0.0,0.0,0.0,0.0,0.0,0.0,0.0,0.0,0.0,0.0,0.0,0.0,0.0,0.0,2.1351,2.2017,2.2167,2.3532,2.4373,2.4072,2.5023,2.5657,2.5546,2.5614,2.5729,2.583,2.5949,2.616,2.6527,2.638,2.6242,2.6159,2.627,2.6132,2.5737,2.5838,2.5838,2.5728,2.5618,2.5554,2.5554,2.5443,2.5398,2.5398,2.5398,2.5333,2.5242,2.5242,2.5242,2.515,2.4333,2.4131,2.4244,2.3957,2.3846,2.3776,0.0,0.0,0.0,0.0,0.0,0.0,0.0,1.19,1.2494,1.268,1.4651,1.6147,1.6475,1.8298,1.9453,1.9313,1.8715,1.8302,1.821,1.7706,1.7669,1.8229,1.9412,2.05,2.1476,2.2557,2.3626,2.4716,2.4764,2.5012,2.5398,2.5398,2.5186,2.481,2.4985,2.4666,2.4054,2.4342,2.403,2.3299,2.2639,2.1704,2.0656,2.0573,2.0057,1.9349,1.9349,1.9317,1.9241,1.9084,0.0,0.0,0.0,0.0,0.0,0.0,0.0,0.0,0.0,0.0,0.0,0.0,0.0,0.0,0.0,0.0,0.0,0.0,0.0,0.0,0.0,0.0,0.0,0.0,2.2533,2.3452,2.3692,2.4483,2.5095,2.5186,2.604,2.6591,2.6591,2.6793,2.6958,2.6958,2.6958,2.7031,2.7197,2.6986,2.6829,2.6747,2.6738,2.6637,2.6407,2.6407,2.6315,2.615,2.615,2.6068,2.5902,2.5902,2.5902,2.5902,2.5902,2.5811,2.5645,2.5645,2.5645,2.5581,0.0,0.0,0.0,0.0,2.4615,2.4406,0.0,0.0,0.0,0.0,0.0,0.0,0.0,1.2526,1.3183,1.3119,1.5647,1.7423,1.7304,1.908,2.0005,1.9301,1.8815,1.8265,1.7541,1.7953,1.8595,1.9402,2.0686,2.192,2.3087,2.3975,2.4764,2.5535,2.5186,2.5196,2.5535,2.5535,2.5324,2.4957,2.5361,2.5287,2.4884,2.4975,2.4957,2.4847,2.4542,2.3363,2.187,2.224,2.1894,2.1244,2.1288,2.0576,1.9601,1.9557,0.0,0.0,0.0,0.0,0.0,0.0,0.0,0.0,0.0,0.0,0.0,0.0,0.0,0.0,0.0,0.0,0.0,0.0,0.0,0.0,0.0,0.0,0.0,0.0,2.4189,2.5287,2.6077,2.5967,2.6022,2.6609,2.6738,2.6793,2.6793,2.683,2.6857,2.6857,2.6857,2.7041,2.7389,2.7408,0.0,0.0,0.0,2.7839,2.7793,2.7793,2.7619,2.727,2.727,2.7086,2.6719,2.6701,2.6683,2.6683,2.6609,2.6398,2.6058,2.6058,2.6058,2.6013,2.5618,2.5434,2.5398,2.5398,2.5177,2.4865,0.0,0.0,0.0,0.0,0.0,0.0,0.0,1.2506,1.2928,1.3711,1.5463,1.648,1.6094,1.7844,1.8979,1.8824,1.8155,1.7669,1.7504,1.8485,1.9439,2.0225,2.2048,2.3477,2.4409,2.5232,2.5884,2.638,2.6306,2.6279,2.638,2.638,2.6159,2.5774,2.6196,2.5976,2.5324,2.5985,2.5884,2.5306,2.5544,2.4445,2.2684,2.2757,2.2482,2.2117,2.2431,2.2379,2.2129,2.1817,2.1487,2.1078,2.0098,1.9575,0.0,0.0,0.0,0.0,0.0,0.0,0.0,0.0,0.0,0.0,0.0,0.0,0.0,0.0,0.0,0.0,0.0,0.0,0.0,2.4271,2.5454,2.6545,2.7334,2.7949,2.8004,2.7187,2.7646,2.804,2.804,2.8362,2.8546,2.8546,2.8546,2.8583,2.8656,2.8665,2.8555,2.8278,2.8269,2.8142,2.7793,2.7793,2.7757,2.7683,2.7683,0.0,2.7555,2.7233,2.7096,2.7068,2.6729,2.6572,2.6463,2.6463,2.6463,2.6453,2.604,2.5699,2.5398,2.5398,2.5352,2.5242,0.0,0.0,0.0,0.0,0.0,0.0,0.0,1.3038,1.3433,1.3923,1.536,1.6264,1.603,1.7257,1.8027,1.7825,1.7614,1.7433,1.7313,1.9303,2.0857,2.1663,2.3474,2.4739,2.5388,2.5994,2.6499,2.6912,2.671,2.6692,2.6912,2.6912,2.6692,2.6315,2.6729,2.6683,2.6325,2.6738,2.6673,2.6315,2.6517,2.5746,2.4418,2.399,2.3739,2.3584,2.377,2.373,2.3519,2.3308,2.2828,2.2169,2.1342,2.0535,1.9691,0.0,0.0,0.0,0.0,0.0,0.0,0.0,0.0,0.0,0.0,0.0,0.0,0.0,0.0,2.1906,2.2543,0.0,2.4629,2.6068,2.6995,2.7838,2.8876,2.9342,2.9287,2.85,2.892,2.9214,2.9032,2.9188,2.9225,2.9032,2.9014,2.9014,2.9014,2.9014,2.8922,2.872,2.8498,2.8388,2.8399,2.8206,2.8105,2.8105,2.8105,2.7995,2.7784,2.7591,2.75,2.7481,2.7077,2.6912,2.6894,2.6664,2.6591,2.6564,2.6389,2.6187,2.6003,2.6003,2.5875,2.5664,0.0,0.0,0.0,0.0,0.0,0.0,0.0,1.3649,1.4025,1.4085,1.5249,1.6039,1.5966,1.667,1.7018,1.6697,1.7248,1.756,1.7424,2.0177,2.2222,2.3116,2.4672,2.57,2.6104,2.6444,2.6774,2.7096,2.6774,2.6774,2.7096,2.7169,2.7031,2.6747,2.7233,2.7399,2.7325,2.7408,2.7399,2.7316,2.7233,2.6765,2.6031,2.5315,2.4985,2.4929,2.5012,2.4617,2.4085,2.4266,2.3739,2.295,2.2529,2.1789,2.086,1.9773,1.8988,0.0,0.0,0.0,0.0,0.0,0.0,0.0,0.0,2.0747,2.1269,2.1929,2.257,2.3354,2.4452,2.5122,2.6086,2.7858,2.85,2.9085,3.0066,3.0268,3.0158,2.9776,2.992,2.9975,2.9748,2.9583,2.939,2.9152,2.9124,2.9097,2.8984,2.9058,2.9097,2.9014,2.8702,2.8663,2.9005,2.8663,2.8507,2.8507,2.8507,2.8362,2.8023,2.7949,2.7913,2.7894,2.749,2.727,2.7178,2.6866,2.6655,2.6591,2.6591,2.6591,2.6591,2.6591,2.6452,2.6255,0.0,0.0,0.0,0.0,0.0,0.0,0.0,0.0,1.4109,1.4402,1.4906,1.5102,1.4738,1.5423,1.5872,1.5843,1.7175,1.8163,1.8499,2.0851,2.2786,2.3984,2.5267,2.6114,2.6509,2.6591,2.6609,2.6683,2.6609,2.6609,2.6664,2.7041,2.7187,2.7169,2.794,2.8078,2.7747,2.8095,2.8069,2.7692,2.7343,2.694,2.6463,2.6031,2.5636,2.5379,2.5728,2.4867,2.3697,2.4464,2.4136,2.3361,2.2959,2.299,2.2787,2.0901,2.028,2.0061,1.9294,1.8862,1.888,2.0022,2.0105,2.0263,0.0,2.2625,2.3178,2.327,2.4519,2.5737,2.6251,2.7233,2.8297,2.9253,2.9748,3.0048,3.0176,3.0497,3.0571,3.0176,2.9868,2.9803,3.0103,2.9479,2.9207,2.951,2.9537,2.9381,2.9032,2.9344,2.9372,2.9023,2.8968,2.8938,2.9014,2.8968,2.892,2.892,2.892,2.8922,2.8867,2.8509,2.8324,2.8297,2.7913,2.7527,2.7197,2.716,2.693,2.6591,2.6591,2.6591,2.6591,2.6591,2.6871,2.7147,0.0,0.0,0.0,0.0,0.0,0.0,0.0,0.0,0.0,1.4485,1.4653,1.4698,1.4519,1.4455,1.4418,1.4418,1.6112,1.7442,1.8084,2.119,2.3449,2.4498,2.571,2.61,2.5569,2.6245,2.6363,2.5904,2.6844,2.7426,2.7646,2.8069,2.8261,2.8271,2.861,2.8665,2.8518,2.8693,2.8636,2.8491,2.8326,2.7876,2.7279,2.7105,2.6058,2.4709,2.49,2.4498,0.0,2.3733,2.3614,2.3425,2.3032,2.2693,2.219,2.0894,2.0165,1.9787,1.9676,1.9864,2.0271,2.1015,2.1602,2.2234,2.3193,2.4223,2.5078,2.5555,2.6573,2.76,2.8234,2.8766,2.9372,3.018,3.0424,3.0543,3.0543,3.0488,3.0296,2.9914,2.9308,2.914,2.9773,2.9745,2.9562,2.928,2.9473,2.9528,2.9363,2.951,2.9528,2.9363,2.8774,2.8346,2.8126,2.7347,2.7347,2.8126,2.7928,2.8241,2.8975,2.884,2.8618,2.8388,2.8205,2.7793,2.7206,2.7206,2.6976,2.6591,2.6591,2.6691,2.6818,2.6664,2.6745,2.6899,0.0,0.0,0.0,0.0,0.0,0.0,0.0,0.0,0.0,0.0,1.45,1.4431,1.4243,1.3791,1.3435,1.3245,1.5026,1.6596,1.7635,2.0686,2.3148,2.473,2.5155,2.5348,2.5312,2.5825,2.5986,2.5723,2.6895,2.7628,2.7902,2.8335,2.8509,2.8518,2.8748,2.8819,2.8828,2.8968,2.895,2.8819,2.8819,2.8298,2.7444,2.7215,2.5829,2.4021,2.4165,2.377,2.3121,2.2717,2.2684,2.2817,2.262,2.2245,2.1688,2.0762,2.0014,1.9575,2.0097,2.0821,2.1603,2.2222,2.3285,2.4345,2.4893,2.5948,2.7022,2.772,2.8397,2.9104,2.9813,2.9932,3.0171,3.0837,3.0978,3.0942,3.0809,3.0161,2.9521,2.8998,2.8042,2.7603,2.8067,2.8728,2.9054,2.8811,2.8701,2.8791,2.9168,2.8897,2.8659,2.8486,2.7844,2.7319,2.6968,2.6052,2.6052,2.696,2.6683,2.7055,2.7912,2.7912,2.7732,2.7467,2.7467,2.7079,2.6414,2.6337,2.6072,2.5747,2.6007,2.6236,2.6409,2.6555,2.6745,2.6963,0.0,0.0,0.0,0.0,0.0,0.0,0.0,0.0,0.0,0.0,0.0,0.0,0.0,1.3511,1.3245,1.2588,1.4262,1.6016,1.7609,1.9031,2.1313,2.4649,2.3161,2.3602,2.6482,2.5431,2.5412,2.6546,2.6619,2.6628,2.6655,2.7077,2.7261,2.7298,2.8058,2.8416,2.8434,2.8819,2.8764,2.8416,2.8416,2.7691,2.6563,2.5774,2.4656,2.3587,2.403,2.2653,2.0729,2.1467,2.1489,2.1245,2.1627,2.1993,2.2048,2.0845,2.0216,2.006,2.0839,2.1645,2.2552,2.381,2.5038,2.6123,2.693,2.805,2.9032,2.9445,2.9877,3.0268,3.0681,3.0754,3.0882,3.1327,3.1391,3.1263,3.0846,2.9443,2.8158,2.7367,2.5879,2.477,2.4402,2.5662,2.6996,2.8134,2.6972,2.6773,2.8086,2.7164,2.6303,2.5635,2.585,2.5834,2.5556,2.5786,2.5786,2.5549,2.5541,2.5389,2.5117,2.5117,2.5109,2.5101,2.5101,2.4856,2.4452,2.4207,2.3872,2.3586,2.4496,2.4861,2.5,2.6163,2.7143,2.7853,0.0,0.0,0.0,0.0,0.0,0.0,0.0,0.0,0.0,0.0,0.0,0.0,0.0,0.0,0.0,0.0,1.3421,1.4315,1.6051,1.8048,2.0027,2.1919,2.2959,2.3562,2.373,2.4169,2.4584,2.5,2.5545,2.6199,2.7013,2.7408,2.7591,2.761,2.7885,2.8004,2.8014,2.8151,2.8124,2.7958,2.7407,2.6811,2.6077,2.5003,2.3639,2.2282,0.0,2.1438,2.0454,2.0189,2.0189,2.0221,1.9779,2.0125,2.0637,2.0225,2.0381,2.093,2.1989,2.3294,2.4638,2.5884,2.7096,2.8133,2.8674,2.9528,3.0149,3.002,2.9883,2.9776,2.9617,2.8726,2.8206,2.8746,2.8349,2.795,2.7696,2.6991,2.6127,2.5185,2.4378,2.3501,2.2574,2.4366,2.5757,2.6063,2.6087,2.6384,2.7003,2.6704,2.6404,2.6174,2.5591,2.5048,2.4515,2.3706,2.3591,2.4179,2.4844,2.5105,2.4994,2.4994,2.4994,2.4994,2.4994,2.4661,2.4128,2.4047,2.3665,2.3169,2.3472,2.36,2.3676,2.4253,2.4808,2.5423,0.0,0.0,0.0,0.0,0.0,0.0,0.0,0.0,0.0,0.0,0.0,0.0,0.0,0.0,0.0,0.0,0.0,1.2952,1.4578,1.6067,1.7708,1.9532,2.0433,2.1014,2.1266,2.1644,2.2059,2.2477,2.3434,2.4307,2.507,2.5742,2.6123,2.627,2.6591,2.6811,2.694,2.694,2.6857,2.6655,2.583,2.5161,2.4572,2.3498,2.2327,0.0,2.0647,2.0301,1.9937,1.9106,1.9215,1.9482,1.8292,1.8621,1.9539,2.016,2.1004,2.2075,2.3596,2.5106,2.6545,2.7757,2.8867,2.969,2.9978,3.0446,3.0681,3.0277,2.9383,2.8541,2.8229,2.6818,2.5848,2.6364,2.6007,2.5638,2.5641,2.4819,2.403,2.3553,2.2665,2.184,2.1168,2.2495,2.3688,2.4301,2.4537,2.4987,2.578,2.5416,2.5158,2.5039,2.4537,2.3996,2.3426,2.2704,2.2547,2.2957,2.3414,2.3612,2.3612,2.3612,2.3612,2.3612,2.3612,2.3365,2.2961,2.2872,2.2512,2.2046,2.2385,2.2433,2.2438,2.3147,2.3463,2.3796,0.0,0.0,0.0,0.0,0.0,0.0,0.0,0.0,0.0,0.0,0.0,0.0,0.0,0.0,0.0,0.0,0.0,0.0,1.3197,1.3279,1.4562,1.7465,1.5988,1.64,1.923,1.8149,1.8157,1.9374,2.0531,2.1113,2.1191,2.2321,2.305,2.3435,2.428,2.4874,2.5242,2.5223,2.5012,2.4645,2.3733,2.2946,2.2176,2.1343,2.0793,2.0363,1.9586,1.9301,1.9183,1.8347,1.8614,1.9018,1.7347,1.7668,1.895,2.0622,2.1957,2.3287,2.5326,2.6783,2.7986,2.9152,3.0036,3.061,3.0668,3.0659,3.0522,3.0078,2.828,2.6693,2.6456,2.5006,2.3974,2.4268,2.433,2.4397,2.4623,2.3071,2.2075,2.2511,2.0992,1.9993,2.0224,2.0264,2.1074,2.2976,2.2413,2.2726,2.4407,2.3479,2.2766,2.2452,2.2712,2.2753,2.2385,2.2706,2.2539,2.1937,2.1376,2.1109,2.1109,2.1109,2.1109,2.1109,2.1109,2.1102,2.1069,2.0788,2.0501,2.0291,2.1162,2.1351,2.131,2.2664,2.303,2.2946,0.0,0.0,0.0,0.0,0.0,0.0,0.0,0.0,0.0,0.0,0.0,0.0,0.0,0.0,0.0,0.0,0.0,0.0,1.1584,1.2393,1.3399,1.4626,1.5651,1.6629,1.7589,1.7315,1.7743,1.8938,1.9252,1.9868,2.0776,2.1604,2.2053,2.2163,2.2396,2.2707,2.3056,2.2762,2.2936,2.3303,2.2158,2.1773,2.1723,2.0637,2.0143,1.9996,1.9494,1.9301,1.9262,1.9035,1.9078,1.9148,1.8697,1.8787,1.9377,2.0991,2.182,2.253,2.391,2.5321,2.653,2.7143,2.7677,2.8168,2.8662,2.8794,2.8429,2.7114,2.5924,2.4604,2.2905,2.1629,2.1071,2.1777,2.1936,2.2142,2.2651,2.2468,2.218,2.1892,2.1443,2.108,2.0902,2.1089,2.1467,2.1968,2.1835,2.2175,2.3283,2.3058,2.286,2.2786,2.2853,2.2753,2.2385,2.2097,2.1729,2.1329,2.1182,2.1109,2.1109,2.1109,2.1109,2.1109,2.1109,2.0989,2.0813,2.0739,2.0501,2.0201,2.0228,2.0219,2.0182,2.0354,2.0493,2.0666,0.0,0.0,0.0,0.0,0.0,0.0,0.0,0.0,0.0,0.0,0.0,0.0,0.0,0.0,0.0,0.0,0.0,0.0,0.0,1.1525,1.2156,1.2607,1.387,1.4656,1.4922,1.4937,1.5267,1.5941,1.6807,1.7569,1.8246,1.9537,2.0204,2.0399,2.0573,2.0875,2.1224,2.0821,2.0912,0.0,0.0,2.0179,2.0335,1.9831,1.963,1.9602,1.9384,1.9401,1.9571,1.9539,1.8977,1.8582,2.0295,2.0658,2.0775,2.2371,2.3395,2.4195,2.4728,2.562,2.6473,2.6887,2.6867,2.6777,2.6896,2.658,2.5863,2.4516,2.3131,2.1786,2.0607,1.9413,1.8906,1.9759,2.003,2.0448,2.1321,2.1436,2.153,2.1756,2.1662,2.1522,2.1355,2.1368,2.1442,2.1575,2.1823,2.2144,2.2639,2.2827,2.2893,2.2893,2.2893,2.2813,2.2612,2.2158,2.1784,2.149,2.137,2.1236,2.1109,2.1109,2.1109,2.1109,2.1109,2.1015,2.0869,2.0869,2.0695,2.0408,2.0247,2.0107,1.9983,1.9983,1.9985,2.0058,0.0,0.0,0.0,0.0,0.0,0.0,0.0,0.0,0.0,0.0,0.0,0.0,0.0,0.0,0.0,0.0,0.0,0.0,0.0,0.0,1.1244,1.1339,1.1737,1.2105,1.2384,1.2443,1.2519,1.2611,1.4295,1.5189,1.5326,1.7009,1.8034,1.8466,1.8834,1.919,1.9566,1.9219,1.9127,1.9191,1.8833,1.8723,1.8815,0.0,0.0,1.9282,1.9183,1.935,1.966,1.9713,1.8812,1.8298,2.1702,2.2477,2.2418,2.3807,2.5179,2.6187,2.6046,2.6249,2.6576,2.6954,2.6349,2.5541,2.5049,2.4191,2.3171,2.2092,2.0351,1.9013,1.8994,1.7995,1.7507,1.8397,1.8824,1.9466,2.0712,2.0628,2.0875,2.2004,2.191,2.1763,2.1763,2.1496,2.145,2.1743,2.2191,2.2458,2.2385,2.2665,2.2853,2.2893,2.2893,2.288,2.284,2.2545,2.2271,2.2017,2.1723,2.1448,2.1169,2.1129,2.1109,2.1109,2.1109,2.1109,2.1109,2.1109,2.0962,2.0759,2.0719,2.0514,2.0315,2.0543,2.0492,2.0442,0.0,0.0,0.0,0.0,0.0,0.0,0.0,0.0,0.0,0.0,1.3461,1.3556,0.0,0.0,0.0,0.0,0.0,0.0,0.0,0.0,0.0,1.1105,1.1868,1.2497,1.2876,1.3143,1.3582,1.4207,1.4539,1.5046,1.5705,1.6041,1.6555,1.7229,1.7293,1.7541,1.7917,1.7844,1.8201,1.8806,1.8723,1.8888,1.9201,1.9274,0.0,0.0,1.8487,1.827,1.8439,1.9066,1.9989,2.0983,2.1813,2.2154,2.2406,2.3176,2.3487,2.3606,2.3804,2.3887,2.3977,2.4032,2.3224,2.2444,2.2559,2.1888,2.0861,1.9466,1.8858,1.8235,1.707,1.703,1.7548,1.8664,1.9299,2.014,2.1557,2.1717,2.1937,2.2659,2.2699,2.2673,2.2673,2.2619,2.2612,2.2666,2.276,2.2679,2.2398,2.2465,2.2605,2.2887,2.2893,2.278,2.2498,2.2445,2.2271,2.2017,2.1723,2.1562,2.1502,2.1223,2.1109,2.1109,2.1109,2.1109,2.1109,2.1109,2.1082,2.1009,2.0799,2.0672,2.0592,2.0358,2.0425,2.0659,0.0,0.0,0.0,0.0,0.0,0.0,0.0,1.3897,1.3736,1.3351,1.3296,1.336,1.3575,1.3669,0.0,0.0,0.0,0.0,0.0,0.0,0.0,0.0,0.0,0.0,1.2944,1.3319,1.3673,1.4034,0.0,1.5002,1.5815,1.6193,1.6569,1.6908,1.6908,1.7009,1.7202,1.7413,1.7724,1.8119,1.8521,1.8825,1.9017,0.0,0.0,0.0,1.8836,1.8518,1.8466,1.9434,1.9886,2.036,2.2119,2.2728,2.2895,2.3448,2.388,2.4108,2.3678,2.3554,2.3521,2.3332,2.2205,2.1009,2.0512,1.9591,1.8545,1.7334,1.7081,1.696,1.659,1.6879,1.7541,1.8531,1.9058,1.9806,2.1154,2.1436,2.1804,2.2539,2.2806,2.284,2.2645,2.2632,2.2632,2.2632,2.2632,2.2706,2.2852,2.2858,2.2879,2.2893,2.2893,2.2827,2.2652,2.2645,2.2498,2.2211,2.2071,2.1924,2.1803,2.1509,2.1368,2.1361,2.1176,2.1109,2.1109,2.1109,2.1109,2.1096,2.0955,2.0902,2.09,2.0715,2.0761,2.0917,0.0,0.0,0.0,0.0,0.0,0.0,0.0,1.363,1.3438,1.3438,1.3497,1.3525,1.3447,1.3992,1.4071,0.0,0.0,0.0,0.0,0.0,0.0,0.0,0.0,0.0,1.3293,0.0,0.0,1.4232,1.4645,0.0,0.0,0.0,0.0,0.0,1.6908,1.6908,1.6936,1.7422,1.7633,0.0,0.0,1.8824,0.0,0.0,0.0,0.0,0.0,1.8507,1.8305,1.908,1.8742,1.8502,2.1362,2.2453,2.2776,2.3329,2.4192,2.4789,2.4074,2.385,2.3736,2.3365,2.1944,2.0294,1.915,1.7956,1.6846,1.5975,1.5808,1.5968,1.6513,1.6879,1.7374,1.8243,1.8584,1.9163,2.0525,2.0869,2.139,2.2392,2.2779,2.2873,2.2639,2.2672,2.2679,2.2585,2.2692,2.2953,2.3272,2.326,2.3146,2.3,2.2934,2.2893,2.2893,2.2893,2.278,2.2512,2.2411,2.2298,2.2064,2.1749,2.1582,2.1569,2.1236,2.1109,2.1109,2.1109,2.1109,2.1109,2.1109,2.1109,2.1114,2.1091,2.1159,2.1218,0.0,0.0,0.0,0.0,0.0,0.0,0.0,1.3869,1.3842,1.3842,1.4167,1.4258,1.3887,1.3915,1.4061,0.0,0.0,0.0,0.0,0.0,0.0,0.0,0.0,0.0,0.0,0.0,0.0,1.6586,1.5974,0.0,0.0,0.0,0.0,0.0,0.0,1.6908,1.6946,1.7715,0.0,0.0,0.0,0.0,0.0,0.0,0.0,0.0,0.0,1.6898,1.6807,1.6361,1.614,1.6334,1.7988,1.9613,2.1047,2.1641,2.2613,2.3588,2.4044,2.3975,2.3736,2.3365,2.1758,2.0003,1.9103,1.7796,1.6573,1.5935,1.5808,1.5901,1.6277,1.6553,1.7034,1.7889,1.8069,1.8696,2.0434,2.0733,2.1274,2.2686,2.3093,2.3238,2.3212,2.3487,2.3534,2.3232,2.3734,2.3834,2.3319,2.306,2.3026,2.328,2.3041,2.2893,2.2893,2.2893,2.288,2.2853,2.2545,2.2405,2.2358,2.1836,2.1582,2.1569,2.1236,2.1109,2.1109,2.1109,2.1109,2.1109,2.1109,2.1109,2.1109,2.1107,2.1283,2.1566,0.0,0.0,0.0,0.0,0.0,0.0,1.386,1.3695,1.363,1.3869,1.4249,1.4436,1.4286,1.4258,1.4231,0.0,0.0,0.0,0.0,0.0,0.0,0.0,0.0,0.0,0.0,0.0,1.5428,1.5884,1.5835,0.0,0.0,0.0,0.0,0.0,0.0,1.6908,1.6945,1.7504,0.0,0.0,0.0,0.0,0.0,0.0,0.0,0.0,0.0,0.0,1.6643,1.6233,1.5849,1.5681,1.6442,1.7555,1.8873,2.0327,2.147,2.2425,2.3221,2.3616,2.3643,2.2946,2.1338,1.9746,1.8865,1.7508,1.6326,1.5888,1.5808,1.5895,1.6244,1.6513,1.6881,1.7434,1.7649,1.8143,1.9212,1.9512,2.016,2.163,2.2225,2.2659,2.3013,2.3522,2.3721,2.3607,2.3814,2.3915,2.3855,2.3574,2.3502,2.3587,2.3154,2.2987,2.314,2.2987,2.2893,2.2893,2.2746,2.2686,2.2706,2.2265,2.1977,2.183,2.1535,2.1276,2.1109,2.1109,2.1109,2.1109,2.1109,2.1109,2.1109,2.1109,2.1172,2.1299,0.0,0.0,0.0,0.0,0.0,1.3401,1.3686,1.3484,1.3447,1.3842,1.4249,1.45,1.45,1.45,1.4396,1.4108,0.0,0.0,0.0,0.0,0.0,0.0,0.0,0.0,0.0,0.0,1.5293,1.5529,1.5808,1.6279,0.0,0.0,1.6908,1.6908,0.0,0.0,0.0,0.0,0.0,0.0,0.0,0.0,0.0,0.0,0.0,0.0,0.0,0.0,0.0,0.0,0.0,1.5337,1.5688,1.6259,1.714,1.8918,2.0201,2.1274,2.2244,2.2947,2.32,2.2472,2.1036,1.9546,1.8571,1.7301,1.6192,1.5797,1.5754,1.5844,1.6033,1.6404,1.6774,1.7006,1.7361,1.7822,1.8431,1.8818,1.9533,2.0828,2.1503,2.2124,2.2706,2.3315,2.375,2.3888,2.393,2.3991,2.4068,2.3961,2.3897,2.381,2.3302,2.306,2.3187,2.3007,2.2893,2.2893,2.2893,2.2893,2.2887,2.2552,2.2258,2.2004,2.1709,2.1415,2.1116,2.1203,2.1189,2.1116,2.1203,2.1236,2.1236,2.1236,2.1296,2.137,0.0,0.0,0.0,0.0,0.0,0.0,1.3318,1.3296,1.3447,1.3842,1.4249,1.45,1.45,1.45,1.45,1.4491,0.0,0.0,0.0,0.0,0.0,0.0,0.0,0.0,0.0,0.0,1.5489,1.6288,1.6288,1.6506,1.6908,1.6908,1.6908,1.6908,0.0,0.0,0.0,0.0,0.0,0.0,0.0,0.0,0.0,0.0,0.0,0.0,0.0,0.0,0.0,0.0,0.0,0.0,0.0,1.5815,1.6048,1.7261,1.8657,2.0074,2.1281,2.2024,2.2358,2.2064,2.0882,1.9486,1.829,1.7114,1.6137,1.5599,1.5666,1.573,1.5547,1.6166,1.6707,1.6707,1.7201,1.7822,1.8431,1.9027,1.9722,2.0605,2.1234,2.1816,2.2331,2.2938,2.3539,2.4155,2.4202,2.4075,2.3823,2.4042,2.4068,2.3817,2.348,2.318,2.2907,2.2893,2.2893,2.2893,2.2893,2.2893,2.2887,2.2552,2.2258,2.2004,2.1709,2.1415,2.1129,2.1462,2.1408,2.1136,2.1468,2.1582,2.1582,2.1582,2.1763,2.1977,0.0,0.0,0.0,0.0,0.0,0.0,0.0,1.3126,1.3355,1.3461,1.3851,1.4194,1.4464,1.4258,1.4194,1.4488,0.0,0.0,0.0,0.0,0.0,0.0,0.0,0.0,0.0,0.0,1.5359,1.589,1.6175,1.6506,1.6908,1.6908,1.6908,1.6908,1.6908,1.6908,0.0,0.0,0.0,0.0,0.0,0.0,1.7876,0.0,0.0,0.0,0.0,0.0,0.0,0.0,0.0,0.0,0.0,0.0,0.0,1.6248,1.7409,1.8743,1.9546,2.018,2.0508,2.002,1.9085,1.8157,1.7582,1.6567,1.5747,1.5703,1.5794,1.5908,1.6011,1.6588,1.7033,1.7033,1.7361,1.7675,1.7869,1.839,1.9267,2.0552,2.2124,2.3293,2.3839,2.3532,2.3539,2.4162,2.4022,2.3955,2.4062,2.4342,2.4275,2.3823,2.348,2.3245,2.318,2.3,2.2893,2.2893,2.2893,2.2893,2.2893,2.28,2.2559,2.2265,2.1977,2.1797,2.1704,2.1629,2.1649,2.1717,2.1843,2.1883,2.1883,2.1883,2.1937,2.1984,0.0,0.0,0.0,0.0,0.0,0.0,0.0,1.3034,1.3296,1.3296,1.3782,1.4157,1.4268,1.4185,1.4222,1.4473,0.0,0.0,0.0,0.0,0.0,0.0,0.0,0.0,0.0,1.4753,1.5148,1.5705,1.5955,1.6367,1.6908,1.6908,1.6908,1.6908,1.6908,1.6908,0.0,0.0,0.0,0.0,0.0,0.0,1.714,0.0,0.0,0.0,0.0,0.0,0.0,0.0,0.0,0.0,0.0,0.0,0.0,0.0,1.6462,1.7362,1.8169,1.8851,1.9219,1.8851,1.8163,1.7501,1.71,1.6239,1.5516,1.5523,1.5722,1.5918,1.598,1.6653,1.7199,1.7199,1.7421,1.7648,1.7742,1.837,1.9395,2.0866,2.2472,2.3603,2.3928,2.3681,2.3688,2.4168,2.3935,2.393,2.4189,2.4269,2.4095,2.3621,2.3534,2.3387,2.3153,2.2994,2.2893,2.2893,2.2893,2.2893,2.2893,2.2893,2.2733,2.2371,2.2225,2.2084,0.0,2.1943,2.1957,2.1997,2.2104,2.2151,2.2151,2.2151,2.2218,2.2352,0.0,0.0,0.0,0.0,0.0,0.0,0.0,0.0,1.33,1.3332,1.3958,1.4249,1.3936,1.422,1.4419,1.4431,0.0,0.0,0.0,0.0,0.0,0.0,0.0,0.0,0.0,1.45,1.49,1.5705,1.5705,1.6111,1.6908,1.6908,1.6908,1.6908,1.6908,1.6908,0.0,0.0,0.0,0.0,0.0,0.0,0.0,0.0,0.0,0.0,0.0,0.0,0.0,0.0,0.0,0.0,0.0,0.0,0.0,0.0,0.0,0.0,0.0,1.7869,1.8303,1.8303,1.7903,1.7315,1.6742,1.6025,0.0,1.5148,1.553,1.5834,1.5595,1.646,1.7233,1.7233,1.7434,1.7689,1.7949,1.8898,2.0064,2.1448,2.2445,2.2994,2.2907,2.3469,2.3915,2.4182,2.3955,2.3964,2.4215,2.3955,2.3667,2.3332,2.3607,2.3496,2.2907,2.2893,2.2893,2.2893,2.2893,2.2893,2.2893,2.2893,2.2746,2.2411,2.2425,2.2278,2.2064,2.2318,2.2271,2.2104,2.2345,2.2452,2.2452,2.2452,2.2625,2.2893,0.0,0.0,0.0,0.0,0.0,0.0,0.0,0.0,0.0,0.0,1.348,1.3447,1.3924,1.3787,1.3676,0.0,0.0,0.0,0.0,0.0,0.0,0.0,0.0,0.0,0.0,1.45,1.49,1.5705,1.5705,1.6111,1.6908,1.6908,1.6908,1.6908,1.6908,1.6908,0.0,0.0,0.0,0.0,0.0,0.0,0.0,0.0,0.0,0.0,1.3948,1.4051,0.0,0.0,0.0,0.0,0.0,0.0,0.0,0.0,1.5689,1.5671,1.6093,0.0,1.6428,1.6428,1.6322,1.6157,0.0,1.5477,1.5172,1.5107,1.5569,1.5989,1.6096,1.6883,1.7508,1.7508,1.7568,1.7689,1.7949,1.9773,2.1281,2.185,2.3267,2.3861,2.298,2.3614,2.4128,2.4202,2.4142,2.4229,2.4486,2.4262,2.3968,2.3674,2.3514,2.3247,2.29,2.2893,2.2893,2.2893,2.2893,2.2893,2.2893,2.2893,2.286,2.278,2.2519,2.2505,2.2679,2.2485,2.2512,2.2693,2.2766,2.2793,2.2793,2.2793,2.284,2.2893,0.0,0.0,0.0,0.0,0.0,0.0,0.0,0.0,0.0,0.0,0.0,0.0,0.0,0.0,0.0,0.0,0.0,0.0,0.0,0.0,0.0,0.0,0.0,1.45,1.45,1.45,1.49,1.5705,1.5705,1.6111,1.6908,1.6908,1.6908,1.6908,1.6908,1.6908,0.0,0.0,0.0,0.0,1.6037,0.0,0.0,0.0,0.0,0.0,1.3807,1.4048,0.0,1.4589,1.4969,1.5428,0.0,0.0,0.0,0.0,1.5547,1.5635,1.5666,1.573,1.5808,1.5808,1.5808,1.5761,1.554,1.5285,1.5107,1.5107,1.5577,1.6067,1.6268,1.7014,1.7608,1.7608,1.7702,1.8016,1.8723,2.018,2.1495,2.2325,2.336,2.3834,2.3362,2.3961,2.4235,2.3834,2.4048,2.4215,2.4242,2.3961,2.3728,2.3574,2.3273,2.3033,2.2893,2.2893,2.2893,2.2893,2.2893,2.2893,2.2893,2.2893,2.2893,2.2887,2.2726,2.2712,2.2887,2.2686,2.2753,2.2893,2.2893,2.2893,2.2893,2.2893,2.2893,2.2893,0.0,0.0,0.0,0.0,0.0,0.0,0.0,0.0,0.0,0.0,0.0,0.0,0.0,0.0,0.0,0.0,0.0,0.0,0.0,0.0,0.0,0.0,0.0,1.4528,1.4592,1.4592,1.4992,1.578,1.578,1.6166,1.6908,1.6908,1.6908,1.6908,1.6908,1.6908,0.0,0.0,0.0,0.0,1.6037,0.0,0.0,0.0,0.0,0.0,0.0,0.0,0.0,1.4557,1.4949,1.5435,1.5492,0.0,0.0,0.0,0.0,0.0,1.5588,1.5716,1.5861,1.5767,1.5784,1.573,1.5493,1.5324,1.5218,1.5171,1.5666,1.6157,1.6333,1.7047,1.7622,1.7649,1.7962,1.8616,1.9773,2.0481,2.1388,2.2679,2.3187,2.3507,2.3656,2.4202,2.4206,2.3419,2.3895,2.4075,2.3823,2.3534,2.3339,2.3292,2.3026,2.2893,2.2893,2.2893,2.2893,2.2893,2.2893,2.2893,2.2893,2.2893,2.2893,2.2893,2.2893,2.2873,2.2827,2.2827,2.28,2.276,2.276,2.2793,2.2827,2.2827,2.2853,2.2893,0.0,0.0,0.0,0.0,0.0,0.0,0.0,0.0,0.0,0.0,0.0,0.0,0.0,0.0,0.0,0.0,0.0,0.0,0.0,0.0,0.0,0.0,1.45,1.4656,1.5001,1.501,1.5404,1.6204,1.6204,1.6442,1.6908,1.6908,1.6908,1.6908,1.6908,1.6908,1.6908,0.0,0.0,0.0,1.6037,0.0,0.0,0.0,0.0,0.0,0.0,0.0,0.0,1.4488,1.4851,1.5481,1.5503,0.0,0.0,0.0,0.0,0.0,1.5713,1.5988,1.6122,1.5653,1.5659,1.5689,1.5267,1.5472,1.5713,1.5482,1.611,1.669,1.6716,1.7205,1.7669,1.7902,1.8644,1.9515,2.0438,2.1288,2.1957,2.2432,2.342,2.3788,2.3108,2.3774,2.4115,2.3763,2.4015,2.4075,2.3823,2.3763,2.3587,2.3299,2.3026,2.2893,2.2893,2.2893,2.2893,2.2893,2.2893,2.2893,2.2893,2.2893,2.2893,2.2893,2.2893,2.2753,2.2485,2.2485,2.2338,2.2151,2.2151,2.2271,2.2485,2.2485,2.2645,2.2893,0.0,0.0,0.0,0.0,0.0,0.0,0.0,0.0,0.0,0.0,0.0,0.0,0.0,0.0,0.0,0.0,0.0,0.0,0.0,0.0,0.0,1.4802,1.4827,1.4909,1.5093,1.5102,1.5489,1.6305,1.6305,1.6506,1.6908,1.6908,1.6908,1.6908,1.6908,1.6908,1.6908,1.6908,0.0,0.0,0.0,0.0,0.0,0.0,0.0,0.0,0.0,0.0,0.0,0.0,1.5076,1.5469,1.5339,0.0,0.0,0.0,0.0,0.0,1.5635,1.5836,1.5991,1.577,1.6009,1.6137,1.5646,1.5834,1.6092,1.5974,1.6411,1.6833,1.6981,1.745,1.8063,1.8843,1.9466,2.0087,2.0808,2.1256,2.1797,2.2565,2.2999,2.3267,2.3382,2.3763,2.381,2.3348,2.3743,2.3803,2.3342,2.344,2.3394,2.3086,2.2974,2.2893,2.2893,2.2893,2.2893,2.2893,2.2893,2.2893,2.2893,2.2893,2.2893,2.2887,2.2726,2.2545,2.2371,2.2251,2.2104,2.1984,2.1984,2.2164,2.2385,2.2385,2.2505,2.2619,0.0,0.0,0.0,0.0,0.0,0.0,0.0,0.0,0.0,0.0,0.0,0.0,0.0,0.0,0.0,0.0,0.0,0.0,0.0,0.0,1.4294,1.4931,1.5056,1.5194,1.5386,1.5386,1.5735,1.6442,1.6442,1.6598,1.6908,1.6908,1.6908,1.6908,1.6908,1.6908,1.6891,1.679,1.6765,0.0,0.0,0.0,0.0,0.0,0.0,0.0,0.0,0.0,0.0,0.0,0.0,0.0,0.0,0.0,0.0,1.4909,1.5237,1.5706,1.554,1.5712,1.59,1.5829,1.6208,1.653,1.6196,1.6381,1.6617,1.6689,1.6905,1.718,1.7455,1.7949,1.8643,1.9646,2.013,2.061,2.1236,2.137,2.183,2.2974,2.2812,2.2959,2.383,2.3783,2.3474,2.3041,2.3435,2.3469,2.2927,2.316,2.3187,2.2907,2.2893,2.2893,2.2893,2.2893,2.2893,2.2893,2.2893,2.2893,2.2893,2.2893,2.2893,2.2887,2.2619,2.2445,2.2298,2.2078,2.1904,2.1784,2.1784,2.1957,2.2225,2.2291,2.2358,2.2385,0.0,0.0,0.0,0.0,0.0,0.0,0.0,0.0,0.0,0.0,0.0,0.0,0.0,0.0,0.0,0.0,0.0,0.0,0.0,0.0,1.4163,1.4537,1.49,1.546,1.6195,1.6213,1.6415,1.6862,1.6862,1.6863,1.6908,1.6908,1.6908,1.6908,1.6908,1.6908,1.6874,1.6437,1.6461,1.668,0.0,0.0,0.0,0.0,0.0,0.0,0.0,0.0,0.0,0.0,0.0,0.0,0.0,0.0,1.4814,1.5011,1.5291,1.5516,1.5493,1.5864,1.6155,1.5656,1.5934,1.6397,1.6675,1.714,1.7576,1.7836,1.7889,1.8015,1.8343,1.8906,1.9415,1.974,2.0501,2.1249,2.1837,2.2151,2.2665,2.3629,2.344,2.3465,2.4115,2.3681,2.3305,2.3265,2.3299,2.3213,2.2914,2.316,2.3187,2.2907,2.2893,2.2893,2.2893,2.2893,2.2893,2.2893,2.2893,2.2893,2.2893,2.2893,2.2893,2.2893,2.2873,2.2559,2.2017,2.2024,2.1663,2.1169,2.1169,2.1381,2.1683,2.195,2.2191,2.2385,0.0,0.0,0.0,0.0,0.0,0.0,0.0,0.0,0.0,0.0,0.0,0.0,0.0,0.0,0.0,0.0,0.0,0.0,0.0,0.0,1.4252,1.4848,1.5258,1.5735,1.6296,1.6305,1.6497,1.6908,1.6908,1.6908,1.6908,1.6908,1.7037,1.7266,1.7266,1.7108,1.6831,1.6656,1.6171,1.5516,1.4995,0.0,0.0,0.0,0.0,0.0,0.0,0.0,0.0,0.0,1.5029,1.4861,1.4933,1.4963,1.5005,1.5267,1.5428,1.554,1.5659,1.5877,1.6044,1.6011,1.6442,1.6881,1.7031,1.7616,1.813,1.8009,1.8309,1.8603,1.8738,1.9239,1.9853,2.0508,2.1196,2.1857,2.2485,2.2659,2.2893,2.3434,2.3227,2.32,2.3585,2.328,2.304,2.304,2.304,2.3021,2.2907,2.3007,2.2986,2.29,2.2893,2.2893,2.2893,2.2893,2.2806,2.2585,2.2806,2.2893,2.2893,2.2893,2.2893,2.2873,2.2505,2.2224,2.1957,2.159,2.1309,2.1129,2.1341,2.1375,2.1341,2.1642,2.1823,2.1937,0.0,0.0,0.0,0.0,0.0,0.0,0.0,0.0,0.0,0.0,0.0,0.0,0.0,0.0,0.0,0.0,0.0,0.0,1.398,1.3896,1.4155,1.4885,1.5429,1.5826,1.6094,1.636,1.6616,1.6908,1.6908,1.6908,1.6891,1.7037,1.7238,1.7486,1.7352,1.7098,1.6777,1.6352,1.565,1.4799,1.4636,1.4393,0.0,0.0,0.0,0.0,0.0,0.0,0.0,0.0,1.519,1.4975,1.5083,1.5107,1.5148,1.5428,1.5493,1.554,1.5659,1.578,1.5928,1.6118,1.6615,1.7107,1.7388,1.805,1.8651,1.8696,1.903,1.925,1.9098,1.9539,2.016,2.0862,2.1543,2.2158,2.2686,2.284,2.3014,2.3258,2.3053,2.3021,2.3265,2.2959,2.2753,2.2753,2.2673,2.2659,2.2753,2.2666,2.2659,2.2753,2.2666,2.2619,2.2619,2.2619,2.2485,2.2285,2.2525,2.2666,2.2753,2.2659,2.2666,2.2692,2.2231,2.1937,2.185,2.1416,2.1196,2.1129,2.1336,2.1289,2.1136,2.1368,2.1502,2.1616,0.0,0.0,0.0,0.0,0.0,0.0,0.0,0.0,0.0,0.0,0.0,0.0,0.0,0.0,0.0,0.0,0.0,0.0,1.3935,1.3692,1.3806,1.4461,1.5267,1.5705,1.5689,1.6486,1.6908,1.6908,1.6908,1.6908,1.6917,1.7312,1.7495,1.7478,1.7019,1.6815,1.6708,1.5384,1.4812,1.476,1.4302,1.4109,0.0,0.0,0.0,0.0,0.0,0.0,0.0,0.0,1.5291,1.5445,1.5202,1.5107,1.5155,1.5428,1.5493,1.5493,1.5493,1.5642,1.581,1.5901,1.6313,1.6947,1.7789,1.8463,1.9143,2.0024,2.0204,2.0024,1.9515,1.9846,2.0304,2.0635,2.1448,2.2084,2.2345,2.2672,2.3014,2.3245,2.3046,2.2986,2.3252,2.2738,2.2385,2.2412,2.2151,2.2111,2.2365,2.2138,2.2118,2.2405,2.2138,2.1984,2.1984,2.1984,2.1984,2.2017,2.2017,2.2131,2.2405,2.2118,2.2138,2.2398,2.2111,2.185,2.1582,2.1614,2.1408,2.1109,2.1109,2.1109,2.1109,2.1109,2.1296,2.1614,0.0,0.0,0.0,0.0,0.0,0.0,0.0,0.0,0.0,0.0,0.0,0.0,0.0,0.0,0.0,0.0,0.0,0.0,1.398,1.392,1.4055,1.4485,1.5267,1.5576,1.5285,1.6079,1.6621,1.6908,1.6908,1.6908,1.6917,1.7312,1.7651,1.7935,1.8065,1.7607,1.6697,1.6305,1.544,1.4296,1.4153,1.4109,1.4121,0.0,0.0,0.0,0.0,0.0,0.0,0.0,0.0,0.0,1.5356,1.538,1.5428,1.5642,1.5611,1.554,1.5659,1.5921,1.6155,1.6177,1.691,1.7689,1.7949,1.8469,1.9143,2.0024,2.0204,2.015,1.9977,2.0287,2.0708,2.1248,2.1716,2.2084,2.2345,2.2672,2.2853,2.2706,2.2792,2.2853,2.2665,2.2525,2.2338,2.2131,2.2031,2.2024,2.2111,2.2031,2.2024,2.2111,2.2031,2.1984,2.1984,2.1984,2.1917,2.1716,2.1716,2.187,2.2111,2.2024,2.2031,2.2098,2.1843,2.1662,2.1569,2.1361,2.1189,2.1109,2.1109,2.1109,2.1109,2.1109,2.1162,2.1269,0.0,0.0,0.0,0.0,0.0,0.0,0.0,0.0,0.0,0.0,0.0,0.0,0.0,0.0,0.0,0.0,0.0,0.0,0.0,1.407,1.4141,1.4493,1.5113,1.5493,1.5582,1.6051,1.6499,1.6908,1.6908,1.6908,1.6917,1.7486,1.7862,1.809,1.7965,1.7473,1.6657,1.5966,1.5068,1.4109,1.4109,1.4109,1.4148,0.0,0.0,0.0,0.0,0.0,0.0,0.0,0.0,0.0,1.5571,1.5611,1.5635,1.5754,1.5706,1.5659,1.5784,1.6034,1.6361,1.6613,1.7248,1.7962,1.8464,1.9112,1.9833,2.0601,2.0661,2.0584,2.0735,2.0746,2.086,2.1328,2.1656,2.191,2.2051,2.2425,2.2619,2.2405,2.2579,2.2612,2.2438,2.2211,2.2004,2.1856,2.1704,2.169,2.1843,2.1704,2.169,2.1843,2.1697,2.1637,2.1637,2.1637,2.155,2.1408,2.1408,2.1502,2.1637,2.1637,2.1736,2.183,2.1535,2.1408,2.1395,2.1182,2.1109,2.1109,2.1109,2.1109,2.1109,2.1109,2.1109,2.1136,0.0,0.0,0.0,0.0,0.0,0.0,0.0,0.0,0.0,0.0,0.0,0.0,0.0,0.0,0.0,0.0,0.0,0.0,0.0,0.0,1.412,1.4489,1.4851,1.5437,1.6237,1.6254,1.6447,1.6856,1.6874,1.6927,1.6972,1.7743,1.809,1.8005,1.7184,1.6739,1.6473,1.488,1.4173,1.4109,1.4109,1.4109,1.4155,1.4736,0.0,0.0,0.0,0.0,0.0,0.0,0.0,0.0,1.5808,1.5808,1.5808,1.5808,1.5808,1.5815,1.5841,1.6086,1.6478,1.7092,1.7474,1.8036,1.9207,2.0097,2.0826,2.1388,2.1335,2.1223,2.1502,2.1107,2.084,2.1102,2.1408,2.1582,2.1582,2.2031,2.2345,2.2345,2.2345,2.2345,2.2345,2.191,2.1575,2.1549,2.1263,2.1229,2.1529,2.1256,2.1236,2.1535,2.1249,2.1109,2.1109,2.1109,2.1096,2.1069,2.1069,2.1056,2.1029,2.1082,2.1256,2.1529,2.1229,2.1109,2.1109,2.1109,2.1109,2.1109,2.1109,2.1109,2.1109,2.1109,2.1109,2.1109,0.0,0.0,0.0,0.0,0.0,0.0,0.0,0.0,0.0,0.0,0.0,0.0,0.0,0.0,0.0,0.0,0.0,0.0,0.0,0.0,1.3896,1.4545,1.4664,1.5086,1.5895,1.5912,1.6088,1.6438,1.6752,1.7064,1.7376,1.7871,1.7907,1.7568,1.7681,1.6964,1.5656,1.5276,1.472,1.4109,1.4109,1.4109,1.4148,1.4537,1.4822,0.0,0.0,0.0,0.0,0.0,0.0,0.0,1.5808,1.5808,1.5808,1.5808,1.5808,1.5855,1.6112,1.6393,1.6754,1.7367,1.807,1.8856,1.9803,2.0164,2.0434,2.082,2.1214,2.1435,2.1236,2.1102,2.1116,2.1442,2.1542,2.1582,2.1582,2.189,2.2078,2.2078,2.2078,2.2078,2.2078,2.179,2.1489,2.1223,2.1149,2.1136,2.1203,2.1142,2.1136,2.1203,2.1142,2.1109,2.1109,2.1109,2.0995,2.0799,2.0799,2.0648,2.0404,2.0864,2.1142,2.1203,2.1136,2.1109,2.1109,2.1109,2.1109,2.1109,2.1109,2.1109,2.1109,2.1109,2.1109,2.1109,0.0,0.0,0.0,0.0,0.0,0.0,0.0,0.0,0.0,0.0,0.0,0.0,0.0,0.0,0.0,0.0,0.0,0.0,0.0,0.0,1.4001,1.4564,1.4604,1.4979,1.578,1.5987,1.6349,1.6865,1.7278,1.7468,1.7504,1.7681,1.7635,1.7388,1.6944,1.6247,1.5373,1.495,1.4517,1.4109,1.4109,1.4168,1.4321,1.465,1.4953,1.5231,1.553,0.0,0.0,0.0,0.0,0.0,0.0,0.0,1.5808,1.5808,1.5808,1.5841,1.6019,1.6373,1.6914,1.7822,1.8584,1.9292,1.9887,1.9997,2.0147,2.0612,2.106,2.1408,2.1503,2.1296,2.1203,2.1535,2.1468,2.1375,2.1375,2.1629,2.181,2.181,2.181,2.181,2.181,2.1549,2.1276,2.1122,2.1109,2.1109,2.1109,2.1109,2.1109,2.1109,2.0975,2.0902,2.0902,2.0762,2.0615,2.0468,2.0468,2.0454,2.0454,2.0762,2.0902,2.0909,2.1049,2.1109,2.1109,2.1109,2.1109,2.1109,2.1109,2.1109,2.1109,2.1109,2.1109,2.1109,0.0,0.0,0.0,0.0,0.0,0.0,0.0,0.0,0.0,0.0,0.0,0.0,0.0,0.0,0.0,0.0,0.0,0.0,0.0,0.0,0.0,1.4497,1.4574,1.4973,1.578,1.6184,1.6764,1.7495,1.7796,1.7758,1.7433,1.7407,1.7248,1.6941,1.5865,1.5311,1.5131,1.4349,1.4067,1.4088,1.4121,1.4266,1.4534,1.4926,1.5213,1.5438,1.5701,1.5808,1.5808,1.5808,0.0,0.0,0.0,0.0,1.5808,1.5808,1.5808,1.5815,1.5868,1.6373,1.7121,1.8217,1.8926,1.9408,1.972,1.98,1.9953,2.0488,2.0828,2.1196,2.173,2.1436,2.1189,2.1468,2.1269,2.1109,2.1109,2.1355,2.1529,2.1575,2.1542,2.1529,2.1582,2.1315,2.1109,2.1109,2.1109,2.1089,2.1036,2.1036,2.1009,2.0962,2.0728,2.0601,2.0601,2.0354,2.0177,2.0124,2.0077,2.0214,2.0485,2.0532,2.0612,2.0719,2.0929,2.1036,2.1036,2.1089,2.1109,2.1109,2.1109,2.1109,2.1109,2.1109,2.1109,2.1109,0.0,0.0,0.0,0.0,0.0,0.0,0.0,0.0,0.0,0.0,0.0,0.0,0.0,0.0,0.0,0.0,0.0,0.0,1.3982,0.0,0.0,1.4176,1.445,1.4973,1.578,1.6184,1.6764,1.7495,1.7325,1.7221,1.717,1.732,1.6652,1.5313,1.5385,1.4985,1.425,1.3906,1.3891,1.4108,1.4162,1.4309,1.4554,1.513,1.5364,1.5438,1.5701,1.5808,1.5808,1.5808,1.5808,0.0,0.0,0.0,1.5808,1.5808,1.5808,1.5861,1.6146,1.6852,1.7629,1.8317,1.8738,1.9096,1.9673,1.98,1.9893,2.019,2.0528,2.0835,2.1162,2.1162,2.1122,2.1162,2.1136,2.1109,2.1109,2.1142,2.1263,2.1555,2.1355,2.1269,2.1562,2.1315,2.1109,2.1109,2.1109,2.1002,2.0779,2.0766,2.0615,2.0324,2.0284,2.0264,2.0264,2.0224,2.0077,1.9853,1.9629,1.9535,1.9582,1.98,2.0194,2.0712,2.0746,2.0766,2.0786,2.1002,2.1109,2.1109,2.1109,2.1109,2.1109,2.1109,2.1109,2.1109,0.0,0.0,0.0,0.0,0.0,0.0,0.0,0.0,0.0,0.0,0.0,0.0,0.0,0.0,0.0,1.4691,1.3815,1.3509,1.4059,1.4242,1.4345,1.4375,1.4518,1.4973,1.578,1.6162,1.6727,1.7495,1.7195,1.6738,1.6145,1.6076,1.5684,1.4984,1.4776,1.437,1.387,1.3913,1.4005,1.417,1.4311,1.4628,1.5037,0.0,1.5498,1.5635,1.5761,1.5808,1.5808,1.5808,1.5808,1.5808,1.5808,0.0,0.0,0.0,1.5808,1.5901,1.6393,1.6946,1.7555,1.8297,1.8704,1.9032,1.9459,1.9589,1.9639,1.9927,2.0094,2.0327,2.0782,2.0728,2.0697,2.1056,2.0835,2.0704,2.1062,2.0969,2.0915,2.108,2.1089,2.1029,2.0835,2.0848,2.0795,2.0597,2.059,2.053,2.0434,2.0428,2.0337,2.0204,2.0044,1.9993,1.9993,1.9826,1.9686,1.9582,1.9461,1.9481,1.9606,1.9602,1.9786,2.0194,2.0354,2.0428,2.0448,2.0748,2.0869,2.0882,2.1042,2.1109,2.1109,2.1109,2.1109,2.1109,0.0,0.0,0.0,0.0,0.0,0.0,0.0,0.0,0.0,0.0,0.0,0.0,0.0,0.0,0.0,0.0,1.3847,1.349,1.4052,1.4179,1.4345,1.4589,1.48,1.5183,1.5766,1.6309,1.6809,1.7218,1.6973,1.6255,1.5137,1.4942,1.4734,1.4503,1.4153,1.3891,1.3716,1.3921,1.4079,1.4224,1.4529,1.4958,1.5404,1.5478,1.5621,1.5808,1.5808,1.5808,1.5808,1.5808,1.5808,1.5808,1.5808,1.5808,0.0,0.0,0.0,1.5935,1.6547,1.6867,1.728,1.8156,1.8597,1.8891,1.9185,1.9341,1.9461,1.9646,1.9693,1.9846,2.0391,2.0334,2.0344,2.0815,2.0484,2.0357,2.0822,2.0702,2.0568,2.0568,2.0755,2.0684,2.0244,2.0434,2.0474,2.0224,2.0204,2.017,2.0097,2.0097,2.0057,1.9983,1.9806,1.9693,1.9693,1.9502,1.9395,1.9395,1.9395,1.9508,1.9679,1.9495,1.9515,1.9706,1.997,2.0097,2.0117,2.0441,2.0568,2.0588,2.0882,2.1002,2.1009,2.1082,2.1109,2.1109,0.0,0.0,0.0,0.0,0.0,0.0,0.0,0.0,0.0,0.0,0.0,0.0,1.6934,1.5783,1.5156,1.5604,1.4369,1.3711,1.4085,1.4409,1.4589,1.4605,1.5332,0.0,1.5706,1.6837,1.7111,1.6458,1.6451,1.5752,1.4448,1.4447,1.3998,1.3222,1.3561,1.3716,1.3708,1.3786,1.3951,1.4257,1.4829,1.5203,1.5424,1.5681,1.5788,1.5808,1.5808,1.5808,1.5808,1.5808,1.5808,1.5808,1.5808,1.5808,1.5808,0.0,0.0,0.0,1.6547,1.6714,1.6947,1.7816,1.8269,1.8591,1.885,1.9165,1.9401,1.9415,1.9421,1.9515,1.9786,2.0024,2.021,2.0244,2.0224,2.021,2.0244,2.0237,2.0224,2.0224,2.0237,2.0237,2.0204,2.0217,2.0224,2.0204,2.0204,2.0084,1.9833,1.982,1.9693,1.9448,1.9428,1.9421,1.9421,1.9401,1.9395,1.9395,1.9395,1.9401,1.9421,1.9401,1.9401,1.9435,1.9693,1.982,1.9846,2.0104,2.0224,2.0257,2.0581,2.0733,2.0759,2.1009,2.1109,2.1109,0.0,0.0,0.0,0.0,0.0,0.0,0.0,0.0,0.0,0.0,0.0,0.0,0.0,1.5251,1.4801,1.4982,1.4338,1.4052,1.4391,1.4534,1.4605,1.4605,1.5111,1.5507,1.5694,1.6332,1.6653,1.6665,1.5746,1.5151,1.4838,1.3977,1.3476,1.3307,1.3589,1.3728,1.3773,1.3963,1.4338,1.4802,1.515,1.5435,1.5661,1.5768,1.5808,1.5808,1.5808,1.5808,1.5808,1.5808,1.5808,1.5808,1.5808,1.5808,1.5808,1.5808,1.5808,1.5895,1.6319,1.6567,1.6895,1.7769,1.8243,1.8617,1.9098,1.9321,1.9395,1.9395,1.9395,1.9428,1.9535,1.9606,1.98,2.0144,1.992,1.9806,2.015,2.0044,1.9953,1.9953,2.009,2.0057,1.9713,1.9846,1.988,1.9693,1.9679,1.9633,1.9562,1.9548,1.9502,1.9401,1.9395,1.9395,1.9395,1.9395,1.9395,1.9395,1.9395,1.9395,1.9395,1.9395,1.9395,1.9408,1.9673,1.9693,1.9575,1.9833,1.9953,1.9987,2.025,2.0508,2.0719,2.0826,2.0949,2.1109,0.0,0.0,0.0,0.0,0.0,0.0,0.0,0.0,0.0,0.0,0.0,0.0,0.0,0.0,1.4722,1.4613,1.4391,1.4351,1.4589,1.4605,1.466,1.4798,1.5287,1.5659,1.5867,1.6342,1.6441,1.6104,1.5374,1.4776,1.4279,1.3703,1.3349,1.3185,1.3493,1.3698,1.3818,1.4214,1.4647,1.5127,1.5411,1.5635,1.5808,1.5808,1.5808,1.5808,1.5808,1.5808,1.5808,1.5808,1.5808,1.5808,1.5808,1.5808,1.5808,1.5808,1.5875,1.6046,1.6364,1.6658,1.7021,1.7689,1.8089,1.8444,1.8838,1.9078,1.9219,1.9219,1.9328,1.9395,1.9395,1.9395,1.9522,1.988,1.9619,1.9528,1.9887,1.9773,1.9659,1.9659,1.9826,1.9786,1.9435,1.9568,1.9579,1.9408,1.9395,1.9395,1.9395,1.9395,1.9395,1.9395,1.9395,1.9395,1.9395,1.9395,1.9395,1.9395,1.9395,1.9448,1.9542,1.9542,1.9566,1.9673,1.986,1.978,1.9568,1.9826,1.9947,1.9973,2.0237,2.0441,2.0548,2.0748,2.0822,2.0842,0.0,0.0,0.0,0.0,0.0,0.0,0.0,0.0,0.0,1.5581,0.0,0.0,0.0,0.0,0.0,1.4659,1.4637,1.4637,1.4637,1.4637,1.4813,1.5208,1.5905,1.6255,1.6178,1.694,1.6484,1.4692,1.5339,1.4643,1.2769,1.3654,1.3576,1.275,1.3278,1.3627,1.3868,1.4455,1.4859,1.5153,1.5617,1.5808,1.5808,1.5808,1.5808,1.5808,1.5808,1.5808,1.5808,1.5815,1.5815,1.5808,1.5808,1.5808,1.5808,1.5808,1.6032,1.6344,0.0,0.0,0.0,1.7535,1.7789,1.7995,1.8015,1.8476,1.889,1.8903,1.9158,1.9388,1.9395,1.9395,1.9395,1.9395,1.9395,1.9395,1.9395,1.9395,1.9395,1.9395,1.9395,1.9395,1.9395,1.9395,1.9395,1.9395,1.9395,1.9395,1.9395,1.9395,1.9395,1.9395,1.9395,1.9395,1.9395,1.9395,1.9401,1.9408,1.9408,1.9562,1.9813,1.9813,1.9937,2.0204,2.021,2.0057,1.9846,2.009,2.0204,2.023,2.0548,2.0494,2.0284,2.0857,2.0711,2.031,0.0,0.0,0.0,0.0,0.0,0.0,0.0,0.0,0.0,0.0,0.0,0.0,1.5006,1.5116,1.5224,1.5383,1.5406,1.5406,1.5406,1.5406,1.5454,1.5558,1.5989,1.5984,1.5501,1.593,1.5692,1.4692,1.4405,1.4062,1.3696,1.3273,1.3151,1.329,1.3434,1.3841,1.4467,1.462,1.5039,1.5617,1.5751,1.5808,1.5808,1.5808,1.5808,1.5808,1.5808,1.5808,1.5841,1.6079,1.6005,1.5808,1.5808,1.5808,0.0,1.5808,1.5861,0.0,1.6313,0.0,0.0,0.0,0.0,0.0,1.8549,1.8616,1.8731,1.9158,1.9138,1.9112,1.9354,1.9395,1.9395,1.9395,1.9395,1.9395,1.9395,1.9395,1.9395,1.9395,1.9395,1.9395,1.9395,1.9395,1.9395,1.9395,1.9395,1.9395,1.9395,1.9395,1.9395,1.9395,1.9395,1.9395,1.9395,1.9395,1.9502,1.9679,1.9679,1.9833,2.0084,2.0084,2.0124,2.021,2.0461,2.0508,2.0458,2.0257,2.0204,2.021,2.0297,2.0434,2.0575,2.0735,2.0828,2.0857,0.0,0.0,0.0,0.0,0.0,0.0,0.0,1.5331,1.5104,0.0,0.0,0.0,1.5012,1.5261,1.5486,1.5677,1.5693,1.5693,1.5693,1.5693,1.5764,1.5888,1.5838,1.5669,1.5401,1.5327,1.4943,1.4279,1.3899,1.3646,1.3512,1.3077,1.3029,1.3347,1.3575,1.4061,1.4697,1.4701,1.5083,1.5683,1.5784,1.5761,1.5683,1.5784,1.5808,1.5821,1.5972,1.6012,1.6059,1.6353,1.6339,1.6168,1.6168,1.6168,1.6148,1.6052,1.6099,0.0,0.0,0.0,1.7026,1.7495,0.0,0.0,1.8283,1.833,1.8376,1.8744,1.8778,1.8798,1.9,1.9127,1.9185,1.9185,1.9314,1.9395,1.9395,1.9395,1.9395,1.9395,1.9395,1.9395,1.9395,1.9395,1.9395,1.9395,1.9395,1.9395,1.9395,1.9395,1.9395,1.9395,1.9395,1.9395,1.9395,1.9515,1.9662,1.98,1.992,2.0134,2.0421,2.0421,2.0481,2.0577,2.0782,2.0855,2.0842,2.0668,2.057,2.057,2.057,2.0628,2.0719,2.0846,2.0808,2.0744,0.0,0.0,0.0,0.0,0.0,0.0,0.0,1.5759,0.0,0.0,1.5255,1.5383,1.5717,1.5756,1.5772,1.5812,1.5812,1.5773,1.5696,1.5696,1.5791,1.6026,1.5453,1.5251,1.5477,1.4901,1.4251,1.3582,1.3582,1.3298,1.2753,1.2985,1.3135,1.3208,0.0,0.0,1.4708,1.4701,1.4999,1.5475,1.5683,1.5666,1.5516,1.5713,1.5828,1.5888,1.6203,1.6317,1.6384,1.662,1.6727,1.6747,1.6714,1.6707,1.6653,1.6417,1.6506,0.0,0.0,0.0,0.0,1.7535,1.7609,0.0,1.7629,1.7876,1.8049,1.8082,1.8329,1.8551,1.8584,1.8798,1.8971,1.8971,1.9221,1.9395,1.9395,1.9395,1.9395,1.9395,1.9395,1.9395,1.9395,1.9395,1.9395,1.9395,1.9395,1.9395,1.9395,1.9395,1.9395,1.9395,1.9395,1.9408,1.9441,1.9673,1.9833,1.99,2.013,2.0434,2.0753,2.0753,2.0862,2.1109,2.1109,2.1109,2.1109,2.1109,2.1109,2.1109,2.1109,2.0949,2.0755,2.1015,2.0744,2.0377,0.0,0.0,0.0,0.0,0.0,0.0,0.0,1.5544,1.5688,1.5608,1.5597,1.5733,1.6063,1.6103,1.6222,1.6488,1.6503,1.628,1.5743,1.5703,1.5487,1.5009,1.4871,1.4587,1.411,1.3963,1.3561,1.2896,1.2896,1.2948,1.3021,1.3075,1.3328,1.3761,1.3857,1.4191,1.4709,1.4687,1.4885,1.5196,1.5452,1.554,1.5516,1.5713,1.5979,1.6217,1.6277,1.6451,1.6627,1.6687,1.6892,1.7072,1.678,1.6707,1.6693,1.664,1.666,1.676,1.7026,1.7159,1.7266,1.7535,1.7769,0.0,1.7929,1.8163,1.847,1.8676,1.877,1.8911,1.918,1.9274,1.9308,1.9308,1.9361,1.9395,1.9395,1.9395,1.9395,1.9395,1.9395,1.9395,1.9395,1.9395,1.9395,1.9395,1.9395,1.9395,1.9395,1.9395,1.9395,1.9395,1.9395,1.9508,1.9713,1.9773,2.004,2.0539,2.0592,2.0742,2.1029,2.1029,2.1056,2.1109,2.1109,2.1109,2.1109,2.1109,2.1109,2.1109,2.1109,2.1076,2.1029,2.1089,2.1036,2.0955,0.0,0.0,0.0,0.0,0.0,0.0,0.0,1.5589,1.5756,1.5939,1.6095,1.6249,1.6424,1.6448,1.6591,1.6976,1.6638,1.635,1.6219,1.5813,1.5447,1.5102,1.4778,1.4437,1.4111,1.3767,1.3445,1.3109,1.3109,1.3181,1.3298,1.343,1.3704,1.4105,1.4092,1.4391,1.4885,1.4616,1.4816,1.5298,1.5439,1.5578,1.5733,1.5949,1.6233,1.6506,1.6678,1.6919,1.7141,1.7141,1.7267,1.7367,1.7188,1.7141,1.7114,1.6999,1.6953,1.6986,1.7159,1.7199,1.7306,1.7702,1.7789,0.0,0.0,1.8016,1.8123,1.8396,1.8336,1.8343,1.8651,1.8831,1.896,1.896,1.9052,1.9199,1.9374,1.9395,1.9395,1.9395,1.9395,1.9395,1.9395,1.9395,1.9395,1.9395,1.9395,1.9395,1.9395,1.9395,1.9395,1.9395,1.9395,1.9535,1.98,1.9947,2.0234,2.0706,2.0822,2.0969,2.1109,2.1109,2.1109,2.1109,2.1109,2.1109,2.1109,2.1109,2.1109,2.1109,2.1109,2.1109,2.1109,2.1109,2.1109,2.1109,1.4739,0.0,0.0,0.0,0.0,0.0,0.0,0.0,1.5983,1.6249,1.6468,1.6586,1.6586,1.6516,1.6608,1.6937,1.6359,1.606,1.6264,1.5673,1.5243,1.5131,1.46,1.4315,1.4315,1.3779,1.3491,1.3491,1.3491,1.3521,1.3575,1.3809,1.4053,1.4301,1.4351,1.4592,1.4909,1.4544,1.4818,1.5495,1.5507,1.5699,1.6003,1.6279,1.6565,1.6834,1.7153,1.7408,1.7608,1.7608,1.7608,1.7608,1.7608,1.7608,1.7561,1.7353,1.7286,1.7286,1.7286,1.7286,1.7374,1.7809,1.7789,1.7722,0.0,0.0,0.0,1.7982,1.7889,1.7836,1.8056,1.8349,1.8557,1.8504,1.8784,1.9072,1.9259,1.9361,1.9395,1.9395,1.9301,1.9274,1.9388,1.9395,1.9395,1.9395,1.9395,1.9395,1.9395,1.9395,1.9395,1.9395,1.9395,1.9562,1.988,2.0084,2.0377,2.0793,2.0995,2.1109,2.1109,2.1109,2.1109,2.1109,2.1109,2.1109,2.1109,2.1109,2.1109,2.1109,2.1109,2.1109,2.1109,2.1109,2.1109,2.1109,1.4686,1.4885,0.0,0.0,0.0,0.0,0.0,0.0,1.6607,1.6646,1.6364,1.6167,1.6167,1.5857,1.5663,1.5698,1.561,1.5342,1.478,1.4668,1.436,1.3757,1.3649,1.3604,1.3604,1.3536,1.3491,1.3491,1.3491,1.3611,1.3863,1.3894,1.4032,1.4304,1.4549,1.4568,1.4394,1.4592,1.497,1.549,1.5507,1.579,1.6267,1.656,1.6866,1.7186,1.7454,1.7582,1.7608,1.7608,1.7608,1.7608,1.7608,1.7608,1.7602,1.7568,1.7555,1.7555,1.7555,1.7555,1.7575,1.7615,1.7789,1.7902,1.7689,0.0,1.8323,1.8042,0.0,1.8397,1.8437,0.0,0.0,1.8537,1.898,1.9239,1.8976,1.9199,1.9395,1.9395,1.8933,1.8819,1.9348,1.9395,1.9395,1.9395,1.9395,1.9395,1.9395,1.9395,1.9395,1.9395,1.9395,1.9633,2.015,2.0184,2.0477,2.1056,2.1096,2.1109,2.1109,2.1109,2.1109,2.1109,2.1109,2.1109,2.1109,2.1109,2.1109,2.1109,2.1109,2.1109,2.1109,2.1109,2.1109,2.1109,1.5268,1.5364,0.0,0.0,1.6015,0.0,0.0,1.6818,1.7048,1.7048,1.7065,1.6923,1.6496,1.6309,1.6077,1.5805,1.5388,1.512,1.5037,1.4615,1.4264,1.3972,1.3966,1.3966,1.3966,1.3966,1.3966,1.3966,1.3966,1.4026,1.4135,1.4135,1.4291,1.4544,1.464,1.4712,1.4772,1.4879,1.533,1.595,1.596,1.64,1.7046,1.7009,1.7173,1.7441,1.7568,1.7608,1.7608,1.7608,1.7608,1.7608,1.7608,1.7608,1.7608,1.7608,1.7608,1.7622,1.7776,1.7822,1.7869,1.8063,1.8049,1.7955,1.7856,1.7909,1.7983,1.8009,0.0,0.0,0.0,0.0,0.0,0.0,1.8838,1.9125,1.9172,1.8844,1.8791,1.9334,1.918,1.9127,1.9374,1.9395,1.9395,1.9395,1.9395,1.9395,1.9395,1.9395,1.9395,1.9395,1.9395,1.9646,2.0197,2.0204,2.0497,2.1109,2.1109,2.1109,2.1109,2.1109,2.1109,2.1109,2.1109,2.1109,2.1109,2.1109,2.1109,2.1109,2.1109,2.1109,2.1109,2.1109,2.1109,2.1109,1.5963,0.0,0.0,1.6158,1.6285,1.6416,1.665,1.6852,1.6966,1.6966,1.6985,1.6795,1.6276,1.6164,1.6012,1.5675,1.5149,1.4956,1.519,1.4647,1.4298,1.4298,1.4298,1.4298,1.4298,1.4298,1.4298,1.4298,1.4298,1.4298,1.4298,1.4298,1.4394,1.4598,1.4816,1.4998,1.5114,1.5343,1.582,1.643,1.6427,1.6905,1.7588,1.7374,1.7428,1.7608,1.7608,1.7608,1.7608,1.7608,1.7608,1.7608,1.7608,1.7608,1.7608,1.7608,1.7642,1.7756,1.7962,1.8076,1.8176,1.8337,1.8243,1.8116,1.8009,1.7909,1.7896,1.8096,1.7989,0.0,0.0,0.0,1.8584,1.8504,0.0,1.9092,1.9225,1.8691,1.8529,1.9314,1.9395,1.9361,1.9281,1.9348,1.9361,1.9281,1.9354,1.9361,1.9281,1.9354,1.9395,1.9395,1.9395,1.9646,2.0197,2.0204,2.0497,2.1109,2.1109,2.1109,2.1109,2.1109,2.1109,2.1109,2.1109,2.1109,2.1109,2.1109,2.1109,2.1109,2.1109,2.1109,2.1109,2.1109,2.1109,2.1109,1.6594,1.6408,1.619,1.6206,1.6464,1.6681,1.6689,1.6389,1.6134,1.6134,1.5468,1.4989,1.4966,1.4833,1.4758,1.474,1.4715,1.4721,1.4727,1.4473,1.4298,1.4298,1.4298,1.4298,1.4298,1.4298,1.4298,1.4298,1.4298,1.4298,1.4298,1.4298,1.4298,1.4358,1.5137,1.533,1.5146,1.5932,1.645,1.6794,1.6775,1.7101,1.7608,1.7595,1.7602,1.7608,1.7608,1.7608,1.7608,1.7608,1.7608,1.7608,1.7608,1.7608,1.7608,1.7608,1.7769,1.7975,1.7989,1.8229,1.841,1.8075,1.8243,1.8404,1.8055,1.8236,1.8464,1.8477,1.847,1.8464,1.8477,1.8711,1.879,0.0,1.9007,0.0,0.0,1.8883,1.9011,1.9361,1.9395,1.9281,1.8936,1.9199,1.9281,1.893,1.9234,1.9267,1.8923,1.9212,1.9395,1.9395,1.9395,1.9646,2.0197,2.0204,2.0497,2.1109,2.1109,2.1109,2.1109,2.1109,2.1109,2.1109,2.1109,2.1109,2.1109,2.1109,2.1109,2.1109,2.1109,2.1109,2.1109,2.1109,2.1109,2.1109,1.563,1.569,1.59,1.6451,1.6407,1.6214,1.5951,1.5971,1.6093,1.6276,1.6448,1.6417,1.6049,1.5973,1.577,1.5259,1.5077,1.4949,1.4949,1.4702,1.4551,1.4551,1.4395,1.4298,1.4298,1.4298,1.4298,1.4298,1.4298,1.4298,1.4298,1.4298,0.0,1.46,1.5207,1.5441,1.5423,1.622,1.6623,1.6767,1.7178,1.7449,1.7608,1.7608,1.7608,1.7608,1.7608,1.7608,1.7608,1.7608,1.7608,1.7608,1.7608,1.7722,1.7862,1.7862,1.8076,1.8384,1.8543,1.8676,1.8751,1.8623,1.8557,1.8464,1.8364,1.8236,1.8229,1.845,1.849,1.849,1.849,1.8731,1.8863,0.0,0.0,1.9294,0.0,1.8758,1.8677,1.8806,1.8958,1.9112,1.9205,1.9132,1.9032,1.8903,1.8838,1.8831,1.889,1.9018,1.9165,1.9388,1.9395,1.9646,2.0197,2.0204,2.0497,2.1109,2.1109,2.1109,2.1109,2.1109,2.1109,2.1109,2.1109,2.1109,2.1109,2.1109,2.1109,2.1109,2.1109,2.1109,2.1109,2.1109,2.1109,2.1109,1.524,1.5371,1.5672,1.6173,1.6056,1.5806,1.5542,1.5725,1.5971,1.6136,1.6573,1.6722,1.6398,1.6453,1.6262,1.5696,1.5481,1.5306,1.5119,1.495,1.4792,1.4696,1.4539,1.4443,1.4443,1.4346,1.4346,1.4443,1.4443,1.4491,1.4588,1.4588,0.0,1.4859,1.5401,1.5695,1.5821,1.6568,1.6943,1.7048,1.7428,1.7608,1.7608,1.7608,1.7608,1.7608,1.7608,1.7608,1.7608,1.7608,1.7655,1.7749,1.7749,1.7929,1.8176,1.8176,1.8389,1.8684,1.8843,1.8998,1.9058,1.8923,1.8865,1.8806,1.8671,1.8577,1.8571,1.8792,1.8833,1.8833,1.8833,1.8958,1.9085,0.0,0.0,1.9254,0.0,1.8611,1.849,1.849,1.8744,1.897,1.9192,1.9132,1.8951,1.8609,1.8631,1.8684,1.8736,1.8836,1.9058,1.9388,1.9395,1.9646,2.0197,2.0204,2.0497,2.1109,2.1109,2.1109,2.1109,2.1109,2.1109,2.1109,2.1109,2.1109,2.1109,2.1109,2.1109,2.1109,2.1109,2.1109,2.1109,2.1109,2.1109,2.1109,1.5419,1.5433,1.544,1.544,1.5449,1.5471,1.544,1.5583,1.5681,1.5694,1.5847,1.5934,1.5946,1.6202,1.6251,1.597,1.594,1.5716,1.5197,1.5155,1.5028,1.4744,1.472,1.4708,1.469,1.4467,1.4461,1.469,1.4708,1.484,1.5107,1.5107,1.5113,1.5137,1.5681,1.6044,1.6316,1.6944,1.7351,1.7608,1.7608,1.7608,1.7608,1.7608,1.7608,1.7608,1.7608,1.7608,1.7608,1.7608,1.7776,1.7969,1.7989,1.8223,1.8497,1.851,1.8718,1.8916,1.8916,1.9152,1.9328,1.899,1.9145,1.9308,1.8976,1.9152,1.9381,1.9395,1.9395,1.9395,1.9395,1.9395,1.9395,0.0,0.0,0.0,1.8551,1.8457,1.8457,1.849,1.8724,1.887,1.8916,1.9178,1.9007,1.8075,1.8543,1.8736,1.8504,1.8736,1.9058,1.9388,1.9395,1.9646,2.0197,2.0204,2.0497,2.1109,2.1109,2.1109,2.1109,2.1109,2.1109,2.1109,2.1109,2.1109,2.1109,2.1109,2.1109,2.1109,2.1109,2.1109,2.1109,2.1109,2.1109,2.1109,1.4306,1.4468,1.4606,1.4606,1.4849,1.494,1.4645,1.4979,1.5323,1.5526,1.6101,1.6567,1.6761,1.6839,1.6857,1.6791,1.6604,1.6344,1.6,1.5801,1.5572,1.5312,1.5113,1.4889,1.4696,1.4835,1.4835,1.469,1.4914,1.504,1.5107,1.5107,1.5215,1.5403,1.576,1.5947,1.6069,1.6871,1.7351,1.7608,1.7608,1.7608,1.7608,1.7608,1.7608,1.7608,1.7608,1.7608,1.7608,1.7608,1.7662,1.7742,1.7949,1.8223,1.8537,1.8751,1.9018,1.9281,1.9281,1.9334,1.9381,1.9301,1.9145,1.9078,1.9219,1.9145,1.9098,1.9354,1.9395,1.9395,1.9395,1.9395,1.9321,1.9078,1.8643,1.8309,1.8156,1.7963,1.801,1.8437,1.8329,1.8503,1.9192,1.8931,1.8624,1.8397,1.8283,1.8309,1.8484,1.8736,1.9058,1.9388,1.9395,1.9646,2.0197,2.0204,2.0497,2.1109,2.1109,2.1109,2.1109,2.1109,2.1109,2.1109,2.1109,2.1109,2.1109,2.1109,2.1109,2.1109,2.1109,2.1109,2.1109,2.1109,2.1109,2.1109,1.4075,1.4298,1.4443,1.4322,1.4776,1.5046,1.4691,1.4908,1.5246,1.562,1.6272,1.6754,1.6905,1.7123,1.7213,1.7098,1.6851,1.6531,1.6139,1.597,1.5771,1.5511,1.536,1.5209,1.5065,1.498,1.498,1.5059,1.5089,1.5228,1.5451,1.5451,1.5529,1.5668,1.5832,1.6042,1.6311,1.7048,1.7457,1.7608,1.7608,1.7608,0.0,1.7608,1.7608,1.7628,1.7736,1.7695,1.7628,1.7742,1.7869,1.8029,1.8309,1.8631,1.8905,1.9072,1.9239,1.9395,1.9395,1.9395,1.9395,1.9395,1.9267,1.9158,1.9361,1.9239,1.9165,1.9361,1.9395,1.9395,1.9395,1.9395,1.9341,1.9145,1.8703,1.8403,1.8403,1.8249,1.8297,1.8637,1.8651,1.8818,1.9348,1.8859,1.8437,1.8276,1.8236,1.831,1.8484,1.8736,1.9058,1.9388,1.9642,1.99,2.0197,2.0457,2.0751,2.1109,2.1109,2.1109,2.1109,2.1109,2.1109,2.1109,2.1109,2.1109,2.1109,2.1109,2.1109,2.1109,2.1109,2.1109,2.1109,2.1109,2.1109,2.1109,1.4298,1.4521,1.463,1.4346,1.4932,1.5396,1.5234,1.527,1.5481,1.5934,1.6465,1.6803,1.6803,1.7207,1.7423,1.7165,1.6936,1.6585,1.6079,1.6075,1.591,1.5614,1.5602,1.5572,1.5499,1.5052,1.504,1.5499,1.527,1.5409,1.5891,1.5945,1.5945,1.5945,1.5998,1.6285,1.6789,1.7318,1.7556,1.7608,1.7608,1.7608,1.7608,1.7608,1.7609,1.7675,1.7922,1.7842,1.7689,1.7976,1.8249,1.8544,1.8831,1.9098,1.9348,1.9388,1.9395,1.9395,1.9395,1.9395,1.9395,1.9395,1.9395,1.9395,1.9395,1.9395,1.9395,1.9395,1.9395,1.9395,1.9395,1.9361,1.9334,1.9334,1.9058,1.8836,1.8836,1.8836,1.885,1.889,1.9118,0.0,1.9388,1.8899,1.8444,1.8129,1.8404,1.8551,1.8551,1.8824,1.9098,1.9388,1.9893,2.0184,2.0264,2.0795,2.1089,2.1169,2.1129,2.1109,2.1109,2.1109,2.1109,2.1109,2.1109,2.1109,2.1109,2.1109,2.1109,2.1109,2.1109,2.1109,2.1109,2.1109,2.1109,2.1109,1.4298,1.4521,1.463,1.4346,1.4781,1.5306,1.5692,1.6133,1.6453,1.6549,1.702,1.7346,1.7346,1.7424,1.749,1.7418,1.7399,1.7242,1.6899,1.6881,1.6658,1.6196,1.6172,1.594,1.5511,1.5409,1.5409,1.5499,1.5451,1.559,1.5891,1.6131,1.6217,1.6244,1.6471,1.6763,1.712,1.7226,1.7404,1.7608,1.7608,1.7608,1.7608,1.7608,1.7742,1.7942,1.7975,1.7955,1.7982,1.831,1.8444,1.8544,1.8831,1.893,1.9052,1.9328,1.9395,1.9395,1.9395,1.9395,1.9395,1.9395,1.9395,1.9395,1.9395,1.9395,1.9395,1.9395,1.9395,1.9395,1.9395,1.9165,1.8998,1.8998,1.8758,1.8564,1.8564,1.8564,1.8657,1.8863,1.8758,1.8859,1.9348,1.9052,1.8796,1.8743,1.879,1.8816,1.8816,1.9125,1.9341,1.9395,1.97,2.0107,2.0595,2.0733,2.1027,2.1502,2.1229,2.1109,2.1109,2.1109,2.1109,2.1109,2.1109,2.1109,2.1109,2.1109,2.1109,2.1109,2.1109,2.1109,2.1109,2.1109,2.1109,2.1109,1.4721,1.4938,1.5077,1.4944,1.5481,1.6018,1.6272,1.6761,1.7008,1.6736,1.6917,1.708,1.708,1.7322,1.7514,1.7514,1.7358,1.7254,1.7098,1.6966,1.6773,1.6513,1.6356,1.619,1.591,1.5638,1.5565,1.5698,1.5702,1.5848,1.6111,1.6371,1.6504,1.653,1.6822,1.704,1.7206,1.7358,1.7483,1.7608,1.7608,1.7675,1.7822,1.7822,1.8009,1.8269,1.8423,1.8469,1.8496,1.8636,1.8718,1.8764,1.9058,1.9152,1.9185,1.9354,1.9395,1.9395,1.9395,1.9395,1.9395,1.9395,1.9395,1.9395,1.9395,1.9395,1.9395,1.9395,1.9395,1.9395,1.9395,1.9281,1.9152,1.9152,1.9038,1.8973,1.8973,1.8973,1.8998,1.9138,1.906,1.8998,1.9125,1.9145,1.9032,1.8724,1.881,1.883,1.8704,1.9154,1.9395,1.9395,1.9977,2.0314,2.0441,2.0933,2.1228,2.1355,2.1182,2.1109,2.1109,2.1109,2.1109,2.1109,2.1109,2.1109,2.1109,2.1109,2.1109,2.1109,2.1109,2.1109,2.1109,2.1109,2.1109,2.1109,1.5191,1.5403,1.5584,1.5584,1.6205,1.67,1.67,1.7147,1.7334,1.6923,1.6869,1.6869,1.6869,1.7266,1.7514,1.7514,1.7321,1.7177,1.7177,1.6984,1.6839,1.6785,1.6573,1.6456,1.6402,1.5855,1.571,1.6003,1.5872,1.5928,1.6131,1.6525,1.6756,1.6889,1.7166,1.7279,1.7305,1.7503,1.7608,1.7608,1.7608,1.7769,1.7995,1.7995,1.8243,1.8611,1.881,1.8936,1.9018,1.9018,1.9018,1.9058,1.9321,1.9395,1.9395,1.9395,1.9395,1.9395,1.9395,1.9395,1.9395,1.9395,1.9395,1.9395,1.9395,1.9395,1.9395,1.9395,1.9395,1.9395,1.9395,1.9395,1.9395,1.9395,1.9395,1.9395,1.9395,1.9395,1.9395,1.9395,1.9395,1.9308,1.9038,1.9261,1.9174,1.8624,1.8851,1.8918,1.8691,1.9147,1.9428,1.9488,2.0217,2.0528,2.039,2.1109,2.1402,2.1203,2.1136,2.1109,2.1109,2.1109,2.1109,2.1109,2.1109,2.1109,2.1109,2.1109,2.1109,2.1109,2.1109,2.1109,2.1109,2.1109,2.1109,2.1109,1.5463,1.5674,1.5855,1.5855,1.6326,1.67,1.67,1.7147,1.7467,1.7442,1.7442,1.7442,1.7442,1.7484,1.7514,1.7514,1.749,1.7449,1.7449,1.7454,1.7333,1.7062,1.7032,1.6905,1.6664,1.6133,1.5982,1.6269,1.5773,1.5537,1.5594,1.6352,1.6995,1.7529,1.7556,1.7556,1.7556,1.7582,1.7608,1.7608,1.7608,1.7769,1.7995,1.7995,1.8369,1.8856,1.8883,1.9098,1.9354,1.9354,1.9354,1.9361,1.9388,1.9395,1.9395,1.9395,1.9395,1.9395,1.9395,1.9395,1.9395,1.9395,1.9395,1.9395,1.9395,1.9395,1.9395,1.9395,1.9395,1.9395,1.9395,1.9395,1.9395,1.9395,1.9395,1.9395,1.9395,1.9395,1.9395,1.9395,1.9395,1.9388,1.9354,1.9381,1.9261,1.8876,1.9158,1.9341,1.9314,1.9368,1.9515,1.9746,2.0094,2.0484,2.1022,2.1109,2.1269,2.1542,2.1236,2.1109,2.1109,2.1109,2.1109,2.1109,2.1109,2.1109,2.1109,2.1109,2.1109,2.1109,2.1109,2.1109,2.1109,2.1109,2.1109,2.1109,1.6217,1.6308,1.6423,1.6585,1.6791,1.699,1.7147,1.7346,1.7514,1.7514,1.7514,1.7514,1.7514,1.7514,1.7514,1.7514,1.7514,1.7514,1.7514,1.7514,1.7436,1.7328,1.7177,1.6966,1.6706,1.649,1.6346,1.6297,1.6454,1.6531,1.6531,1.7002,1.7371,1.7608,1.7608,1.7608,1.7608,1.7608,1.7608,1.7608,1.7608,1.7769,1.8009,1.8216,1.8543,1.8916,1.9125,1.9294,1.9395,1.9395,1.9395,1.9395,1.9395,1.9395,1.9395,1.9395,1.9395,1.9395,1.9395,1.9395,1.9395,1.9395,1.9395,1.9395,1.9395,1.9395,1.9395,1.9395,1.9395,1.9395,1.9395,1.9395,1.9395,1.9395,1.9395,1.9395,1.9395,1.9395,1.9395,1.9395,1.9395,1.9328,1.9118,1.9294,1.9274,1.8916,1.9199,1.9321,1.9112,1.9301,1.9528,1.9786,2.005,2.0397,2.0848,2.1022,2.1169,2.1289,2.1162,2.1109,2.1109,2.1109,2.1109,2.1109,2.1109,2.1109,2.1109,2.1109,2.1109,2.1109,2.1109,2.1109,2.1109,2.1109,2.1109,2.1109,1.6803,1.6815,1.6899,1.7159,1.7207,1.7267,1.7484,1.7514,1.7514,1.7514,1.7514,1.7514,1.7514,1.7514,1.7514,1.7514,1.7514,1.7514,1.7514,1.7514,1.7514,1.7514,1.7304,1.7123,1.6936,1.6943,1.6832,1.6538,1.6995,1.7106,1.6937,1.7226,1.7449,1.7608,1.7608,1.7608,1.7608,1.7608,1.7608,1.7608,1.7608,1.7822,1.8169,1.841,1.8724,1.9085,1.9321,1.9395,1.9395,1.9395,1.9395,1.9395,1.9395,1.9395,1.9395,1.9395,1.9395,1.9395,1.9395,1.9395,1.9395,1.9395,1.9395,1.9395,1.9395,1.9395,1.9395,1.9395,1.9395,1.9395,1.9395,1.9395,1.9395,1.9395,1.9395,1.9395,1.9395,1.9395,1.9395,1.9395,1.9395,1.9314,1.9078,1.9274,1.9308,1.9072,1.9281,1.9308,1.9065,1.9281,1.9568,1.9913,2.0097,2.0384,2.0802,2.1009,2.1109,2.1109,2.1109,2.1109,2.1109,2.1109,2.1109,2.1109,2.1109,2.1109,2.1109,2.1109,2.1109,2.1109,2.1109,2.1109,2.1109,2.1109,2.1109,2.1109,1.7038,1.7086,1.7171,1.7466,1.7508,1.7508,1.7514,1.7514,1.7514,1.7514,1.7514,1.7514,1.7514,1.7514,1.7514,1.7514,1.7514,1.7514,1.7514,1.7514,1.7514,1.7514,1.7508,1.7473,1.7502,1.7553,1.7424,1.7089,1.7146,1.689,1.6323,1.6646,1.7088,1.7608,1.7608,1.7608,1.7608,1.7608,1.7608,1.7608,1.7608,1.797,1.8484,1.849,1.8879,1.9395,1.9395,1.9395,1.9395,1.9395,1.9395,1.9395,1.9395,1.9395,1.9395,1.9395,1.9395,1.9395,1.9395,1.9395,1.9395,1.9395,1.9395,1.9395,1.9395,1.9395,1.9395,1.9395,1.9395,1.9395,1.9395,1.9395,1.9395,1.9395,1.9395,1.9395,1.9395,1.9395,1.9395,1.9395,1.9395,1.9395,1.9395,1.9395,1.9395,1.9395,1.9395,1.9395,1.9395,1.9395,1.9633,2.0177,2.0197,2.0484,2.1096,2.1109,2.1109,2.1109,2.1109,2.1109,2.1109,2.1109,2.1109,2.1109,2.1109,2.1109,2.1109,2.1109,2.1109,2.1109,2.1109,2.1109,2.1109,2.1109,2.1109,2.1109,1.7369,1.7358,1.7411,1.7502,1.7514,1.7514,1.7514,1.7514,1.7514,1.7514,1.7514,1.7514,1.7514,1.7514,1.7514,1.7514,1.7514,1.7514,1.7514,1.7514,1.7514,1.7514,1.7726,1.7757,1.756,1.7954,1.8025,1.7777,1.7774,1.7541,1.718,1.7291,1.7449,1.7608,1.7608,1.7608,1.7608,1.7608,1.7608,1.7628,1.7789,1.7989,1.8203,1.8631,1.8905,1.9092,1.9321,1.9395,1.9395,1.9395,1.9395,1.9395,1.9395,1.9395,1.9395,1.9395,1.9395,1.9395,1.9395,1.9395,1.9395,1.9395,1.9395,1.9395,1.9395,1.9395,1.9395,1.9395,1.9395,1.9395,1.9395,1.9395,1.9395,1.9395,1.9395,1.9395,1.9395,1.9395,1.9395,1.9395,1.9395,1.9395,1.9395,1.9395,1.9395,1.9395,1.9395,1.9395,1.9395,1.9582,1.9833,2.019,2.0428,2.0722,2.1109,2.1109,2.1109,2.1109,2.1109,2.1109,2.1109,2.1109,2.1109,2.1109,2.1109,2.1109,2.1109,2.1109,2.1109,2.1109,2.1109,2.1109,2.1109,2.1109,2.1109,2.1109,1.7514,1.7514,1.7514,1.7514,1.7514,1.7514,1.7514,1.7514,1.7514,1.7514,1.7514,1.7514,1.7514,1.7602,1.7631,1.7514,1.7514,1.7543,1.7696,1.7696,1.7719,1.7837,1.8048,1.8083,1.7895,1.8349,1.847,1.8218,1.8079,1.7856,1.7608,1.7608,1.7608,1.7608,1.7608,1.7608,1.7608,1.7608,1.7649,1.7749,1.7942,1.8149,1.8389,1.8756,1.8991,1.9118,1.9328,1.9395,1.9395,1.9395,1.9395,1.9395,1.9395,1.9395,1.9395,1.9395,1.9395,1.9395,1.9395,1.9395,1.9395,1.9395,1.9395,1.9395,1.9395,1.9395,1.9395,1.9395,1.9395,1.9395,1.9395,1.9395,1.9395,1.9395,1.9395,1.9395,1.9395,1.9395,1.9395,1.9395,1.9395,1.9395,1.9395,1.9395,1.9395,1.9395,1.9395,1.9395,1.9395,1.9639,1.9933,2.019,2.0521,2.0815,2.1109,2.1109,2.1109,2.1109,2.1109,2.1109,2.1109,2.1109,2.1109,2.1109,2.1109,2.1109,2.1109,2.1109,2.1109,2.1109,2.1109,2.1109,2.1109,2.1109,2.1109,2.1109,1.7514,1.7514,1.7514,1.7514,1.7514,1.7514,1.7514,1.7514,1.7514,1.7514,1.7514,1.7514,1.7514,1.7784,1.7849,1.7543,1.7543,1.7696,1.7966,1.8031,1.8142,1.8392,1.8421,1.8421,1.8421,1.8765,1.8766,1.8416,1.8171,1.7909,1.7642,1.7642,1.7628,1.7608,1.7608,1.7622,1.7642,1.7642,1.7796,1.8056,1.8042,1.8409,1.8896,1.8916,1.9125,1.9395,1.9395,1.9395,1.9395,1.9395,1.9395,1.9395,1.9395,1.9395,1.9395,1.9395,1.9395,1.9395,1.9395,1.9395,1.9395,1.9395,1.9395,1.9395,1.9395,1.9395,1.9395,1.9395,1.9395,1.9395,1.9395,1.9395,1.9395,1.9395,1.9395,1.9395,1.9395,1.9395,1.9395,1.9395,1.9395,1.9395,1.9395,1.9395,1.9395,1.9395,1.9395,1.9401,1.9428,1.9673,1.9953,2.0197,2.0541,2.0835,2.1109,2.1109,2.1109,2.1109,2.1109,2.1109,2.1109,2.1109,2.1109,2.1109,2.1109,2.1109,2.1109,2.1109,2.1109,2.1109,2.1109,2.1109,2.1109,2.1109,2.1109,2.1109,1.7514,1.7514,1.7514,1.7514,1.7514,1.7514,1.7514,1.7514,1.7514,1.7514,1.7514,1.7514,1.7514,1.7573,1.7602,1.7514,1.7924,1.8135,1.7995,1.8194,1.8334,1.8392,1.8648,1.8794,1.8794,1.9127,1.9132,1.8776,1.8728,1.8423,1.7909,1.7909,1.7809,1.7608,1.7608,1.7716,1.7909,1.7909,1.8083,1.8404,1.8596,1.877,1.8923,1.9172,1.9334,1.9395,1.9395,1.9395,1.9395,1.9395,1.9395,1.9395,1.9395,1.9395,1.9395,1.9395,1.9395,1.9395,1.9395,1.9395,1.9395,1.9395,1.9395,1.9395,1.9395,1.9395,1.9395,1.9395,1.9395,1.9395,1.9395,1.9395,1.9395,1.9395,1.9395,1.9395,1.9395,1.9395,1.9395,1.9395,1.9395,1.9395,1.9395,1.9395,1.9395,1.9395,1.9395,1.9495,1.9686,1.9973,2.013,2.0197,2.0704,2.1042,2.1109,2.1109,2.1109,2.1109,2.1109,2.1109,2.1109,2.1109,2.1109,2.1109,2.1109,2.1109,2.1109,2.1109,2.1109,2.1109,2.1109,2.1109,2.1109,2.1109,2.1109,2.1109,1.7514,1.7514,1.7514,1.7514,1.7514,1.7514,1.7514,1.7514,1.7514,1.7514,1.7514,1.7514,1.7514,1.7631,1.7667,1.7514,1.7807,1.7989,1.8002,1.8142,1.8275,1.8392,1.8735,1.8903,1.8903,1.9243,1.9254,1.8896,1.8791,1.8469,1.7989,1.7876,1.7796,1.7796,1.7796,1.7936,1.8209,1.8076,1.8269,1.8691,1.8718,1.8885,1.9145,1.9334,1.9395,1.9395,1.9395,1.9395,1.9395,1.9395,1.9395,1.9395,1.9395,1.9395,1.9395,1.9395,1.9395,1.9395,1.9395,1.9395,1.9395,1.9395,1.9395,1.9395,1.9395,1.9395,1.9395,1.9395,1.9395,1.9395,1.9395,1.9395,1.9395,1.9395,1.9395,1.9395,1.9395,1.9395,1.9395,1.9395,1.9395,1.9395,1.9395,1.9395,1.9395,1.9395,1.9395,1.9522,1.9786,2.0044,2.0264,2.0434,2.0875,2.1109,2.1109,2.1109,2.1109,2.1109,2.1109,2.1109,2.1109,2.1109,2.1109,2.1109,2.1109,2.1109,2.1109,2.1109,2.1109,2.1109,2.1109,2.1109,2.1109,2.1109,2.1109,2.1109,1.7514,1.7514,1.7514,1.7514,1.7514,1.7514,1.7573,1.7543,1.7514,1.7573,1.7543,1.7514,1.7514,1.7755,1.782,1.7514,1.7543,1.7726,1.8054,1.8112,1.8252,1.8538,1.8823,1.8968,1.8968,1.9243,1.9274,1.8991,1.8744,1.847,1.8122,1.7909,1.7903,1.8089,1.8089,1.8249,1.8544,1.8256,1.8463,1.8971,1.8724,1.8953,1.9395,1.9395,1.9395,1.9395,1.9395,1.9395,1.9395,1.9395,1.9395,1.9395,1.9395,1.9395,1.9395,1.9395,1.9395,1.9395,1.9395,1.9395,1.9395,1.9395,1.9395,1.9395,1.9395,1.9395,1.9395,1.9395,1.9395,1.9395,1.9395,1.9395,1.9395,1.9395,1.9395,1.9395,1.9395,1.9395,1.9395,1.9395,1.9395,1.9395,1.9395,1.9395,1.9395,1.9395,1.9395,1.9542,1.9846,2.007,2.0357,2.0759,2.0982,2.1109,2.1109,2.1109,2.1109,2.1109,2.1109,2.1109,2.1109,2.1109,2.1109,2.1109,2.1109,2.1109,2.1109,2.1109,2.1109,2.1109,2.1109,2.1109,2.1109,2.1109,2.1109,2.1109,1.7514,1.7514,1.7514,1.7514,1.7514,1.7602,1.7878,1.7696,1.7602,1.7878,1.7696,1.7514,1.7514,1.7543,1.7573,1.7514,1.7755,1.8048,1.8305,1.859,1.8917,1.922,1.9278,1.9307,1.9307,1.9366,1.9374,1.9328,1.9281,1.9078,1.8756,1.871,1.8611,1.8424,1.8424,1.8584,1.8823,1.8776,1.8985,1.9321,1.9281,1.9314,1.9395,1.9395,1.9395,1.9395,1.9395,1.9395,1.9395,1.9395,1.9395,1.9395,1.9395,1.9395,1.9395,1.9395,1.9395,1.9395,1.9395,1.9395,1.9395,1.9395,1.9395,1.9395,1.9395,1.9395,1.9395,1.9395,1.9395,1.9395,1.9395,1.9395,1.9395,1.9395,1.9395,1.9395,1.9395,1.9395,1.9395,1.9395,1.9395,1.9395,1.9395,1.9395,1.9395,1.9395,1.9395,1.9629,2.0104,2.0177,2.045,2.1029,2.1082,2.1109,2.1109,2.1109,2.1109,2.1109,2.1109,2.1109,2.1109,2.1109,2.1109,2.1109,2.1109,2.1109,2.1109,2.1109,2.1109,2.1109,2.1109,2.1109,2.1109,2.1109,2.1109,2.1109,1.7514,1.7514,1.7514,1.7514,1.7514,1.7543,1.7696,1.7602,1.7573,1.7696,1.7602,1.7573,1.7755,1.7755,1.7843,1.7977,1.8135,1.834,1.8648,1.8648,1.8706,1.8858,1.9033,1.9214,1.9395,1.9395,1.9395,1.9395,1.9205,1.9058,1.889,1.8736,1.8704,1.8724,1.8724,1.8885,1.9152,1.8991,1.9092,1.9381,1.9192,1.9254,1.9395,1.9395,1.9395,1.9395,1.9395,1.9395,1.9395,1.9395,1.9395,1.9395,1.9395,1.9395,1.9395,1.9395,1.9395,1.9395,1.9395,1.9395,1.9395,1.9395,1.9395,1.9395,1.9395,1.9395,1.9395,1.9395,1.9395,1.9395,1.9395,1.9395,1.9395,1.9395,1.9395,1.9395,1.9395,1.9395,1.9395,1.9395,1.9395,1.9395,1.9395,1.9395,1.9395,1.9395,1.9542,1.9786,2.0184,2.0381,2.0668,2.1096,2.1109,2.1109,2.1109,2.1109,2.1109,2.1109,2.1109,2.1109,2.1109,2.1109,2.1109,2.1109,2.1109,2.1109,2.1109,2.1109,2.1109,2.1109,2.1109,2.1109,2.1109,2.1109,2.1109,2.1109,1.7514,1.7514,1.7514,1.7602,1.7608,1.7661,1.7801,1.7719,1.7631,1.7684,1.7602,1.7631,1.7972,1.8002,1.8112,1.8392,1.8473,1.8619,1.8881,1.8735,1.8625,1.8625,1.8887,1.9149,1.9395,1.9395,1.9395,1.9395,1.9138,1.9025,1.9025,1.8798,1.8811,1.9025,1.9025,1.9152,1.9381,1.9125,1.9158,1.9381,1.9118,1.9165,1.9395,1.9395,1.9395,1.9395,1.9395,1.9395,1.9395,1.9395,1.9395,1.9395,1.9395,1.9395,1.9395,1.9395,1.9395,1.9395,1.9395,1.9395,1.9395,1.9395,1.9395,1.9395,1.9395,1.9395,1.9395,1.9395,1.9395,1.9395,1.9395,1.9395,1.9395,1.9395,1.9395,1.9395,1.9395,1.9395,1.9395,1.9395,1.9395,1.9395,1.9395,1.9395,1.9395,1.9395,1.9639,1.9927,2.019,2.0514,2.0808,2.1096,2.1109,2.1109,2.1109,2.1109,2.1109,2.1109,2.1109,2.1109,2.1109,2.1109,2.1109,2.1109,2.1109,2.1109,2.1109,2.1109,2.1109,2.1109,2.1109,2.1109,2.1109,2.1109,2.1109,2.1109,1.7514,1.7514,1.7602,1.7908,1.7972,1.8135,1.8706,1.8311,1.8054,1.8305,1.786,1.7631,1.7972,1.8002,1.8112,1.8392,1.8677,1.8874,1.8903,1.9185,1.9336,1.9336,1.9336,1.9366,1.9395,1.9395,1.9395,1.9395,1.9374,1.9361,1.9361,1.9341,1.9341,1.9361,1.9361,1.9374,1.9395,1.9374,1.9381,1.9395,1.9374,1.9381,1.9395,1.9395,1.9395,1.9395,1.9395,1.9395,1.9395,1.9395,1.9395,1.9395,1.9395,1.9395,1.9395,1.9395,1.9395,1.9395,1.9395,1.9395,1.9395,1.9395,1.9395,1.9395,1.9395,1.9395,1.9395,1.9395,1.9395,1.9395,1.9395,1.9395,1.9395,1.9395,1.9395,1.9395,1.9395,1.9395,1.9395,1.9395,1.9395,1.9395,1.9395,1.9395,1.9395,1.9395,1.9639,1.9927,2.019,2.0514,2.0808,2.1096,2.1109,2.1109,2.1109,2.1109,2.1109,2.1109,2.1109,2.1109,2.1109,2.1109,2.1109,2.1109,2.1109,2.1109,2.1109,2.1109,2.1109,2.1109,2.1109,2.1109,2.1109,2.1109,2.1109,2.1109,1.7514,1.7514,1.7602,1.7937,1.8002,1.8089,1.8311,1.8142,1.7966,1.7866,1.7813,1.7931,1.8223,1.8421,1.8684,1.8981,1.9127,1.9214,1.9214,1.9336,1.9395,1.9395,1.9395,1.9395,1.9395,1.9395,1.9395,1.9395,1.9395,1.9395,1.9395,1.9395,1.9395,1.9395,1.9395,1.9395,1.9395,1.9395,1.9395,1.9395,1.9395,1.9395,1.9395,1.9395,1.9395,1.9395,1.9395,1.9395,1.9395,1.9395,1.9395,1.9395,1.9395,1.9395,1.9395,1.9395,1.9395,1.9395,1.9395,1.9395,1.9395,1.9395,1.9395,1.9395,1.9395,1.9395,1.9395,1.9395,1.9395,1.9395,1.9395,1.9395,1.9395,1.9395,1.9395,1.9395,1.9395,1.9395,1.9395,1.9395,1.9395,1.9395,1.9395,1.9395,1.9395,1.9395,1.9806,2.0084,2.0197,2.0688,2.0995,2.1109,2.1109,2.1109,2.1109,2.1109,2.1109,2.1109,2.1109,2.1109,2.1109,2.1109,2.1109,2.1109,2.1109,2.1109,2.1109,2.1109,2.1109,2.1109,2.1109,2.1109,2.1109,2.1109,2.1109,2.1109,1.7514,1.7514,1.7602,1.7937,1.8002,1.8031,1.8112,1.8054,1.7937,1.7807,1.7901,1.8142,1.8509,1.8765,1.9026,1.9366,1.9395,1.9395,1.9395,1.9395,1.9395,1.9395,1.9395,1.9395,1.9395,1.9395,1.9395,1.9395,1.9395,1.9395,1.9395,1.9395,1.9395,1.9395,1.9395,1.9395,1.9395,1.9395,1.9395,1.9395,1.9395,1.9395,1.9395,1.9395,1.9395,1.9395,1.9395,1.9395,1.9395,1.9395,1.9395,1.9395,1.9395,1.9395,1.9395,1.9395,1.9395,1.9395,1.9395,1.9395,1.9395,1.9395,1.9395,1.9395,1.9395,1.9395,1.9395,1.9395,1.9395,1.9395,1.9395,1.9395,1.9395,1.9395,1.9395,1.9395,1.9395,1.9395,1.9395,1.9395,1.9395,1.9395,1.9395,1.9395,1.9395,1.9395,1.9907,2.0284,2.047,2.0889,2.1109,2.1109,2.1109,2.1109,2.1109,2.1109,2.1109,2.1109,2.1109,2.1109,2.1109,2.1109,2.1109,2.1109,2.1109,2.1109,2.1109,2.1109,2.1109,2.1109,2.1109,2.1109,2.1109,2.1109,2.1109,2.1109,1.7514,1.7514,1.7602,1.7937,1.8002,1.8083,1.8363,1.8165,1.8112,1.8363,1.8171,1.8229,1.8823,1.8903,1.9026,1.9366,1.9395,1.9395,1.9395,1.9395,1.9395,1.9395,1.9395,1.9395,1.9395,1.9395,1.9395,1.9395,1.9395,1.9395,1.9395,1.9395,1.9395,1.9395,1.9395,1.9395,1.9395,1.9395,1.9395,1.9395,1.9395,1.9395,1.9395,1.9395,1.9395,1.9395,1.9395,1.9395,1.9395,1.9395,1.9395,1.9395,1.9395,1.9395,1.9395,1.9395,1.9395,1.9395,1.9395,1.9395,1.9395,1.9395,1.9395,1.9395,1.9395,1.9395,1.9395,1.9395,1.9395,1.9395,1.9395,1.9395,1.9395,1.9395,1.9395,1.9395,1.9395,1.9395,1.9395,1.9395,1.9395,1.9395,1.9395,1.9395,1.9395,1.9395,1.9907,2.0457,2.1076,2.1109,2.1109,2.1109,2.1109,2.1109,2.1109,2.1109,2.1109,2.1109,2.1109,2.1109,2.1109,2.1109,2.1109,2.1109,2.1109,2.1109,2.1109,2.1109,2.1109,2.1109,2.1109,2.1109,2.1109,2.1109,2.1109,2.1109,1.7784,1.7667,1.7661,1.8194,1.8142,1.8031,1.8112,1.8054,1.8031,1.8112,1.8223,1.845,1.8852,1.912,1.9301,1.9395,1.9395,1.9395,1.9395,1.9395,1.9395,1.9395,1.9395,1.9395,1.9395,1.9395,1.9395,1.9395,1.9395,1.9395,1.9395,1.9395,1.9395,1.9395,1.9395,1.9395,1.9395,1.9395,1.9395,1.9395,1.9395,1.9395,1.9395,1.9395,1.9395,1.9395,1.9395,1.9395,1.9395,1.9395,1.9395,1.9395,1.9395,1.9395,1.9395,1.9395,1.9395,1.9395,1.9395,1.9395,1.9395,1.9395,1.9395,1.9395,1.9395,1.9395,1.9395,1.9395,1.9395,1.9395,1.9395,1.9395,1.9395,1.9395,1.9395,1.9395,1.9395,1.9395,1.9395,1.9395,1.9395,1.9395,1.9395,1.9395,1.9395,1.9395,1.9907,2.0457,2.1076,2.1109,2.1109,2.1109,2.1109,2.1109,2.1109,2.1109,2.1109,2.1109,2.1109,2.1109,2.1109,2.1109,2.1109,2.1109,2.1109,2.1109,2.1109,2.1109,2.1109,2.1109,2.1109,2.1109,2.1109,2.1109,2.1109,2.1109,1.7755,1.7631,1.7631,1.7983,1.7901,1.7849,1.7966,1.8002,1.8083,1.8311,1.8509,1.8735,1.9062,1.9272,1.9395,1.9395,1.9395,1.9395,1.9395,1.9395,1.9395,1.9395,1.9395,1.9395,1.9395,1.9395,1.9395,1.9395,1.9395,1.9395,1.9395,1.9395,1.9395,1.9395,1.9395,1.9395,1.9395,1.9395,1.9395,1.9395,1.9395,1.9395,1.9395,1.9395,1.9395,1.9395,1.9395,1.9395,1.9395,1.9395,1.9395,1.9395,1.9395,1.9395,1.9395,1.9395,1.9395,1.9395,1.9395,1.9395,1.9395,1.9395,1.9395,1.9395,1.9395,1.9395,1.9395,1.9395,1.9395,1.9395,1.9395,1.9395,1.9395,1.9395,1.9395,1.9395,1.9395,1.9395,1.9395,1.9395,1.9395,1.9395,1.9395,1.9395,1.9488,1.9693,2.0034,2.0457,2.1076,2.1109,2.1109,2.1109,2.1109,2.1109,2.1109,2.1109,2.1109,2.1109,2.1109,2.1109,2.1109,2.1109,2.1109,2.1109,2.1109,2.1109,2.1109,2.1109,2.1109,2.1109,2.1109,2.1109,2.1109,2.1109,2.1109,2.1109,1.7573,1.7567,1.7567,1.7567,1.7573,1.7667,1.7937,1.8002,1.8229,1.8823,1.8903,1.9026,1.9366,1.9395,1.9395,1.9395,1.9395,1.9395,1.9395,1.9395,1.9395,1.9395,1.9395,1.9395,1.9395,1.9395,1.9395,1.9395,1.9395,1.9395,1.9395,1.9395,1.9395,1.9395,1.9395,1.9395,1.9395,1.9395,1.9395,1.9395,1.9395,1.9395,1.9395,1.9395,1.9395,1.9395,1.9395,1.9395,1.9395,1.9395,1.9395,1.9395,1.9395,1.9395,1.9395,1.9395,1.9395,1.9395,1.9395,1.9395,1.9395,1.9395,1.9395,1.9395,1.9395,1.9395,1.9395,1.9395,1.9395,1.9395,1.9395,1.9395,1.9395,1.9395,1.9395,1.9395,1.9395,1.9395,1.9395,1.9395,1.9395,1.9395,1.9395,1.9395,1.9606,2.0157,2.0204,2.0457,2.1076,2.1109,2.1109,2.1109,2.1109,2.1109,2.1109,2.1109,2.1109,2.1109,2.1109,2.1109,2.1109,2.1109,2.1109,2.1109,2.1109,2.1109,2.1109,2.1109,2.1109,2.1109,2.1109,2.1109,2.1109,2.1109,2.1109,2.1141,1.8158,1.8188,1.8188,1.8188,1.8018,1.7908,1.8002,1.8002,1.8229,1.8823,1.8903,1.9026,1.9366,1.9395,1.9395,1.9395,1.9395,1.9395,1.9395,1.9395,1.9395,1.9395,1.9395,1.9395,1.9395,1.9395,1.9395,1.9395,1.9395,1.9395,1.9395,1.9395,1.9395,1.9395,1.9395,1.9395,1.9395,1.9395,1.9395,1.9395,1.9395,1.9395,1.9395,1.9395,1.9395,1.9395,1.9395,1.9395,1.9395,1.9395,1.9395,1.9395,1.9395,1.9395,1.9395,1.9395,1.9395,1.9395,1.9395,1.9395,1.9395,1.9395,1.9395,1.9395,1.9395,1.9395,1.9395,1.9395,1.9395,1.9395,1.9395,1.9395,1.9395,1.9395,1.9395,1.9395,1.9395,1.9395,1.9395,1.9395,1.9395,1.9395,1.9395,1.9395,1.9606,2.0157,2.0204,2.0457,2.1076,2.1109,2.1109,2.1109,2.1109,2.1109,2.1109,2.1109,2.1109,2.1109,2.1109,2.1109,2.1109,2.1109,2.1109,2.1109,2.1109,2.1109,2.1109,2.1109,2.1109,2.1109,2.1109,2.1109,2.1109,2.1109,2.1109,2.1204,1.8135,1.8194,1.8252,1.8392,1.8282,1.8252,1.8398,1.8428,1.8603,1.9091,1.9149,1.9214,1.9395,1.9395,1.9395,1.9395,1.9395,1.9395,1.9395,1.9395,1.9395,1.9395,1.9395,1.9395,1.9395,1.9395,1.9395,1.9395,1.9395,1.9395,1.9395,1.9395,1.9395,1.9395,1.9395,1.9395,1.9395,1.9395,1.9395,1.9395,1.9395,1.9395,1.9395,1.9395,1.9395,1.9395,1.9395,1.9395,1.9395,1.9395,1.9395,1.9395,1.9395,1.9395,1.9395,1.9395,1.9395,1.9395,1.9395,1.9395,1.9395,1.9395,1.9395,1.9395,1.9395,1.9395,1.9395,1.9395,1.9395,1.9395,1.9395,1.9395,1.9395,1.9395,1.9395,1.9395,1.9395,1.9395,1.9395,1.9395,1.9395,1.9395,1.9395,1.9395,1.9606,2.0157,2.0204,2.0457,2.1076,2.1109,2.1109,2.1109,2.1109,2.1109,2.1109,2.1109,2.1109,2.1109,2.1109,2.1109,2.1109,2.1109,2.1109,2.1109,2.1109,2.1109,2.1109,2.1109,2.1109,2.1109,2.1109,2.1109,2.1109,2.1109,2.1204,2.1425,1.7995,1.8112,1.8229,1.845,1.848,1.859,1.8852,1.8903,1.9033,1.9366,1.9395,1.9395,1.9395,1.9395,1.9395,1.9395,1.9395,1.9395,1.9395,1.9395,1.9395,1.9395,1.9395,1.9395,1.9395,1.9395,1.9395,1.9395,1.9395,1.9395,1.9395,1.9395,1.9395,1.9395,1.9395,1.9395,1.9395,1.9395,1.9395,1.9395,1.9395,1.9395,1.9395,1.9395,1.9395,1.9395,1.9395,1.9395,1.9395,1.9395,1.9395,1.9395,1.9395,1.9395,1.9395,1.9395,1.9395,1.9395,1.9395,1.9395,1.9395,1.9395,1.9395,1.9395,1.9395,1.9395,1.9395,1.9395,1.9395,1.9395,1.9395,1.9395,1.9395,1.9395,1.9395,1.9395,1.9395,1.9395,1.9395,1.9395,1.9395,1.9395,1.9395,1.9395,1.9606,2.0157,2.0204,2.0457,2.1076,2.1109,2.1109,2.1109,2.1109,2.1109,2.1109,2.1109,2.1109,2.1109,2.1109,2.1109,2.1109,2.1109,2.1109,2.1109,2.1109,2.1109,2.1109,2.1109,2.1109,2.1109,2.1109,2.1109,2.1109,2.1172,2.1393,2.1734,1.8275,1.859,1.8794,1.8823,1.8823,1.8852,1.8874,1.8903,1.9033,1.9366,1.9395,1.9395,1.9395,1.9395,1.9395,1.9395,1.9395,1.9395,1.9395,1.9395,1.9395,1.9395,1.9395,1.9395,1.9395,1.9395,1.9395,1.9395,1.9395,1.9395,1.9395,1.9395,1.9395,1.9395,1.9395,1.9395,1.9395,1.9395,1.9395,1.9395,1.9395,1.9395,1.9395,1.9395,1.9395,1.9395,1.9395,1.9395,1.9395,1.9395,1.9395,1.9395,1.9395,1.9395,1.9395,1.9395,1.9395,1.9395,1.9395,1.9395,1.9395,1.9395,1.9395,1.9395,1.9395,1.9395,1.9395,1.9395,1.9395,1.9395,1.9395,1.9395,1.9395,1.9395,1.9395,1.9395,1.9395,1.9395,1.9395,1.9395,1.9395,1.9395,1.9395,1.9395,1.9606,2.0157,2.0204,2.0457,2.1076,2.1109,2.1109,2.1109,2.1109,2.1109,2.1109,2.1109,2.1109,2.1109,2.1109,2.1109,2.1109,2.1109,2.1109,2.1109,2.1109,2.1109,2.1109,2.1109,2.1109,2.1109,2.1109,2.1109,2.1141,2.1425,2.1734,2.208,1.8305,1.8532,1.8742,1.912,1.9178,1.9178,1.9178,1.9178,1.9243,1.9395,1.9395,1.9395,1.9395,1.9395,1.9395,1.9395,1.9395,1.9395,1.9395,1.9395,1.9395,1.9395,1.9395,1.9395,1.9395,1.9395,1.9395,1.9395,1.9395,1.9395,1.9395,1.9395,1.9395,1.9395,1.9395,1.9395,1.9395,1.9395,1.9395,1.9395,1.9395,1.9395,1.9395,1.9395,1.9395,1.9395,1.9395,1.9395,1.9395,1.9395,1.9395,1.9395,1.9395,1.9395,1.9395,1.9395,1.9395,1.9395,1.9395,1.9395,1.9395,1.9395,1.9395,1.9395,1.9395,1.9395,1.9395,1.9395,1.9395,1.9395,1.9395,1.9395,1.9395,1.9395,1.9395,1.9395,1.9395,1.9395,1.9395,1.9395,1.9395,1.9461,1.9622,1.9488,1.9702,2.0428,2.0297,2.0457,2.1076,2.1109,2.1109,2.1109,2.1109,2.1109,2.1109,2.1109,2.1109,2.1109,2.1292,2.1267,2.1109,2.1109,2.1109,2.1109,2.1109,2.1109,2.1109,2.1109,2.1204,2.1393,2.1393,2.1481,2.1702,2.2017,2.2142,2.2142]},{"header":{"parameterUnit":"m.s-1","parameterCategory":1,"la1":30.6,"la2":28.766,"lo1":-90.7593,"lo2":-88.6598,"dy":0.0162,"dx":0.0183,"nx":116,"ny":114,"refTime":"2023-05-30T06:00:00:Z","depth":0,"parameterNumber":3,"parameterNumberName":"V-component_of_WINDS"},"data":[0.0,0.0,0.0,0.0,0.0,0.0,0.0,0.0,0.0,0.0,0.0,0.0,0.0,0.0,0.0,0.0,0.0,0.0,0.0,0.0,0.0,0.0,0.0,0.0,0.0,0.0,0.0,0.0,0.0,0.0,0.0,0.0,0.0,0.0,0.0,0.0,0.0,0.0,0.0,0.0,0.0,0.0,0.0,0.0,0.0,0.0,0.0,0.0,0.0,0.0,0.0,0.0,0.0,0.0,0.0,0.0,0.0,0.0,0.0,0.0,0.0,0.0,0.0,0.0,0.0,0.0,0.0,0.0,0.0,0.0,0.0,0.0,0.0,0.0,0.0,0.0,0.0,0.0,0.0,0.0,0.0,0.0,0.0,0.0,0.0,0.0,0.0,0.0,0.0,0.0,0.0,0.0,0.0,0.0,0.0,0.0,0.0,0.0,0.0,0.0,0.0,0.0,0.0,0.0,0.0,0.0,0.0,0.0,0.0,0.0,0.0,0.0,0.0,0.0,0.0,0.0,0.0,0.0,0.0,0.0,0.0,0.0,0.0,0.0,0.0,0.0,0.0,0.0,0.0,0.0,0.0,0.0,0.0,0.0,0.0,0.0,0.0,0.0,0.0,0.0,0.0,0.0,0.0,0.0,0.0,0.0,0.0,0.0,0.0,0.0,0.0,0.0,0.0,0.0,0.0,0.0,0.0,0.0,0.0,0.0,0.0,0.0,0.0,0.0,0.0,0.0,0.0,0.0,0.0,0.0,0.0,0.0,0.0,0.0,0.0,0.0,0.0,0.0,0.0,0.0,0.0,0.0,0.0,0.0,0.0,0.0,0.0,0.0,0.0,0.0,0.0,0.0,0.0,0.0,0.0,0.0,0.0,0.0,0.0,0.0,0.0,0.0,0.0,0.0,0.0,0.0,0.0,0.0,0.0,0.0,0.0,0.0,0.0,0.0,0.0,0.0,0.0,0.0,0.0,0.0,0.0,0.0,0.0,0.0,0.0,0.0,0.0,0.0,0.0,0.0,0.0,0.0,0.0,0.0,0.0,0.0,0.0,0.0,0.0,0.0,0.0,0.0,0.0,0.0,0.0,0.0,0.0,0.0,0.0,0.0,0.0,0.0,0.0,0.0,0.0,0.0,0.0,0.0,0.0,0.0,0.0,0.0,0.0,0.0,0.0,0.0,0.0,0.0,0.0,0.0,0.0,0.0,0.0,0.0,0.0,0.0,0.0,0.0,0.0,0.0,0.0,0.0,0.0,0.0,0.0,0.0,0.0,0.0,0.0,0.0,0.0,0.0,0.0,0.0,0.0,0.0,0.0,0.0,0.0,0.0,0.0,0.0,0.0,0.0,0.0,0.0,0.0,0.0,0.0,0.0,0.0,0.0,0.0,0.0,0.0,0.0,0.0,0.0,0.0,0.0,0.0,0.0,0.0,0.0,0.0,0.0,0.0,0.0,0.0,0.0,0.0,0.0,0.0,0.0,0.0,0.0,0.0,0.0,0.0,0.0,0.0,0.0,0.0,0.0,0.0,0.0,0.0,0.0,0.0,0.0,0.0,0.0,0.0,0.0,0.0,0.0,0.0,0.0,0.0,0.0,0.0,0.0,0.0,0.0,0.0,0.0,0.0,0.0,0.0,0.0,0.0,0.0,0.0,0.0,0.0,0.0,0.0,0.0,0.0,0.0,0.0,0.0,0.0,0.0,0.0,0.0,0.0,0.0,0.0,0.0,0.0,0.0,0.0,0.0,0.0,0.0,0.0,0.0,0.0,0.0,0.0,0.0,0.0,0.0,0.0,0.0,0.0,0.0,0.0,0.0,0.0,0.0,0.0,0.0,0.0,0.0,0.0,0.0,0.0,0.0,0.0,0.0,0.0,0.0,0.0,0.0,0.0,0.0,0.0,0.0,0.0,0.0,0.0,0.0,0.0,0.0,0.0,0.0,0.0,0.0,0.0,0.0,0.0,0.0,0.0,0.0,0.0,0.0,0.0,0.0,0.0,0.0,0.0,0.0,0.0,0.0,0.0,0.0,0.0,0.0,0.0,0.0,0.0,0.0,0.0,0.0,0.0,0.0,0.0,0.0,0.0,0.0,0.0,0.0,0.0,0.0,0.0,0.0,0.0,0.0,0.0,0.0,0.0,0.0,0.0,0.0,0.0,0.0,0.0,0.0,0.0,0.0,0.0,0.0,0.0,0.0,0.0,0.0,0.0,0.0,0.0,0.0,0.0,0.0,0.0,0.0,0.0,0.0,0.0,0.0,0.0,0.0,0.0,0.0,0.0,0.0,0.0,0.0,0.0,0.0,0.0,0.0,0.0,0.0,0.0,0.0,0.0,0.0,0.0,0.0,0.0,0.0,0.0,0.0,0.0,0.0,0.0,0.0,0.0,0.0,0.0,0.0,0.0,0.0,0.0,0.0,0.0,0.0,0.0,0.0,0.0,0.0,0.0,0.0,0.0,0.0,0.0,0.0,0.0,0.0,0.0,0.0,0.0,0.0,0.0,0.0,0.0,0.0,0.0,0.0,0.0,0.0,0.0,0.0,0.0,0.0,0.0,0.0,0.0,0.0,0.0,0.0,0.0,0.0,0.0,0.0,0.0,0.0,0.0,0.0,0.0,0.0,0.0,0.0,0.0,0.0,0.0,0.0,0.0,0.0,0.0,0.0,0.0,0.0,0.0,0.0,0.0,0.0,0.0,0.0,0.0,0.0,0.0,0.0,0.0,0.0,0.0,0.0,0.0,0.0,0.0,0.0,0.0,0.0,0.0,0.0,0.0,0.0,0.0,0.0,0.0,0.0,0.0,0.0,0.0,0.0,0.0,0.0,0.0,0.0,0.0,0.0,0.0,0.0,0.0,0.0,0.0,0.0,0.0,0.0,0.0,0.0,0.0,0.0,0.0,0.0,0.0,0.0,0.0,0.0,0.0,0.0,0.0,0.0,0.0,0.0,0.0,0.0,0.0,0.0,0.0,0.0,0.0,0.0,0.0,0.0,0.0,0.0,0.0,0.0,0.0,0.0,0.0,0.0,0.0,0.0,0.0,0.0,0.0,0.0,0.0,0.0,0.0,0.0,0.0,0.0,0.0,0.0,0.0,0.0,0.0,0.0,0.0,0.0,0.0,0.0,0.0,0.0,0.0,0.0,0.0,0.0,0.0,0.0,0.0,0.0,0.0,0.0,0.0,0.0,0.0,0.0,0.0,0.0,0.0,0.0,0.0,0.0,0.0,0.0,0.0,0.0,0.0,0.0,0.0,0.0,0.0,0.0,0.0,0.0,0.0,0.0,0.0,0.0,0.0,0.0,0.0,0.0,0.0,0.0,0.0,0.0,0.0,0.0,0.0,0.0,0.0,0.0,0.0,0.0,0.0,0.0,0.0,0.0,0.0,0.0,0.0,0.0,0.0,0.0,0.0,0.0,0.0,0.0,0.0,0.0,0.0,0.0,0.0,0.0,0.0,0.0,0.0,0.0,0.0,0.0,0.0,0.0,0.0,0.0,0.0,0.0,0.0,0.0,0.0,0.0,0.0,0.0,0.0,0.0,0.0,0.0,0.0,0.0,0.0,0.0,0.0,0.0,0.0,0.0,0.0,0.0,0.0,0.0,0.0,0.0,0.0,0.0,0.0,0.0,0.0,0.0,0.0,0.0,0.0,0.0,0.0,0.0,0.0,0.0,0.0,0.0,0.0,0.0,0.0,0.0,0.0,0.0,0.0,0.0,0.0,0.0,0.0,0.0,0.0,0.0,0.0,0.0,0.0,0.0,0.0,0.0,0.0,0.0,0.0,0.0,0.0,0.0,0.0,0.0,0.0,0.0,0.0,0.0,0.0,0.0,0.0,0.0,0.0,0.0,0.0,0.0,0.0,0.0,0.0,0.0,0.0,0.0,0.0,0.0,0.0,0.0,0.0,0.0,0.0,0.0,0.0,0.0,0.0,0.0,0.0,0.0,0.0,0.0,0.0,0.0,0.0,0.0,0.0,0.0,0.0,0.0,0.0,0.0,0.0,0.0,0.0,0.0,0.0,0.0,0.0,0.0,0.0,0.0,0.0,0.0,0.0,0.0,0.0,0.0,0.0,0.0,0.0,0.0,0.0,0.0,0.0,0.0,0.0,0.0,0.0,0.0,0.0,0.0,0.0,0.0,0.0,0.0,0.0,0.0,0.0,0.0,0.0,0.0,0.0,0.0,0.0,0.0,0.0,0.0,0.0,0.0,0.0,0.0,0.0,0.0,0.0,0.0,0.0,0.0,0.0,0.0,0.0,0.0,0.0,0.0,0.0,0.0,0.0,0.0,0.0,0.0,0.0,0.0,0.0,0.0,0.0,0.0,0.0,0.0,0.0,0.0,0.0,0.0,0.0,0.0,0.0,0.0,0.0,0.0,0.0,0.0,0.0,0.0,0.0,0.0,0.0,0.0,0.0,0.0,0.0,0.0,0.0,0.0,0.0,0.0,0.0,0.0,0.0,0.0,0.0,0.0,0.0,0.0,0.0,0.0,0.0,0.0,0.0,0.0,0.0,0.0,0.0,0.0,0.0,0.0,0.0,0.0,0.0,0.0,0.0,0.0,0.0,0.0,0.0,0.0,0.0,0.0,0.0,0.0,0.0,0.0,0.0,0.0,0.0,0.0,0.0,0.0,0.0,0.0,0.0,0.0,0.0,0.0,0.0,0.0,0.0,0.0,0.0,0.0,0.0,0.0,0.0,0.0,0.0,0.0,0.0,0.0,0.0,0.0,0.0,0.0,0.0,0.0,0.0,0.0,0.0,0.0,0.0,0.0,0.0,0.0,0.0,0.0,0.0,0.0,0.0,0.0,0.0,0.0,0.0,0.0,0.0,0.0,0.0,0.0,0.0,0.0,0.0,0.0,0.0,0.0,0.0,0.0,0.0,0.0,0.0,0.0,0.0,0.0,0.0,0.0,0.0,0.0,0.0,0.0,0.0,0.0,0.0,0.0,0.0,0.0,0.0,0.0,0.0,0.0,0.0,0.0,0.0,0.0,0.0,0.0,0.0,0.0,0.0,0.0,0.0,0.0,0.0,0.0,0.0,0.0,0.0,0.0,0.0,0.0,0.0,0.0,0.0,0.0,0.0,0.0,0.0,0.0,0.0,0.0,0.0,0.0,0.0,0.0,0.0,0.0,0.0,0.0,0.0,0.0,0.0,0.0,0.0,0.0,0.0,0.0,0.0,0.0,0.0,0.0,0.0,0.0,0.0,0.0,0.0,0.0,0.0,0.0,0.0,0.0,0.0,0.0,0.0,0.0,0.0,0.0,0.0,0.0,0.0,0.0,0.0,0.0,0.0,0.0,0.0,0.0,0.0,0.0,0.0,0.0,0.0,0.0,0.0,0.0,0.0,0.0,0.0,0.0,0.0,0.0,0.0,0.0,0.0,0.0,0.0,0.0,0.0,0.0,0.0,0.0,0.0,0.0,0.0,0.0,0.0,0.0,0.0,0.0,0.0,0.0,0.0,0.0,0.0,0.0,0.0,0.0,0.0,0.0,0.0,0.0,0.0,0.0,0.0,0.0,0.0,0.0,0.0,0.0,0.0,0.0,0.0,0.0,0.0,0.0,0.0,0.0,0.0,0.0,0.0,0.0,0.0,0.0,0.0,0.0,0.0,0.0,0.0,0.0,0.0,0.0,0.0,0.0,0.0,0.0,0.0,0.0,0.0,0.0,0.0,0.0,0.0,0.0,0.0,0.0,0.0,0.0,0.0,0.0,0.0,0.0,0.0,0.0,0.0,0.0,0.0,0.0,0.0,0.0,0.0,0.0,0.0,0.0,0.0,0.0,0.0,0.0,0.0,0.0,0.0,0.0,0.0,0.0,0.0,0.0,0.0,0.0,0.0,0.0,0.0,0.0,0.0,0.0,0.0,0.0,0.0,0.0,0.0,0.0,0.0,0.0,0.0,0.0,0.0,0.0,0.0,0.0,0.0,0.0,0.0,0.0,0.0,0.0,0.0,0.0,0.0,0.0,0.0,0.0,0.0,0.0,0.0,0.0,0.0,0.0,0.0,0.0,0.0,0.0,0.0,0.0,0.0,0.0,0.0,0.0,0.0,0.0,0.0,0.0,0.0,0.0,0.0,0.0,0.0,0.0,3.1883,3.2495,0.0,0.0,0.0,0.0,0.0,0.0,0.0,0.0,0.0,0.0,0.0,0.0,0.0,0.0,0.0,0.0,0.0,0.0,0.0,0.0,0.0,0.0,0.0,0.0,0.0,0.0,0.0,0.0,0.0,0.0,0.0,0.0,0.0,0.0,0.0,0.0,0.0,0.0,2.7146,2.7442,2.8403,2.8465,2.8519,2.8515,0.0,0.0,0.0,0.0,0.0,0.0,0.0,0.0,0.0,0.0,0.0,0.0,0.0,0.0,0.0,0.0,0.0,0.0,0.0,0.0,0.0,0.0,0.0,0.0,0.0,0.0,0.0,0.0,0.0,0.0,0.0,0.0,0.0,0.0,0.0,0.0,0.0,0.0,0.0,0.0,0.0,0.0,0.0,0.0,0.0,0.0,0.0,0.0,0.0,0.0,0.0,0.0,0.0,0.0,0.0,0.0,0.0,0.0,0.0,0.0,0.0,0.0,0.0,0.0,0.0,0.0,0.0,0.0,0.0,0.0,3.3435,3.3307,0.0,0.0,0.0,0.0,0.0,0.0,0.0,0.0,0.0,0.0,0.0,0.0,0.0,0.0,0.0,0.0,0.0,0.0,0.0,0.0,0.0,0.0,0.0,0.0,2.4034,2.4227,2.4965,2.5682,0.0,0.0,0.0,0.0,0.0,0.0,0.0,0.0,0.0,2.8092,2.8416,2.9088,3.0087,3.0283,2.9928,2.9118,2.8751,0.0,0.0,0.0,0.0,0.0,0.0,0.0,0.0,0.0,0.0,0.0,0.0,0.0,0.0,0.0,0.0,0.0,0.0,0.0,0.0,0.0,0.0,0.0,0.0,0.0,0.0,0.0,0.0,0.0,0.0,0.0,0.0,0.0,0.0,0.0,0.0,0.0,0.0,0.0,0.0,0.0,0.0,0.0,0.0,0.0,0.0,0.0,0.0,0.0,0.0,0.0,0.0,0.0,0.0,0.0,0.0,0.0,0.0,0.0,0.0,0.0,0.0,0.0,3.5701,3.6089,3.6675,3.674,3.6775,3.6673,3.5488,3.4416,3.3549,3.3957,0.0,0.0,0.0,0.0,0.0,0.0,0.0,0.0,0.0,0.0,0.0,0.0,0.0,0.0,0.0,0.0,0.0,0.0,0.0,0.0,0.0,2.3824,2.4748,2.5169,2.5845,2.6557,0.0,0.0,0.0,0.0,0.0,0.0,0.0,2.8089,2.8426,2.8522,3.0102,3.0982,3.122,3.2492,3.3022,3.2801,3.0883,3.0354,3.086,0.0,0.0,0.0,0.0,0.0,0.0,0.0,0.0,0.0,0.0,0.0,0.0,0.0,0.0,0.0,0.0,0.0,0.0,0.0,0.0,0.0,0.0,0.0,0.0,0.0,0.0,0.0,0.0,0.0,0.0,0.0,0.0,0.0,0.0,0.0,0.0,0.0,0.0,0.0,0.0,0.0,3.3712,3.3809,0.0,0.0,0.0,0.0,0.0,0.0,0.0,0.0,0.0,0.0,0.0,0.0,0.0,3.5053,3.5053,3.627,3.6937,3.7034,3.7679,3.8035,3.813,3.854,3.8507,3.8145,3.8346,0.0,3.4341,3.4292,0.0,0.0,0.0,0.0,0.0,0.0,0.0,0.0,0.0,0.0,0.0,0.0,0.0,0.0,0.0,0.0,0.0,0.0,0.0,0.0,0.0,2.5171,2.6187,2.6082,2.7649,2.8294,2.7446,2.8216,0.0,0.0,0.0,2.7749,2.8091,2.8359,2.9115,3.0396,3.2406,3.3335,3.3278,3.4198,3.4602,3.4574,3.3605,3.2752,3.1995,3.1549,0.0,0.0,0.0,0.0,0.0,0.0,0.0,0.0,0.0,0.0,0.0,0.0,0.0,0.0,0.0,0.0,0.0,0.0,0.0,0.0,0.0,0.0,0.0,0.0,0.0,0.0,0.0,0.0,0.0,0.0,0.0,0.0,0.0,0.0,0.0,0.0,0.0,0.0,0.0,3.3469,3.4101,3.4101,3.3841,3.3789,0.0,0.0,0.0,0.0,0.0,0.0,0.0,0.0,0.0,3.6605,3.7375,3.7785,3.7785,3.8798,3.9526,3.994,3.9814,4.018,4.0986,4.0765,4.066,4.0658,4.0683,3.9717,3.8006,3.6179,3.4915,3.4125,0.0,0.0,0.0,0.0,3.4408,3.4749,0.0,0.0,0.0,0.0,0.0,0.0,0.0,0.0,0.0,0.0,0.0,0.0,2.4953,2.6736,2.7831,2.7617,2.9461,3.0023,2.8511,2.936,0.0,0.0,0.0,2.8369,2.8571,2.9063,3.0412,3.2662,3.4461,3.5372,3.544,3.6158,3.6508,3.6497,3.6608,3.5371,3.3204,3.3016,3.2507,3.1873,0.0,0.0,0.0,0.0,0.0,0.0,0.0,0.0,0.0,0.0,0.0,0.0,0.0,0.0,0.0,0.0,0.0,0.0,0.0,0.0,0.0,0.0,0.0,0.0,0.0,0.0,0.0,0.0,0.0,0.0,0.0,0.0,0.0,0.0,0.0,0.0,0.0,3.3838,3.4311,3.4117,3.4334,3.4446,0.0,0.0,0.0,0.0,0.0,0.0,3.6788,3.7298,3.8145,3.9441,4.0227,4.0643,4.0643,4.155,4.229,4.2813,4.2201,4.2506,4.3529,4.2919,4.2702,4.2798,4.2677,4.22,4.1312,3.8496,3.669,3.5655,3.5399,3.5222,3.5144,3.5404,3.5844,3.6309,0.0,0.0,0.0,0.0,0.0,0.0,0.0,0.0,0.0,0.0,0.0,2.5229,2.6697,2.8324,2.9565,3.0249,3.0946,3.14,3.1474,3.0723,2.9991,2.9312,2.9967,2.9947,2.9074,3.0877,3.2874,3.5035,3.5835,3.6618,3.7394,3.8819,3.948,3.9503,3.988,3.8222,3.5113,3.441,3.424,3.4244,3.2318,0.0,0.0,0.0,0.0,0.0,0.0,0.0,0.0,0.0,0.0,0.0,0.0,0.0,0.0,0.0,0.0,0.0,0.0,0.0,0.0,0.0,0.0,0.0,0.0,0.0,0.0,0.0,0.0,0.0,0.0,0.0,0.0,0.0,0.0,0.0,0.0,0.0,0.0,3.4182,3.4995,0.0,0.0,0.0,0.0,3.6238,3.6973,3.8032,3.9512,4.0277,4.1039,4.1796,4.2552,4.2925,4.2925,4.4294,4.5001,4.5035,4.501,4.5014,4.5079,4.4722,4.4328,4.3949,4.437,4.3919,4.2758,4.0936,3.9335,3.8028,3.8008,3.7732,3.7346,3.7358,3.7387,3.742,0.0,0.0,0.0,0.0,0.0,0.0,0.0,0.0,2.3321,2.4263,2.5426,2.6782,2.837,2.9971,3.1144,3.1624,3.2378,3.2326,3.1131,3.1279,3.0816,2.9525,2.9847,3.0296,3.0837,3.296,3.4923,3.6674,3.8416,3.9641,4.0417,4.1464,4.1947,4.1952,4.2105,4.0952,3.8818,3.7329,3.6073,3.4975,3.4196,3.3233,0.0,0.0,0.0,0.0,0.0,0.0,0.0,0.0,0.0,0.0,0.0,0.0,0.0,0.0,0.0,0.0,0.0,0.0,0.0,0.0,0.0,0.0,0.0,0.0,0.0,0.0,0.0,0.0,0.0,0.0,0.0,0.0,0.0,0.0,0.0,0.0,0.0,3.702,3.8202,0.0,3.8718,3.903,3.9272,3.9299,3.9979,4.0753,4.1562,4.161,4.218,4.3442,4.4198,4.4578,4.4578,4.559,4.6105,4.6088,4.5582,4.5603,4.6077,4.5442,4.5056,4.492,4.5069,4.4915,4.449,4.386,4.213,3.9848,3.964,3.9441,3.9333,3.9593,3.9997,4.0407,0.0,0.0,0.0,0.0,0.0,0.0,0.0,0.0,2.3624,2.472,2.6743,2.8564,2.9877,3.1898,3.325,3.3458,3.3952,3.3621,3.2157,3.228,3.1715,3.0135,3.0369,3.1454,3.3379,3.51,3.6984,3.902,4.052,4.178,4.278,4.3574,4.3936,4.3953,4.4229,4.3487,4.1952,4.0443,3.8359,3.6005,3.5596,3.4528,3.3152,0.0,0.0,0.0,0.0,0.0,0.0,0.0,0.0,0.0,0.0,0.0,0.0,0.0,0.0,0.0,0.0,0.0,0.0,0.0,0.0,0.0,0.0,0.0,0.0,0.0,0.0,0.0,0.0,0.0,0.0,0.0,0.0,0.0,0.0,3.7569,3.8979,3.9009,4.0229,4.0978,4.0724,4.1057,4.1285,4.1265,4.1968,4.2853,4.3896,4.3933,4.4643,4.6178,4.6927,4.7189,4.6962,4.7738,4.7979,4.7751,4.6927,4.6828,4.7324,4.6517,4.6186,4.6186,4.6186,4.6035,4.5807,4.5807,4.4603,4.2677,4.1938,4.1509,4.1311,4.1574,4.1999,4.2413,0.0,0.0,0.0,0.0,0.0,0.0,0.0,2.3634,2.4526,2.516,2.8162,3.049,3.116,3.3984,3.5842,3.5853,3.5599,3.5248,3.4748,3.375,3.2588,3.1311,3.183,3.3565,3.6595,3.7294,3.9106,4.2107,4.2125,4.2918,4.4432,4.5134,4.5466,4.5466,4.6255,4.5734,4.4259,4.3552,4.1084,3.7549,3.6457,3.5513,3.4659,0.0,0.0,0.0,0.0,0.0,0.0,0.0,0.0,0.0,0.0,0.0,0.0,0.0,0.0,0.0,0.0,0.0,0.0,0.0,0.0,0.0,0.0,0.0,0.0,0.0,0.0,0.0,0.0,0.0,0.0,0.0,0.0,0.0,3.7768,3.8912,3.9941,3.9963,4.0985,4.138,4.0673,4.0971,4.1504,4.2228,4.3017,4.4402,4.6617,4.7393,4.8444,4.9924,5.0651,5.0668,4.9942,5.0634,5.0634,4.9924,4.9151,4.8772,4.8741,4.8031,4.7703,4.7703,4.7703,4.7289,4.6634,4.6634,4.6634,4.6493,4.4936,4.3914,4.3293,4.3276,4.3276,4.3276,0.0,0.0,0.0,0.0,0.0,0.0,0.0,2.4239,2.4791,2.6189,2.9102,3.131,3.1923,3.4615,3.662,3.7199,3.5558,3.4644,3.505,3.3269,3.2264,3.2422,3.4157,3.6029,3.8009,3.9836,4.1974,4.4479,4.5048,4.5837,4.6769,4.6979,4.6789,4.6272,4.6496,4.5734,4.4315,4.4647,4.3233,4.0641,3.9221,3.788,3.6631,0.0,0.0,0.0,0.0,0.0,0.0,0.0,0.0,0.0,0.0,0.0,0.0,0.0,0.0,0.0,0.0,0.0,0.0,0.0,0.0,0.0,0.0,0.0,0.0,0.0,0.0,0.0,0.0,0.0,0.0,0.0,3.9945,4.0762,3.8982,4.2181,4.4483,4.3935,4.6086,4.7564,4.7358,4.792,4.839,4.8579,4.8803,4.92,4.9824,4.9548,4.9289,4.9134,4.9341,4.9082,4.8341,4.8531,4.8531,4.8324,4.8117,4.7996,4.7996,4.7789,4.7703,4.7703,4.7703,4.7582,4.741,4.741,4.741,4.7238,4.5703,4.5324,4.5596,4.4996,4.479,4.4716,0.0,0.0,0.0,0.0,0.0,0.0,0.0,2.516,2.5546,2.6584,3.0165,3.2608,3.2553,3.5481,3.7369,3.7199,3.5572,3.4466,3.4249,3.33,3.3231,3.4283,3.6508,3.8606,4.0498,4.2423,4.4376,4.6362,4.6514,4.6979,4.7703,4.7703,4.7307,4.66,4.6927,4.6389,4.5299,4.5721,4.5134,4.382,4.2578,4.0819,3.8899,3.8744,3.8022,3.707,3.707,3.6911,3.662,3.6129,0.0,0.0,0.0,0.0,0.0,0.0,0.0,0.0,0.0,0.0,0.0,0.0,0.0,0.0,0.0,0.0,0.0,0.0,0.0,0.0,0.0,0.0,0.0,0.0,4.2435,4.376,4.3297,4.5446,4.7134,4.7307,4.891,5.0011,5.0011,5.039,5.0634,5.0634,5.0634,5.0772,5.1082,5.0686,5.0393,5.0237,5.022,5.0031,4.96,4.96,4.9427,4.9117,4.9117,4.8962,4.8651,4.8651,4.8651,4.8651,4.8651,4.8479,4.8169,4.8169,4.8169,4.8048,0.0,0.0,0.0,0.0,4.6173,4.5841,0.0,0.0,0.0,0.0,0.0,0.0,0.0,2.6224,2.6513,2.6675,3.1001,3.3647,3.2629,3.5932,3.7674,3.6301,3.5432,3.4352,3.299,3.381,3.5018,3.649,3.8905,4.1279,4.3534,4.5031,4.6514,4.7962,4.7307,4.7324,4.7962,4.7962,4.7565,4.6876,4.7634,4.7496,4.6738,4.691,4.6876,4.6669,4.6035,4.394,4.124,4.1883,4.1779,4.1302,4.1389,4.0656,3.9637,3.955,0.0,0.0,0.0,0.0,0.0,0.0,0.0,0.0,0.0,0.0,0.0,0.0,0.0,0.0,0.0,0.0,0.0,0.0,0.0,0.0,0.0,0.0,0.0,0.0,4.5492,4.7496,4.8979,4.8772,4.8875,4.9979,5.0287,5.039,5.039,5.0459,5.0511,5.0511,5.0511,5.0789,5.1444,5.1479,0.0,0.0,0.0,5.2289,5.2203,5.2203,5.1875,5.122,5.122,5.0875,5.0252,5.0151,5.0117,5.0117,5.0045,4.9582,4.8944,4.8944,4.8944,4.8858,4.8117,4.7772,4.7703,4.7703,4.7289,4.6703,0.0,0.0,0.0,0.0,0.0,0.0,0.0,2.6666,2.6877,2.7275,3.0307,3.187,3.0308,3.3559,3.5742,3.5449,3.4145,3.3231,3.2921,3.4766,3.6559,3.8088,4.1521,4.4212,4.5906,4.7393,4.8617,4.9548,4.941,4.9424,4.9548,4.9548,4.9134,4.841,4.9203,4.8789,4.7565,4.8807,4.8617,4.7531,4.7979,4.5975,4.2775,4.2913,4.2506,4.1926,4.2578,4.2649,4.2339,4.1687,4.133,4.0816,3.897,3.847,0.0,0.0,0.0,0.0,0.0,0.0,0.0,0.0,0.0,0.0,0.0,0.0,0.0,0.0,0.0,0.0,0.0,0.0,0.0,4.5648,4.7872,4.9858,5.1341,5.2496,5.2599,5.1065,5.1994,5.2735,5.2735,5.3272,5.3616,5.3616,5.3616,5.3685,5.3823,5.3841,5.3634,5.3184,5.3166,5.2858,5.2203,5.2203,5.2134,5.1996,5.1996,0.0,5.1755,5.1151,5.0893,5.0841,5.0269,4.991,4.9769,4.9769,4.9769,4.9686,4.891,4.8206,4.7703,4.7703,4.7617,4.741,0.0,0.0,0.0,0.0,0.0,0.0,0.0,2.7257,2.7239,2.7474,2.9744,3.1036,3.0188,3.2455,3.3904,3.3524,3.3128,3.3135,3.366,3.6786,3.9278,4.0796,4.4147,4.6527,4.7686,4.8824,4.9772,5.0548,5.0168,5.02,5.0548,5.0548,5.0134,4.9427,5.0203,5.0117,4.9444,5.022,5.01,4.9427,4.9806,4.8358,4.5924,4.5178,4.4647,4.4354,4.4764,4.463,4.4234,4.3837,4.3274,4.2473,4.0943,4.0085,3.944,0.0,0.0,0.0,0.0,0.0,0.0,0.0,0.0,0.0,0.0,0.0,0.0,0.0,0.0,4.1198,4.2342,0.0,4.632,4.8962,5.0703,5.2356,5.4237,5.5184,5.5081,5.353,5.4391,5.4943,5.453,5.4823,5.4892,5.453,5.4496,5.4496,5.4496,5.4496,5.4323,5.3944,5.3598,5.3391,5.3341,5.2979,5.2789,5.2789,5.2789,5.2582,5.2186,5.1824,5.1651,5.1617,5.0858,5.0548,5.0513,5.0149,5.0011,4.9959,4.9565,4.9186,4.8841,4.8841,4.86,4.8203,0.0,0.0,0.0,0.0,0.0,0.0,0.0,2.7677,2.7488,2.7458,2.9098,3.0205,3.0067,3.1351,3.2007,3.1403,3.2438,3.3554,3.4568,3.8709,4.1849,4.3475,4.6341,4.8272,4.9031,4.9669,5.0289,5.0893,5.0289,5.0289,5.0893,5.103,5.0772,5.0237,5.1151,5.1461,5.1324,5.1479,5.1461,5.1306,5.1151,5.0272,4.8893,4.7548,4.6927,4.6824,4.6979,4.6238,4.5238,4.5518,4.4647,4.3276,4.2482,4.1635,4.0665,3.9442,3.8241,0.0,0.0,0.0,0.0,0.0,0.0,0.0,0.0,3.9071,4.0055,4.1297,4.2504,4.3923,4.5927,4.7186,4.8996,5.2323,5.353,5.4701,5.6546,5.6926,5.6719,5.5927,5.6271,5.6374,5.5875,5.5565,5.5203,5.4754,5.4703,5.4651,5.4512,5.4649,5.4651,5.4496,5.391,5.3908,5.4478,5.3908,5.3615,5.3615,5.3615,5.3272,5.2634,5.2496,5.2427,5.2392,5.1634,5.122,5.1048,5.0462,5.0131,5.0011,5.0011,5.0011,5.0011,5.0011,4.9553,4.8928,0.0,0.0,0.0,0.0,0.0,0.0,0.0,0.0,2.7467,2.7337,2.8108,2.8403,2.7755,2.9006,2.9851,2.9756,3.2344,3.4296,3.5068,3.937,4.2854,4.5048,4.7396,4.9048,4.9855,4.9944,5.0045,5.0117,5.0045,5.0045,5.0149,5.0789,5.1065,5.103,5.2479,5.2737,5.2117,5.2839,5.272,5.2013,5.1358,5.0599,4.9769,4.8893,4.8151,4.7669,4.8324,4.6769,4.4626,4.601,4.5454,4.4052,4.3293,4.3409,4.314,3.9675,3.8545,3.813,3.6769,3.6575,3.7005,3.8107,3.857,3.9237,0.0,4.2608,4.3707,4.388,4.6113,4.8341,4.9306,5.1218,5.3218,5.4944,5.5875,5.6512,5.6753,5.7357,5.7495,5.6753,5.6099,5.5978,5.6615,5.5443,5.4858,5.5427,5.5478,5.5185,5.453,5.5116,5.5168,5.4513,5.441,5.4425,5.4496,5.441,5.4391,5.4391,5.4391,5.4323,5.422,5.3548,5.327,5.3218,5.2427,5.1703,5.1082,5.1013,5.0582,5.0011,5.0011,5.0011,5.0011,5.0011,4.975,4.9355,0.0,0.0,0.0,0.0,0.0,0.0,0.0,0.0,0.0,2.7315,2.7558,2.7644,2.7341,2.7992,2.845,2.845,3.1664,3.4186,3.535,4.0383,4.416,4.6014,4.8289,4.9806,5.0453,5.0149,5.0374,5.1115,5.1225,5.1513,5.1994,5.272,5.3082,5.3099,5.3737,5.3841,5.3565,5.3892,5.3856,5.3513,5.3203,5.2358,5.1237,5.091,4.8944,4.641,4.6707,4.6014,0.0,4.4695,4.4471,4.4173,4.3431,4.2792,4.1954,4.0031,3.8429,3.7215,3.7053,3.7705,3.8682,3.9681,4.1005,4.2372,4.3677,4.5496,4.7165,4.8062,4.9976,5.1841,5.303,5.403,5.5168,5.6685,5.7219,5.7443,5.7443,5.734,5.6978,5.6185,5.5047,5.4805,5.5995,5.5943,5.5598,5.4996,5.5358,5.5461,5.5151,5.5427,5.5461,5.5151,5.5944,5.6162,5.5726,5.6069,5.6069,5.5726,5.5257,5.4834,5.4494,5.4168,5.3822,5.3391,5.3046,5.2203,5.1099,5.1099,5.0668,5.0011,5.0011,4.9935,4.9845,4.995,4.9906,4.9735,0.0,0.0,0.0,0.0,0.0,0.0,0.0,0.0,0.0,0.0,2.7307,2.7321,2.7398,2.7585,2.7738,2.7807,3.0852,3.3562,3.5467,4.0381,4.4231,4.651,4.8646,5.0018,5.0561,5.0345,5.0591,5.1382,5.1528,5.1892,5.2477,5.322,5.3548,5.3565,5.3996,5.4201,5.4218,5.441,5.4375,5.4201,5.4201,5.3151,5.1548,5.1117,4.8513,4.5117,4.5328,4.4587,4.3428,4.278,4.2775,4.297,4.2654,4.1947,4.1004,3.999,3.8243,3.6863,3.7847,3.9209,4.0629,4.1849,4.385,4.5786,4.6755,4.8738,5.0755,5.2065,5.3408,5.4736,5.5996,5.622,5.6668,5.7995,5.8185,5.8116,5.7943,5.7402,5.6635,5.563,5.452,5.4174,5.5011,5.5704,5.5887,5.5419,5.6026,5.6353,5.618,5.6561,5.6551,5.6135,5.7326,5.7599,5.6858,5.7498,5.7498,5.6841,5.6258,5.5625,5.5003,5.5003,5.4722,5.4199,5.4199,5.3432,5.2193,5.1969,5.1446,5.0735,5.0361,5.0132,4.9997,5.0008,4.9906,4.9789,0.0,0.0,0.0,0.0,0.0,0.0,0.0,0.0,0.0,0.0,0.0,0.0,0.0,2.7701,2.7807,2.8068,2.9984,3.2433,3.5414,3.8698,4.2341,4.642,4.8287,4.9483,5.0002,5.0523,5.0554,5.0057,5.0062,5.008,5.0131,5.0858,5.1203,5.1272,5.277,5.3442,5.3477,5.4201,5.4098,5.3442,5.3442,5.208,4.9893,4.841,4.6372,4.4419,4.5134,4.2548,3.9037,4.048,4.0469,3.9957,4.0727,4.1417,4.1521,3.9307,3.8071,3.7778,3.9244,4.0762,4.247,4.4721,4.6965,4.9065,5.0582,5.2686,5.453,5.5306,5.6116,5.6926,5.7702,5.784,5.8081,5.884,5.8961,5.872,5.8012,5.7708,5.702,5.5494,5.5105,5.4669,5.3936,5.4105,5.5197,5.7445,5.8172,5.8243,5.7664,5.8923,5.8991,5.7493,5.8231,5.8281,5.7485,5.8259,5.8259,5.7467,5.7449,5.7025,5.6248,5.6248,5.6231,5.6213,5.6213,5.5745,5.492,5.4131,5.3382,5.259,5.1286,5.0762,5.0694,5.0192,4.9668,4.9229,0.0,0.0,0.0,0.0,0.0,0.0,0.0,0.0,0.0,0.0,0.0,0.0,0.0,0.0,0.0,0.0,2.9707,3.1917,3.4323,3.7157,4.0058,4.3019,4.5426,4.6937,4.7465,4.9144,4.9919,4.9734,5.075,5.1074,5.0737,5.1479,5.1824,5.1858,5.2375,5.2599,5.2617,5.2875,5.2823,5.2513,5.1545,5.0358,4.8979,4.6962,4.4458,4.2016,0.0,4.0319,3.8519,3.8019,3.8019,3.8333,3.887,3.9022,3.8864,3.8088,3.8381,3.9416,4.1464,4.3867,4.6337,4.8617,5.0893,5.2841,5.3858,5.5461,5.6702,5.646,5.6202,5.5927,5.5701,5.5551,5.5883,5.7185,5.8123,5.8597,5.8394,5.7883,5.6755,5.463,5.3882,5.3568,5.3668,5.4808,5.5872,5.6699,5.7911,5.8741,5.9082,5.954,5.9566,5.9049,6.0196,6.0192,5.8911,5.9515,5.9224,5.8015,5.7137,5.6553,5.6303,5.6303,5.6303,5.6303,5.6303,5.5553,5.4273,5.401,5.3153,5.1963,5.1505,5.1339,5.1283,5.0991,5.0723,5.0439,0.0,0.0,0.0,0.0,0.0,0.0,0.0,0.0,0.0,0.0,0.0,0.0,0.0,0.0,0.0,0.0,0.0,3.0933,3.3083,3.5155,3.7493,4.0214,4.2599,4.4118,4.4647,4.6283,4.7037,4.6861,4.7981,4.8355,4.8031,4.867,4.9131,4.9407,4.9944,5.0358,5.0599,5.0599,5.0444,5.0065,4.8579,4.732,4.6152,4.4134,4.1992,0.0,3.8882,3.818,3.7644,3.6801,3.6766,3.7177,3.7712,3.7812,3.7786,3.8167,3.9554,4.1573,4.4436,4.7217,4.9858,5.2134,5.422,5.5839,5.6306,5.7185,5.7702,5.6943,5.5847,5.4899,5.4445,5.3935,5.4039,5.535,5.6252,5.6914,5.7255,5.6572,5.568,5.4738,5.3884,5.3634,5.4259,5.5328,5.6145,5.6563,5.8246,5.9497,6.0094,6.0609,6.0738,6.0449,6.1601,6.1605,6.0338,6.0927,6.0506,5.9033,5.759,5.6917,5.6917,5.6917,5.6917,5.6917,5.6917,5.6322,5.5348,5.5047,5.4181,5.2979,5.2497,5.2136,5.1836,5.1459,5.1337,5.1249,0.0,0.0,0.0,0.0,0.0,0.0,0.0,0.0,0.0,0.0,0.0,0.0,0.0,0.0,0.0,0.0,0.0,0.0,3.1762,3.2763,3.4727,3.7994,3.9884,4.1107,4.1654,4.2307,4.2388,4.1846,4.227,4.2462,4.2445,4.2878,4.3465,4.419,4.5665,4.672,4.741,4.7376,4.6979,4.6289,4.4695,4.3211,4.1762,4.0193,3.9158,3.8347,3.6835,3.6301,3.6364,3.6749,3.668,3.6582,3.736,3.7943,3.8586,3.9667,4.1679,4.4378,4.8073,5.0771,5.3051,5.5263,5.6938,5.8027,5.7907,5.789,5.7631,5.6717,5.5056,5.3757,5.3722,5.2946,5.2607,5.3482,5.3775,5.4238,5.5143,5.4434,5.4382,5.5891,5.5227,5.4932,5.5658,5.5768,5.6177,5.7135,5.9158,6.0481,6.0791,6.2075,6.2444,6.1686,6.2401,6.2407,6.1606,6.2279,6.182,6.0272,5.8731,5.7997,5.7997,5.7997,5.7997,5.7997,5.7997,5.7978,5.7886,5.7116,5.6326,5.5467,5.4156,5.3179,5.2415,5.1738,5.1576,5.1613,0.0,0.0,0.0,0.0,0.0,0.0,0.0,0.0,0.0,0.0,0.0,0.0,0.0,0.0,0.0,0.0,0.0,0.0,3.0574,3.1161,3.2397,3.4509,3.6429,3.7792,3.8539,4.073,4.1609,4.1079,4.1881,4.2067,4.167,4.1556,4.1585,4.1792,4.2176,4.2763,4.3418,4.2866,4.3194,4.3884,4.1728,4.1003,4.0963,3.8864,3.7933,3.7657,3.6663,3.6301,3.6322,3.6419,3.7342,3.851,3.8709,4.0288,4.2274,4.3458,4.6135,4.9295,5.2014,5.4847,5.7301,5.8459,5.9438,5.9726,5.8121,5.7751,5.6864,5.3721,5.1783,5.0236,4.8841,4.9228,5.0402,5.2414,5.5069,5.7401,5.8816,5.9304,5.9225,5.8457,5.8124,5.782,5.7428,5.7941,5.8385,5.8658,5.9187,6.031,6.217,6.2607,6.2701,6.2499,6.2683,6.2407,6.1606,6.0609,5.96,5.8602,5.8198,5.7997,5.7997,5.7997,5.7997,5.7997,5.7997,5.7666,5.7086,5.6884,5.6326,5.55,5.4554,5.4078,5.38,5.3024,5.2698,5.2631,0.0,0.0,0.0,0.0,0.0,0.0,0.0,0.0,0.0,0.0,0.0,0.0,0.0,0.0,0.0,0.0,0.0,0.0,0.0,3.0221,3.1108,3.242,3.3851,3.5005,3.5804,3.738,3.8026,3.7727,3.8311,3.8441,3.8146,3.7985,3.8099,3.8416,3.8744,3.9313,3.9968,3.9209,3.9382,0.0,0.0,3.8002,3.8295,3.7346,3.6967,3.6915,3.6456,3.6536,3.6954,3.7786,3.929,4.0834,4.0928,4.3249,4.6187,4.7366,5.01,5.3322,5.5951,5.814,5.9899,6.0656,6.0344,5.9357,5.7432,5.6199,5.4529,5.1255,4.9253,4.7874,4.7181,4.76,4.8852,5.1307,5.3752,5.618,5.848,5.8896,5.9153,5.9673,5.9416,5.9031,5.8572,5.8609,5.8811,5.9178,5.9857,6.0841,6.2199,6.2609,6.2793,6.2793,6.2793,6.2572,6.2126,6.0878,5.985,5.9043,5.8712,5.8345,5.7997,5.7997,5.7997,5.7997,5.7997,5.774,5.7336,5.7336,5.6859,5.6069,5.5629,5.5244,5.4811,5.3895,5.354,5.3471,0.0,0.0,0.0,0.0,0.0,0.0,0.0,0.0,0.0,0.0,0.0,0.0,0.0,0.0,0.0,0.0,0.0,0.0,0.0,0.0,3.0326,3.1207,3.1976,3.2757,3.357,3.3673,3.3707,3.3673,3.3779,3.3816,3.3775,3.3837,3.4187,3.4776,3.5421,3.6139,3.6846,3.6146,3.5973,3.6094,3.5466,3.5259,3.5432,0.0,0.0,3.6311,3.6364,3.6827,3.7767,3.9974,4.1823,4.3304,4.3827,4.6796,5.0352,5.1567,5.4073,5.705,5.9724,6.0913,6.158,6.2268,6.0508,5.8133,5.6343,5.4095,5.1663,4.9043,4.7227,4.6329,4.7011,4.711,4.7938,5.0545,5.172,5.3482,5.6811,5.6675,5.7354,6.0352,6.0095,5.9692,5.9692,5.9061,5.8933,5.9636,6.097,6.1704,6.1606,6.2273,6.2683,6.2793,6.2793,6.2756,6.2646,6.1942,6.119,6.0389,5.9581,5.8829,5.8162,5.8052,5.7997,5.7997,5.7997,5.7997,5.7997,5.7997,5.7593,5.6939,5.6829,5.6363,5.5625,5.4582,5.4267,5.4224,0.0,0.0,0.0,0.0,0.0,0.0,0.0,0.0,0.0,0.0,2.5316,2.5597,0.0,0.0,0.0,0.0,0.0,0.0,0.0,0.0,0.0,3.0357,3.0968,3.1624,3.2377,3.3049,3.3251,3.2968,3.2993,3.2873,3.2606,3.2617,3.2534,3.2403,3.2524,3.299,3.3697,3.3559,3.4231,3.537,3.5259,3.557,3.6111,3.6249,0.0,0.0,3.6678,3.6896,3.7597,4.1536,4.3734,4.519,4.7453,5.1257,5.5196,5.6738,5.9245,6.1797,6.3038,6.3466,6.3599,6.3745,6.1399,5.8373,5.5661,5.3171,5.0362,4.6563,4.5526,4.5274,4.5205,4.6241,4.8131,5.1279,5.3023,5.5335,5.9226,5.9667,6.0272,6.215,6.226,6.2187,6.2187,6.204,6.2022,6.2169,6.2426,6.231,6.1643,6.1722,6.2108,6.2774,6.2793,6.2481,6.1814,6.1667,6.119,6.0389,5.9581,5.9141,5.8976,5.8309,5.7997,5.7997,5.7997,5.7997,5.7997,5.7997,5.7923,5.7721,5.7049,5.6701,5.648,5.5651,5.5272,5.5164,0.0,0.0,0.0,0.0,0.0,0.0,0.0,2.6101,2.5833,2.5109,2.5005,2.5126,2.5498,2.6398,0.0,0.0,0.0,0.0,0.0,0.0,0.0,0.0,0.0,0.0,3.214,3.2915,3.3214,3.3063,0.0,3.2635,3.2292,3.2126,3.1956,3.18,3.18,3.199,3.2352,3.2748,3.3335,3.4076,3.488,3.5404,3.5766,0.0,0.0,0.0,3.6523,3.6991,3.8018,4.1322,4.3953,4.6478,4.9972,5.3624,5.6936,5.8587,6.0916,6.3215,6.4398,6.4714,6.4622,6.4213,6.1006,5.7139,5.4051,5.112,4.8154,4.4937,4.4281,4.4473,4.5196,4.6296,4.803,5.0912,5.2362,5.4418,5.8022,5.8896,5.9905,6.1924,6.2554,6.2646,6.2218,6.2181,6.2181,6.2181,6.2181,6.2383,6.2891,6.2909,6.286,6.2793,6.2793,6.2609,6.2236,6.2218,6.1814,6.1025,6.0639,6.0236,5.9802,5.8994,5.8609,5.8591,5.818,5.7997,5.7997,5.7997,5.7997,5.796,5.7574,5.7428,5.7324,5.6435,5.6085,5.5944,0.0,0.0,0.0,0.0,0.0,0.0,0.0,2.5601,2.5239,2.5239,2.5385,2.5436,2.5257,2.6316,2.6959,0.0,0.0,0.0,0.0,0.0,0.0,0.0,0.0,0.0,3.1701,0.0,0.0,3.2978,3.2797,0.0,0.0,0.0,0.0,0.0,3.18,3.18,3.1852,3.2766,3.3162,0.0,0.0,3.5449,0.0,0.0,0.0,0.0,0.0,3.7171,3.8377,4.1035,4.3689,4.6598,5.0788,5.4374,5.7362,5.9034,6.1318,6.3643,6.5147,6.5417,6.5105,6.4304,6.0291,5.5757,5.2703,4.9334,4.6205,4.3965,4.3506,4.3947,4.5369,4.6296,4.7654,5.0123,5.1059,5.274,5.6297,5.7336,5.8767,6.152,6.2585,6.2842,6.2199,6.2291,6.231,6.2157,6.245,6.3062,6.4047,6.3906,6.3594,6.3086,6.2903,6.2793,6.2793,6.2793,6.2481,6.1851,6.1679,6.1263,6.0621,5.9655,5.9196,5.9159,5.8345,5.7997,5.7997,5.7997,5.7997,5.7997,5.7997,5.7997,5.7912,5.7171,5.6875,5.6749,0.0,0.0,0.0,0.0,0.0,0.0,0.0,2.605,2.5998,2.5998,2.6644,2.6816,2.6084,2.6136,2.6479,0.0,0.0,0.0,0.0,0.0,0.0,0.0,0.0,0.0,0.0,0.0,0.0,3.1947,3.2214,0.0,0.0,0.0,0.0,0.0,0.0,3.18,3.1913,3.3362,0.0,0.0,0.0,0.0,0.0,0.0,0.0,0.0,0.0,3.7458,3.8141,4.2004,4.353,4.4499,4.8594,5.3074,5.7146,5.8759,6.1502,6.4369,6.5949,6.587,6.5105,6.4304,5.988,5.5053,5.2574,4.8893,4.5535,4.3855,4.3506,4.3763,4.4645,4.548,4.6801,4.9233,4.9729,5.1455,5.6143,5.6866,5.8352,6.2224,6.3447,6.3956,6.3882,6.453,6.4659,6.3937,6.5209,6.5485,6.4176,6.3356,6.3264,6.3961,6.3196,6.2793,6.2793,6.2793,6.2756,6.2683,6.1942,6.1557,6.1429,5.9893,5.9196,5.9159,5.8345,5.7997,5.7997,5.7997,5.7997,5.7997,5.7997,5.7997,5.7997,5.7893,5.7787,5.7682,0.0,0.0,0.0,0.0,0.0,0.0,2.6032,2.5722,2.5601,2.605,2.6799,2.7186,2.6868,2.6816,2.6764,0.0,0.0,0.0,0.0,0.0,0.0,0.0,0.0,0.0,0.0,0.0,3.1285,3.1429,3.2021,0.0,0.0,0.0,0.0,0.0,0.0,3.18,3.1869,3.2921,0.0,0.0,0.0,0.0,0.0,0.0,0.0,0.0,0.0,0.0,3.7936,4.0753,4.2179,4.3157,4.525,4.8233,5.1764,5.5849,5.8988,6.1612,6.3692,6.4774,6.4848,6.3044,5.8724,5.4252,5.183,4.8104,4.4856,4.3726,4.3506,4.3745,4.4553,4.5369,4.6379,4.7819,4.8489,4.9848,5.2784,5.361,5.539,5.9428,6.1062,6.2254,6.3227,6.4517,6.5173,6.4861,6.543,6.5705,6.554,6.4769,6.4462,6.4806,6.3508,6.305,6.3576,6.305,6.2793,6.2793,6.2493,6.2328,6.2279,6.1172,6.0382,5.9875,5.9068,5.8455,5.7997,5.7997,5.7997,5.7997,5.7997,5.7997,5.7997,5.7997,5.7973,5.7927,0.0,0.0,0.0,0.0,0.0,2.517,2.5705,2.5326,2.5257,2.5998,2.6799,2.7307,2.7307,2.7307,2.7075,2.6498,0.0,0.0,0.0,0.0,0.0,0.0,0.0,0.0,0.0,0.0,3.0589,3.1061,3.1576,3.182,0.0,0.0,3.18,3.18,0.0,0.0,0.0,0.0,0.0,0.0,0.0,0.0,0.0,0.0,0.0,0.0,0.0,0.0,0.0,0.0,0.0,4.2139,4.3176,4.4672,4.7012,5.1977,5.55,5.8352,6.1013,6.2939,6.3741,6.1741,5.7795,5.3702,5.1022,4.7452,4.4488,4.3697,4.3505,4.368,4.4276,4.5222,4.6085,4.6645,4.7617,4.8884,5.0553,5.1701,5.3665,5.7226,5.9079,6.0682,6.2279,6.3949,6.5141,6.5632,6.5637,6.5802,6.6127,6.5833,6.5545,6.5307,6.3912,6.3356,6.3704,6.3105,6.2793,6.2793,6.2793,6.2793,6.2774,6.1961,6.1153,6.0352,5.9545,5.8737,5.8015,5.8253,5.8217,5.8015,5.8253,5.8345,5.8345,5.8345,5.851,5.8712,0.0,0.0,0.0,0.0,0.0,0.0,2.5015,2.5005,2.5257,2.5998,2.6799,2.7307,2.7307,2.7307,2.7307,2.729,0.0,0.0,0.0,0.0,0.0,0.0,0.0,0.0,0.0,0.0,2.917,3.0714,3.0714,3.1085,3.18,3.18,3.18,3.18,0.0,0.0,0.0,0.0,0.0,0.0,0.0,0.0,0.0,0.0,0.0,0.0,0.0,0.0,0.0,0.0,0.0,0.0,0.0,4.3524,4.4167,4.7425,5.1261,5.5152,5.837,6.0407,6.1429,6.0621,5.7373,5.3537,5.0251,4.7021,4.4488,4.3747,4.3558,4.3513,4.36,4.4872,4.5902,4.5902,4.726,4.8884,5.0553,5.2186,5.4095,5.6517,5.8242,5.9838,6.1459,6.313,6.4782,6.6366,6.6494,6.6145,6.5343,6.6054,6.6127,6.5325,6.4512,6.3686,6.2829,6.2793,6.2793,6.2793,6.2793,6.2793,6.2774,6.1961,6.1153,6.0352,5.9545,5.8737,5.8052,5.8866,5.8719,5.807,5.8884,5.9196,5.9196,5.9196,5.9692,6.0382,0.0,0.0,0.0,0.0,0.0,0.0,0.0,2.4653,2.5084,2.5316,2.6015,2.6695,2.7238,2.6816,2.6695,2.7247,0.0,0.0,0.0,0.0,0.0,0.0,0.0,0.0,0.0,0.0,2.8885,2.9886,3.042,3.1085,3.18,3.18,3.18,3.18,3.18,3.18,0.0,0.0,0.0,0.0,0.0,0.0,3.6958,0.0,0.0,0.0,0.0,0.0,0.0,0.0,0.0,0.0,0.0,0.0,0.0,4.4718,4.7912,5.1583,5.3702,5.5445,5.6345,5.5005,5.2435,4.9801,4.8223,4.5828,4.386,4.3586,4.3989,4.4384,4.4367,4.5654,4.6718,4.6718,4.7617,4.848,4.9012,5.0527,5.2847,5.637,6.0682,6.3998,6.5608,6.4763,6.4782,6.6384,6.5999,6.5815,6.6109,6.688,6.6696,6.5343,6.4512,6.3974,6.3686,6.3086,6.2793,6.2793,6.2793,6.2793,6.2793,6.2536,6.1979,6.1172,6.0382,5.9887,5.963,5.9325,5.938,5.9667,5.9912,6.0022,6.0022,6.0022,6.0169,6.0401,0.0,0.0,0.0,0.0,0.0,0.0,0.0,2.4481,2.5005,2.5005,2.5919,2.6626,2.6833,2.6678,2.6747,2.7255,0.0,0.0,0.0,0.0,0.0,0.0,0.0,0.0,0.0,2.7747,2.8489,2.9498,3.0006,3.0782,3.18,3.18,3.18,3.18,3.18,3.18,0.0,0.0,0.0,0.0,0.0,0.0,3.681,0.0,0.0,0.0,0.0,0.0,0.0,0.0,0.0,0.0,0.0,0.0,0.0,0.0,4.5305,4.7783,5.0004,5.1793,5.2803,5.1793,4.9903,4.8003,4.6902,4.5074,4.359,4.3609,4.4243,4.4795,4.4814,4.6067,4.7094,4.7094,4.7783,4.8406,4.8746,5.0472,5.3196,5.7233,6.1637,6.4738,6.5742,6.5063,6.5081,6.6402,6.576,6.5637,6.6457,6.6678,6.62,6.4897,6.4659,6.4255,6.3613,6.3068,6.2793,6.2793,6.2793,6.2793,6.2793,6.2793,6.2352,6.1569,6.1062,6.0676,0.0,6.0187,6.0224,6.0438,6.0731,6.086,6.086,6.086,6.1043,6.1306,0.0,0.0,0.0,0.0,0.0,0.0,0.0,0.0,2.5113,2.5074,2.6356,2.6976,2.6279,2.6814,2.7261,2.7321,0.0,0.0,0.0,0.0,0.0,0.0,0.0,0.0,0.0,2.7307,2.8023,2.9498,2.9498,3.03,3.18,3.18,3.18,3.18,3.18,3.18,0.0,0.0,0.0,0.0,0.0,0.0,0.0,0.0,0.0,0.0,0.0,0.0,0.0,0.0,0.0,0.0,0.0,0.0,0.0,0.0,0.0,0.0,0.0,4.9095,5.0288,5.0288,4.9104,4.7572,4.6076,4.4632,0.0,4.3761,4.4393,4.4949,4.5053,4.624,4.7186,4.7186,4.7819,4.86,4.9482,5.1922,5.5031,5.8829,6.1563,6.3068,6.2829,6.4371,6.5705,6.6439,6.5815,6.5729,6.6531,6.5815,6.5026,6.4213,6.4861,6.4444,6.2829,6.2793,6.2793,6.2793,6.2793,6.2793,6.2793,6.2793,6.2389,6.1679,6.1612,6.1208,6.0621,6.1318,6.119,6.0627,6.1392,6.1686,6.1686,6.1686,6.2163,6.2793,0.0,0.0,0.0,0.0,0.0,0.0,0.0,0.0,0.0,0.0,2.6385,2.6861,2.7145,2.6842,2.6877,0.0,0.0,0.0,0.0,0.0,0.0,0.0,0.0,0.0,0.0,2.7307,2.8023,2.9498,2.9498,3.03,3.18,3.18,3.18,3.18,3.18,3.18,0.0,0.0,0.0,0.0,0.0,0.0,0.0,0.0,0.0,0.0,3.8716,3.9136,0.0,0.0,0.0,0.0,0.0,0.0,0.0,0.0,4.3549,4.3722,4.4441,0.0,4.5213,4.5213,4.492,4.4543,0.0,4.3935,4.3753,4.3796,4.4897,4.5867,4.585,4.7022,4.8021,4.8021,4.8186,4.86,4.9482,5.4326,5.837,5.993,6.3925,6.5558,6.3031,6.4879,6.6292,6.6494,6.6329,6.6568,6.7388,6.6659,6.5852,6.5044,6.4604,6.387,6.2811,6.2793,6.2793,6.2793,6.2793,6.2793,6.2793,6.2793,6.2701,6.2481,6.1869,6.1832,6.2205,6.1777,6.1851,6.2242,6.2444,6.2517,6.2517,6.2517,6.2646,6.2793,0.0,0.0,0.0,0.0,0.0,0.0,0.0,0.0,0.0,0.0,0.0,0.0,0.0,0.0,0.0,0.0,0.0,0.0,0.0,0.0,0.0,0.0,0.0,2.7307,2.7307,2.7307,2.8023,2.9498,2.9498,3.03,3.18,3.18,3.18,3.18,3.18,3.18,0.0,0.0,0.0,0.0,3.4588,0.0,0.0,0.0,0.0,0.0,3.8788,3.9262,0.0,4.0914,4.1691,4.246,0.0,0.0,0.0,0.0,4.36,4.3548,4.3558,4.3513,4.3506,4.3506,4.3506,4.3523,4.3582,4.3693,4.3796,4.3796,4.508,4.6171,4.61,4.7307,4.8296,4.8296,4.8636,4.9582,5.1528,5.5445,5.8958,6.1233,6.4182,6.5485,6.4077,6.5833,6.6586,6.5485,6.6072,6.6531,6.6604,6.5833,6.5191,6.4769,6.3943,6.3282,6.2793,6.2793,6.2793,6.2793,6.2793,6.2793,6.2793,6.2793,6.2793,6.2774,6.2334,6.2401,6.2774,6.2328,6.2407,6.2793,6.2793,6.2793,6.2793,6.2793,6.2793,6.2793,0.0,0.0,0.0,0.0,0.0,0.0,0.0,0.0,0.0,0.0,0.0,0.0,0.0,0.0,0.0,0.0,0.0,0.0,0.0,0.0,0.0,0.0,0.0,2.7359,2.7479,2.7479,2.8196,2.9679,2.9679,3.0403,3.18,3.18,3.18,3.18,3.18,3.18,0.0,0.0,0.0,0.0,3.4588,0.0,0.0,0.0,0.0,0.0,0.0,0.0,0.0,4.0967,4.1781,4.2623,4.3371,0.0,0.0,0.0,0.0,0.0,4.3565,4.3622,4.3653,4.3542,4.3515,4.3513,4.3599,4.3803,4.3964,4.398,4.5256,4.6347,4.6285,4.7399,4.8333,4.8489,4.9435,5.1234,5.4326,5.6271,5.8664,6.2205,6.3704,6.4585,6.4884,6.6494,6.6617,6.4451,6.565,6.6145,6.5343,6.4659,6.4231,6.4103,6.3264,6.2793,6.2793,6.2793,6.2793,6.2793,6.2793,6.2793,6.2793,6.2793,6.2793,6.2793,6.2793,6.2738,6.2609,6.2609,6.2536,6.2426,6.2426,6.2517,6.2609,6.2609,6.2683,6.2793,0.0,0.0,0.0,0.0,0.0,0.0,0.0,0.0,0.0,0.0,0.0,0.0,0.0,0.0,0.0,0.0,0.0,0.0,0.0,0.0,0.0,0.0,2.7307,2.76,2.8213,2.823,2.8972,3.0515,3.0515,3.0964,3.18,3.18,3.18,3.18,3.18,3.18,3.18,0.0,0.0,0.0,3.4588,0.0,0.0,0.0,0.0,0.0,0.0,0.0,0.0,4.1199,4.223,4.3416,4.3553,0.0,0.0,0.0,0.0,0.0,4.354,4.4002,4.4369,4.3749,4.3539,4.3549,4.3719,4.4227,4.4681,4.4803,4.6052,4.7132,4.7123,4.7757,4.8545,4.927,5.1224,5.3526,5.6058,5.8389,6.0327,6.163,6.4347,6.5356,6.338,6.5319,6.6256,6.5178,6.598,6.6145,6.5343,6.5178,6.4806,6.4121,6.3264,6.2793,6.2793,6.2793,6.2793,6.2793,6.2793,6.2793,6.2793,6.2793,6.2793,6.2793,6.2793,6.2407,6.1777,6.1777,6.1374,6.0756,6.0756,6.119,6.1777,6.1777,6.2218,6.2793,0.0,0.0,0.0,0.0,0.0,0.0,0.0,0.0,0.0,0.0,0.0,0.0,0.0,0.0,0.0,0.0,0.0,0.0,0.0,0.0,0.0,2.7876,2.7885,2.804,2.8385,2.8403,2.917,3.0705,3.0705,3.1085,3.18,3.18,3.18,3.18,3.18,3.18,3.18,3.18,0.0,0.0,0.0,0.0,0.0,0.0,0.0,0.0,0.0,0.0,0.0,0.0,4.2648,4.3607,4.3694,0.0,0.0,0.0,0.0,0.0,4.3548,4.3807,4.4084,4.4226,4.4513,4.4716,4.4414,4.4949,4.5521,4.5583,4.6506,4.7289,4.7215,4.8188,4.9711,5.1858,5.3482,5.5188,5.7171,5.84,5.9887,6.1998,6.3191,6.3925,6.4132,6.5178,6.5307,6.404,6.5123,6.5288,6.4022,6.4402,6.4273,6.3429,6.3013,6.2793,6.2793,6.2793,6.2793,6.2793,6.2793,6.2793,6.2793,6.2793,6.2793,6.2774,6.2334,6.1942,6.1569,6.1135,6.0731,6.0401,6.0401,6.0896,6.1606,6.1606,6.1832,6.2144,0.0,0.0,0.0,0.0,0.0,0.0,0.0,0.0,0.0,0.0,0.0,0.0,0.0,0.0,0.0,0.0,0.0,0.0,0.0,0.0,2.7679,2.8118,2.8316,2.8575,2.8937,2.8937,2.9592,3.0964,3.0964,3.1257,3.18,3.18,3.18,3.18,3.18,3.18,3.1809,3.2083,3.3172,0.0,0.0,0.0,0.0,0.0,0.0,0.0,0.0,0.0,0.0,0.0,0.0,0.0,0.0,0.0,0.0,4.3843,4.3709,4.3522,4.3582,4.3686,4.3909,4.4391,4.5065,4.5571,4.5421,4.6019,4.6681,4.6884,4.7408,4.7849,4.7957,4.9315,5.1308,5.3977,5.5401,5.6723,5.8345,5.8712,5.9979,6.3013,6.2677,6.308,6.5362,6.5233,6.4494,6.3196,6.4279,6.4371,6.2884,6.3631,6.3704,6.2829,6.2793,6.2793,6.2793,6.2793,6.2793,6.2793,6.2793,6.2793,6.2793,6.2793,6.2793,6.2774,6.2144,6.1667,6.1263,6.0658,6.0181,5.985,5.985,6.0327,6.1062,6.1245,6.1429,6.1606,0.0,0.0,0.0,0.0,0.0,0.0,0.0,0.0,0.0,0.0,0.0,0.0,0.0,0.0,0.0,0.0,0.0,0.0,0.0,0.0,2.7461,2.7376,2.8023,2.9075,3.0498,3.0533,3.0912,3.1714,3.1714,3.1757,3.18,3.18,3.18,3.18,3.18,3.18,3.1862,3.2922,3.389,3.4824,0.0,0.0,0.0,0.0,0.0,0.0,0.0,0.0,0.0,0.0,0.0,0.0,0.0,0.0,4.3875,4.3829,4.3711,4.359,4.3599,4.4109,4.4461,4.3831,4.4229,4.5204,4.6764,4.7656,4.8371,4.917,4.94,4.9665,5.0398,5.1856,5.3251,5.4234,5.6326,5.8382,5.9997,6.086,6.2273,6.4811,6.4402,6.458,6.6256,6.5063,6.4139,6.4029,6.4121,6.3778,6.2848,6.3631,6.3704,6.2829,6.2793,6.2793,6.2793,6.2793,6.2793,6.2793,6.2793,6.2793,6.2793,6.2793,6.2793,6.2793,6.2738,6.1875,6.0493,6.0407,5.952,5.8162,5.8162,5.8646,5.9471,6.0205,6.097,6.1606,0.0,0.0,0.0,0.0,0.0,0.0,0.0,0.0,0.0,0.0,0.0,0.0,0.0,0.0,0.0,0.0,0.0,0.0,0.0,0.0,2.7635,2.7962,2.8696,2.9592,3.0688,3.0705,3.1067,3.18,3.18,3.18,3.18,3.18,3.2041,3.2472,3.2472,3.2908,3.362,3.4055,3.4978,3.6168,3.6767,0.0,0.0,0.0,0.0,0.0,0.0,0.0,0.0,0.0,4.3492,4.3859,4.3835,4.3845,4.381,4.3719,4.3642,4.3582,4.3539,4.4146,4.4687,4.4367,4.525,4.6379,4.7031,4.8564,4.9811,4.9647,5.039,5.1198,5.1481,5.2858,5.4546,5.6345,5.8235,6.0052,6.1673,6.215,6.2897,6.4383,6.3815,6.3741,6.491,6.3961,6.3301,6.3301,6.3301,6.3141,6.2829,6.3105,6.3154,6.2811,6.2793,6.2793,6.2793,6.2793,6.2554,6.2053,6.2554,6.2793,6.2793,6.2793,6.2793,6.2738,6.1728,6.0958,6.0327,5.9318,5.8547,5.8052,5.8535,5.8627,5.8535,5.9361,5.9857,6.0169,0.0,0.0,0.0,0.0,0.0,0.0,0.0,0.0,0.0,0.0,0.0,0.0,0.0,0.0,0.0,0.0,0.0,0.0,2.7511,2.7532,2.7707,2.8031,2.898,2.9765,3.0308,3.0809,3.1292,3.18,3.18,3.18,3.1809,3.2041,3.2421,3.293,3.3288,3.3923,3.4735,3.5217,3.6046,3.7035,3.7394,3.799,0.0,0.0,0.0,0.0,0.0,0.0,0.0,0.0,4.3726,4.38,4.3804,4.3796,4.3761,4.3642,4.3599,4.3582,4.3539,4.3952,4.4439,4.4661,4.5727,4.692,4.7691,4.9591,5.1242,5.1455,5.2372,5.2978,5.2472,5.3683,5.539,5.7317,5.9189,6.0878,6.2224,6.2646,6.3123,6.4011,6.3337,6.3141,6.4029,6.308,6.2407,6.2407,6.2187,6.215,6.2407,6.2169,6.215,6.2407,6.2169,6.204,6.204,6.204,6.1777,6.1227,6.1783,6.2169,6.2407,6.215,6.2169,6.2346,6.0976,6.0272,5.993,5.8841,5.8235,5.8052,5.8621,5.8492,5.807,5.8609,5.8976,5.9288,0.0,0.0,0.0,0.0,0.0,0.0,0.0,0.0,0.0,0.0,0.0,0.0,0.0,0.0,0.0,0.0,0.0,0.0,2.7534,2.7612,2.7577,2.7305,2.8713,2.9498,2.9506,3.1007,3.18,3.18,3.18,3.18,3.1817,3.2559,3.2904,3.2957,3.4181,3.4716,3.4833,3.6351,3.7009,3.7114,3.8253,3.8699,0.0,0.0,0.0,0.0,0.0,0.0,0.0,0.0,4.3711,4.3615,4.3763,4.3796,4.3779,4.3642,4.3599,4.3599,4.3599,4.3566,4.3734,4.4593,4.5359,4.6562,4.8958,5.0812,5.2685,5.5108,5.5603,5.5108,5.3526,5.4528,5.5879,5.6693,5.8829,6.0676,6.1496,6.2291,6.3123,6.3974,6.3319,6.3154,6.3992,6.2579,6.1606,6.1575,6.086,6.075,6.1551,6.0823,6.0768,6.1557,6.0823,6.0401,6.0401,6.0401,6.0401,6.0389,6.0389,6.0805,6.1557,6.0768,6.0823,6.1539,6.075,5.993,5.9196,5.9184,5.8719,5.7997,5.7997,5.7997,5.7997,5.7997,5.851,5.9184,0.0,0.0,0.0,0.0,0.0,0.0,0.0,0.0,0.0,0.0,0.0,0.0,0.0,0.0,0.0,0.0,0.0,0.0,2.7511,2.7542,2.7473,2.7315,2.8713,2.9566,2.9717,3.122,3.1929,3.18,3.18,3.18,3.1817,3.2559,3.3197,3.3776,3.4656,3.5655,3.6692,3.7166,3.7682,3.8235,3.8559,3.8699,3.8862,0.0,0.0,0.0,0.0,0.0,0.0,0.0,0.0,0.0,4.3667,4.3659,4.3642,4.3566,4.3556,4.3582,4.3539,4.442,4.5229,4.4826,4.6618,4.8683,4.9399,5.083,5.2685,5.5108,5.5603,5.5456,5.4979,5.5739,5.6895,5.8279,5.9563,6.0676,6.1496,6.2291,6.2683,6.2383,6.2622,6.2683,6.2377,6.1887,6.1374,6.0805,6.0529,6.0511,6.075,6.0529,6.0511,6.075,6.0529,6.0401,6.0401,6.0401,6.0114,5.9563,5.9563,5.9985,6.075,6.0511,6.0529,6.0713,5.9912,5.9416,5.9159,5.8591,5.8217,5.7997,5.7997,5.7997,5.7997,5.7997,5.8143,5.8437,0.0,0.0,0.0,0.0,0.0,0.0,0.0,0.0,0.0,0.0,0.0,0.0,0.0,0.0,0.0,0.0,0.0,0.0,0.0,2.7465,2.7604,2.784,2.8993,2.9962,3.0706,3.1629,3.1992,3.18,3.18,3.18,3.1817,3.2886,3.3638,3.4158,3.5498,3.6632,3.7523,3.7844,3.8252,3.8699,3.8699,3.8699,3.8872,0.0,0.0,0.0,0.0,0.0,0.0,0.0,0.0,0.0,4.3592,4.3556,4.3548,4.3505,4.3522,4.3539,4.3515,4.4504,4.557,4.5645,4.7388,4.9435,5.0729,5.2509,5.4491,5.6602,5.6767,5.665,5.6969,5.6902,5.7214,5.8499,5.9398,6.0095,6.0584,6.1612,6.2144,6.1661,6.2034,6.2126,6.1649,6.1025,6.0456,5.9948,5.963,5.9593,5.9912,5.963,5.9593,5.9912,5.9612,5.9446,5.9446,5.9446,5.9208,5.8719,5.8719,5.8976,5.9446,5.9446,5.9618,5.9875,5.9068,5.8719,5.8682,5.8198,5.7997,5.7997,5.7997,5.7997,5.7997,5.7997,5.7997,5.807,0.0,0.0,0.0,0.0,0.0,0.0,0.0,0.0,0.0,0.0,0.0,0.0,0.0,0.0,0.0,0.0,0.0,0.0,0.0,0.0,2.79,2.8785,2.9544,3.0626,3.2082,3.2117,3.2019,3.1827,3.1818,3.1834,3.1921,3.3413,3.4158,3.4357,3.6488,3.7487,3.7605,3.8326,3.8676,3.8699,3.8699,3.8699,3.8891,4.0487,0.0,0.0,0.0,0.0,0.0,0.0,0.0,0.0,4.3506,4.3506,4.3506,4.3506,4.3506,4.3524,4.3598,4.4195,4.5195,4.6801,4.7929,4.9471,5.2682,5.5122,5.7123,5.8664,5.8517,5.8309,5.8976,5.7893,5.7159,5.7978,5.8719,5.9196,5.9196,6.0529,6.1496,6.1496,6.1496,6.1496,6.1496,6.0095,5.9178,5.9104,5.8419,5.8327,5.9049,5.84,5.8345,5.9068,5.8382,5.7997,5.7997,5.7997,5.796,5.7886,5.7886,5.785,5.7776,5.7923,5.84,5.9049,5.8327,5.7997,5.7997,5.7997,5.7997,5.7997,5.7997,5.7997,5.7997,5.7997,5.7997,5.7997,0.0,0.0,0.0,0.0,0.0,0.0,0.0,0.0,0.0,0.0,0.0,0.0,0.0,0.0,0.0,0.0,0.0,0.0,0.0,0.0,2.8295,2.9739,3.0658,3.1495,3.2231,3.2266,3.2179,3.2045,3.1882,3.2093,3.2679,3.3655,3.4584,3.5478,3.6554,3.7386,3.7973,3.817,3.8409,3.8699,3.8699,3.8699,3.8872,4.0559,4.1142,0.0,0.0,0.0,0.0,0.0,0.0,0.0,4.3506,4.3506,4.3506,4.3506,4.3506,4.3635,4.4268,4.5039,4.603,4.7636,4.9646,5.1895,5.4502,5.5493,5.6143,5.7104,5.8187,5.8792,5.8345,5.7978,5.8015,5.8811,5.9086,5.9196,5.9196,6.004,6.0658,6.0658,6.0658,6.0658,6.0658,5.9765,5.8939,5.8309,5.8107,5.807,5.8253,5.8088,5.807,5.8253,5.8088,5.7997,5.7997,5.7997,5.7685,5.7049,5.7049,5.673,5.6154,5.7421,5.8088,5.8253,5.807,5.7997,5.7997,5.7997,5.7997,5.7997,5.7997,5.7997,5.7997,5.7997,5.7997,5.7997,0.0,0.0,0.0,0.0,0.0,0.0,0.0,0.0,0.0,0.0,0.0,0.0,0.0,0.0,0.0,0.0,0.0,0.0,0.0,0.0,2.9026,3.0706,3.1679,3.2215,3.2309,3.2687,3.2747,3.2484,3.2753,3.2896,3.2921,3.4283,3.5227,3.5849,3.6966,3.7703,3.811,3.832,3.8507,3.8699,3.8699,3.8927,3.9412,4.0664,4.1364,4.1846,4.3108,0.0,0.0,0.0,0.0,0.0,0.0,0.0,4.3506,4.3506,4.3506,4.3598,4.4011,4.4984,4.6471,4.8884,5.1059,5.3004,5.4638,5.5034,5.5354,5.6535,5.7765,5.8719,5.9079,5.851,5.8253,5.9068,5.8884,5.8627,5.8627,5.9325,5.982,5.982,5.982,5.982,5.982,5.9104,5.8455,5.8033,5.7997,5.7997,5.7997,5.7997,5.7997,5.7997,5.7629,5.7428,5.7428,5.7042,5.6638,5.6235,5.6235,5.6198,5.6198,5.7042,5.7428,5.7446,5.7831,5.7997,5.7997,5.7997,5.7997,5.7997,5.7997,5.7997,5.7997,5.7997,5.7997,5.7997,0.0,0.0,0.0,0.0,0.0,0.0,0.0,0.0,0.0,0.0,0.0,0.0,0.0,0.0,0.0,0.0,0.0,0.0,0.0,0.0,0.0,3.1491,3.24,3.2713,3.2309,3.309,3.3304,3.2904,3.3915,3.4067,3.3444,3.5057,3.596,3.6278,3.7547,3.8135,3.8228,3.857,3.8715,3.8707,3.8862,3.9328,4.0,4.0938,4.1727,4.2415,4.3212,4.3506,4.3506,4.3506,0.0,0.0,0.0,0.0,4.3506,4.3506,4.3506,4.3524,4.3671,4.4984,4.704,5.005,5.1911,5.3232,5.4179,5.4399,5.4821,5.629,5.7226,5.8235,5.9703,5.8896,5.8217,5.8884,5.8437,5.7997,5.7997,5.8572,5.9049,5.9178,5.9086,5.9049,5.9196,5.8462,5.7997,5.7997,5.7997,5.7941,5.7795,5.7795,5.7721,5.7593,5.695,5.6602,5.6602,5.5923,5.553,5.5383,5.5254,5.5537,5.6187,5.6315,5.6535,5.6829,5.7501,5.7795,5.7795,5.7941,5.7997,5.7997,5.7997,5.7997,5.7997,5.7997,5.7997,5.7997,0.0,0.0,0.0,0.0,0.0,0.0,0.0,0.0,0.0,0.0,0.0,0.0,0.0,0.0,0.0,0.0,0.0,0.0,2.9857,0.0,0.0,3.1701,3.2456,3.2713,3.2309,3.309,3.3304,3.2904,3.4749,3.5604,3.5499,3.5709,3.6541,3.7902,3.8021,3.8285,3.8627,3.8732,3.8757,3.8762,3.9511,3.9853,4.0055,4.157,4.2213,4.2415,4.3212,4.3506,4.3506,4.3506,4.3506,0.0,0.0,0.0,4.3506,4.3506,4.3506,4.3653,4.436,4.6223,4.8434,5.0325,5.1481,5.2556,5.4051,5.4399,5.4656,5.5567,5.64,5.7244,5.8143,5.8143,5.8033,5.8143,5.807,5.7997,5.7997,5.8088,5.8419,5.9123,5.8572,5.8437,5.9141,5.8462,5.7997,5.7997,5.7997,5.7703,5.6994,5.6957,5.6638,5.5934,5.5824,5.5768,5.5768,5.5658,5.5254,5.4546,5.3838,5.3581,5.371,5.4399,5.5482,5.6811,5.6902,5.6957,5.7012,5.7703,5.7997,5.7997,5.7997,5.7997,5.7997,5.7997,5.7997,5.7997,0.0,0.0,0.0,0.0,0.0,0.0,0.0,0.0,0.0,0.0,0.0,0.0,0.0,0.0,0.0,2.7093,2.8052,2.9345,3.0983,3.18,3.2267,3.2382,3.2704,3.2713,3.2309,3.36,3.4107,3.3742,3.5748,3.6888,3.713,3.7139,3.7517,3.8222,3.8366,3.8562,3.8765,3.875,3.9007,3.9467,3.979,4.0464,4.1313,0.0,4.258,4.3029,4.3378,4.3506,4.3506,4.3506,4.3506,4.3506,4.3506,0.0,0.0,0.0,4.3506,4.3763,4.5039,4.648,4.815,5.027,5.1389,5.2289,5.3463,5.3728,5.3959,5.4748,5.5207,5.5849,5.7097,5.695,5.6962,5.785,5.7244,5.698,5.7868,5.7611,5.7464,5.782,5.7941,5.7776,5.7244,5.7281,5.7134,5.6686,5.6668,5.6503,5.6143,5.6124,5.597,5.5603,5.5163,5.4932,5.4932,5.4473,5.4087,5.371,5.3379,5.3434,5.3867,5.3765,5.4363,5.5482,5.5923,5.6124,5.618,5.7005,5.7336,5.7373,5.7813,5.7997,5.7997,5.7997,5.7997,5.7997,0.0,0.0,0.0,0.0,0.0,0.0,0.0,0.0,0.0,0.0,0.0,0.0,0.0,0.0,0.0,0.0,2.8949,3.0254,3.1607,3.1893,3.2267,3.2864,3.3048,3.2982,3.2685,3.4288,3.5044,3.4867,3.6608,3.7721,3.8183,3.8239,3.832,3.8407,3.8621,3.8757,3.8799,3.8975,3.9416,4.0028,4.0396,4.1238,4.2323,4.2525,4.2992,4.3506,4.3506,4.3506,4.3506,4.3506,4.3506,4.3506,4.3506,4.3506,0.0,0.0,0.0,4.3855,4.5461,4.6342,4.7397,4.9884,5.1096,5.1903,5.2711,5.3049,5.3379,5.3977,5.4106,5.4528,5.593,5.5868,5.5989,5.7189,5.6374,5.6025,5.7207,5.6877,5.651,5.651,5.7024,5.6925,5.5713,5.6143,5.6253,5.5658,5.5603,5.5511,5.531,5.531,5.5199,5.4997,5.4418,5.4106,5.4106,5.3489,5.3196,5.3196,5.3196,5.3508,5.4069,5.3471,5.3526,5.4142,5.4961,5.531,5.5365,5.6161,5.651,5.6565,5.7373,5.7703,5.7721,5.7923,5.7997,5.7997,0.0,0.0,0.0,0.0,0.0,0.0,0.0,0.0,0.0,0.0,0.0,0.0,2.7166,2.7896,2.8617,2.9308,3.0041,3.0796,3.1635,3.241,3.2864,3.29,3.345,0.0,3.373,3.5053,3.5874,3.6114,3.7167,3.7912,3.8387,3.8449,3.8657,3.895,3.8833,3.8799,3.8844,3.9685,4.0021,4.012,4.1658,4.2271,4.2378,4.3157,4.3451,4.3506,4.3506,4.3506,4.3506,4.3506,4.3506,4.3506,4.3506,4.3506,4.3506,0.0,0.0,0.0,4.5461,4.592,4.6562,4.9031,5.028,5.1077,5.1877,5.2656,5.3214,5.3251,5.3269,5.3526,5.4363,5.5108,5.5622,5.5713,5.5658,5.5622,5.5713,5.5695,5.5658,5.5658,5.5695,5.5695,5.5603,5.564,5.5658,5.5603,5.5603,5.5273,5.4491,5.4454,5.4106,5.3343,5.3287,5.3269,5.3269,5.3214,5.3196,5.3196,5.3196,5.3214,5.3269,5.3214,5.3214,5.3306,5.4106,5.4454,5.4528,5.5328,5.5658,5.575,5.6547,5.6866,5.6939,5.7721,5.7997,5.7997,0.0,0.0,0.0,0.0,0.0,0.0,0.0,0.0,0.0,0.0,0.0,0.0,0.0,2.9141,2.9525,2.9806,3.0704,3.1607,3.2418,3.2739,3.29,3.29,3.3594,3.3929,3.38,3.5377,3.6175,3.6148,3.7492,3.8219,3.8342,3.8664,3.8862,3.8921,3.8844,3.9106,3.9648,3.9913,4.063,4.1585,4.2124,4.2623,4.3102,4.3396,4.3506,4.3506,4.3506,4.3506,4.3506,4.3506,4.3506,4.3506,4.3506,4.3506,4.3506,4.3506,4.3506,4.3745,4.4837,4.5516,4.6498,4.8986,5.0206,5.1151,5.2472,5.2994,5.3196,5.3196,5.3196,5.3287,5.3581,5.3867,5.4399,5.5438,5.473,5.4418,5.5456,5.5163,5.4821,5.4821,5.5291,5.5199,5.4161,5.4528,5.462,5.4106,5.4069,5.394,5.3654,5.3618,5.3489,5.3214,5.3196,5.3196,5.3196,5.3196,5.3196,5.3196,5.3196,5.3196,5.3196,5.3196,5.3196,5.3232,5.4051,5.4106,5.3691,5.4491,5.4821,5.4913,5.5732,5.6345,5.6829,5.7123,5.7556,5.7997,0.0,0.0,0.0,0.0,0.0,0.0,0.0,0.0,0.0,0.0,0.0,0.0,0.0,0.0,3.0565,3.0941,3.1669,3.2329,3.2864,3.29,3.3025,3.3285,3.3986,3.446,3.4666,3.6016,3.6765,3.6871,3.7814,3.8366,3.8575,3.8762,3.8906,3.8983,3.9187,3.9571,4.0129,4.0632,4.1433,4.2423,4.2632,4.3029,4.3506,4.3506,4.3506,4.3506,4.3506,4.3506,4.3506,4.3506,4.3506,4.3506,4.3506,4.3506,4.3506,4.3506,4.369,4.4085,4.4883,4.5691,4.6764,4.8683,4.9784,5.0674,5.1756,5.2417,5.2803,5.2803,5.3012,5.3196,5.3196,5.3196,5.3544,5.462,5.3904,5.3563,5.4638,5.4326,5.4014,5.4014,5.4473,5.4363,5.3306,5.3673,5.3794,5.3232,5.3196,5.3196,5.3196,5.3196,5.3196,5.3196,5.3196,5.3196,5.3196,5.3196,5.3196,5.3196,5.3196,5.3343,5.3599,5.3599,5.3757,5.4051,5.4564,5.4344,5.3673,5.4473,5.4803,5.4876,5.5695,5.6161,5.6455,5.7005,5.7207,5.7262,0.0,0.0,0.0,0.0,0.0,0.0,0.0,0.0,0.0,2.9497,0.0,0.0,0.0,0.0,0.0,3.2876,3.2971,3.2971,3.2971,3.2971,3.332,3.4107,3.4649,3.5412,3.639,3.7011,3.7685,3.8399,3.8145,3.8396,3.908,3.8759,3.8807,3.9168,3.9899,4.0215,4.0277,4.1831,4.2476,4.2496,4.3201,4.3506,4.3506,4.3506,4.3506,4.3506,4.3506,4.3506,4.3506,4.3524,4.3524,4.3506,4.3506,4.3506,4.3506,4.3506,4.4048,4.4828,0.0,0.0,0.0,4.8095,4.8958,4.961,4.9665,5.0849,5.1987,5.2024,5.2637,5.3177,5.3196,5.3196,5.3196,5.3196,5.3196,5.3196,5.3196,5.3196,5.3196,5.3196,5.3196,5.3196,5.3196,5.3196,5.3196,5.3196,5.3196,5.3196,5.3196,5.3196,5.3196,5.3196,5.3196,5.3196,5.3196,5.3196,5.3214,5.3232,5.3232,5.3654,5.4436,5.4436,5.4869,5.5603,5.5622,5.5199,5.4528,5.5291,5.5603,5.5677,5.6455,5.6308,5.5824,5.7402,5.6998,5.5897,0.0,0.0,0.0,0.0,0.0,0.0,0.0,0.0,0.0,0.0,0.0,0.0,3.2181,3.2883,3.365,3.4499,3.4553,3.4553,3.4553,3.4553,3.466,3.4892,3.5597,3.622,3.6684,3.7414,3.8001,3.8399,3.8528,3.8634,3.8744,3.8891,3.9303,3.9937,4.0815,4.1441,4.1868,4.2311,4.2765,4.3201,4.3423,4.3506,4.3506,4.3506,4.3506,4.3506,4.3506,4.3506,4.3598,4.4176,4.3975,4.3506,4.3506,4.3506,0.0,4.3506,4.3653,0.0,4.4819,0.0,0.0,0.0,0.0,0.0,5.1051,5.1234,5.1463,5.2637,5.2582,5.2509,5.3086,5.3196,5.3196,5.3196,5.3196,5.3196,5.3196,5.3196,5.3196,5.3196,5.3196,5.3196,5.3196,5.3196,5.3196,5.3196,5.3196,5.3196,5.3196,5.3196,5.3196,5.3196,5.3196,5.3196,5.3196,5.3196,5.3489,5.4069,5.4069,5.4491,5.5273,5.5273,5.5383,5.5622,5.6216,5.6345,5.6113,5.575,5.5603,5.5622,5.586,5.6143,5.6528,5.6969,5.7226,5.7402,0.0,0.0,0.0,0.0,0.0,0.0,0.0,3.0832,3.1313,0.0,0.0,0.0,3.3766,3.4276,3.4731,3.5159,3.5195,3.5195,3.5195,3.5195,3.5356,3.5685,3.6262,3.6803,3.7297,3.7876,3.8302,3.8575,3.8713,3.8803,3.8829,3.9369,3.9878,4.0329,4.1549,4.2253,4.2532,4.2923,4.3267,4.3531,4.3515,4.3523,4.3531,4.3515,4.3506,4.3543,4.3883,4.3993,4.4121,4.4929,4.4892,4.4497,4.4497,4.4497,4.4442,4.4103,4.4232,0.0,0.0,0.0,4.67,4.7984,0.0,0.0,5.0233,5.0362,5.0573,5.1499,5.1591,5.1646,5.2113,5.2462,5.2711,5.2711,5.2976,5.3196,5.3196,5.3196,5.3196,5.3196,5.3196,5.3196,5.3196,5.3196,5.3196,5.3196,5.3196,5.3196,5.3196,5.3196,5.3196,5.3196,5.3196,5.3196,5.3196,5.3526,5.393,5.4399,5.473,5.5317,5.6106,5.6106,5.6271,5.6631,5.7097,5.7299,5.7262,5.6785,5.6613,5.6613,5.6613,5.6675,5.6829,5.7178,5.7171,5.709,0.0,0.0,0.0,0.0,0.0,0.0,0.0,3.258,0.0,0.0,3.4214,3.4499,3.5248,3.5338,3.5373,3.5463,3.5463,3.548,3.5514,3.5514,3.5835,3.6585,3.6852,3.7337,3.8068,3.8318,3.8564,3.8826,3.8826,3.8965,3.925,4.0037,4.0501,4.0724,0.0,0.0,4.2714,4.3542,4.3792,4.3625,4.3531,4.3558,4.359,4.354,4.3561,4.3726,4.4443,4.4755,4.4938,4.5663,4.5957,4.6012,4.592,4.5902,4.5755,4.503,4.5351,0.0,0.0,0.0,0.0,4.8095,4.8379,0.0,4.8434,4.9114,4.9757,4.9849,5.0445,5.0967,5.1059,5.1646,5.2123,5.2123,5.2719,5.3196,5.3196,5.3196,5.3196,5.3196,5.3196,5.3196,5.3196,5.3196,5.3196,5.3196,5.3196,5.3196,5.3196,5.3196,5.3196,5.3196,5.3196,5.3232,5.3324,5.4051,5.4491,5.4675,5.5401,5.6143,5.6921,5.6921,5.7317,5.7997,5.7997,5.7997,5.7997,5.7997,5.7997,5.7997,5.7997,5.7556,5.7024,5.774,5.709,5.6081,0.0,0.0,0.0,0.0,0.0,0.0,0.0,3.4256,3.4726,3.4955,3.4981,3.5284,3.6078,3.6167,3.6435,3.7086,3.7122,3.722,3.7429,3.7446,3.7621,3.7982,3.8057,3.825,3.8637,3.869,3.8833,3.9038,3.9038,3.9412,4.0148,4.0315,4.1096,4.2352,4.2649,4.3115,4.3643,4.3815,4.3851,4.3744,4.3634,4.3582,4.359,4.354,4.3901,4.448,4.4645,4.5122,4.5681,4.5847,4.6333,4.6746,4.6104,4.5902,4.5865,4.5718,4.5773,4.6049,4.67,4.6984,4.7278,4.8095,4.882,0.0,4.9344,4.9986,5.0747,5.14,5.1657,5.1958,5.2609,5.2865,5.2957,5.2957,5.3104,5.3196,5.3196,5.3196,5.3196,5.3196,5.3196,5.3196,5.3196,5.3196,5.3196,5.3196,5.3196,5.3196,5.3196,5.3196,5.3196,5.3196,5.3196,5.3508,5.4161,5.4326,5.506,5.6334,5.648,5.6987,5.7776,5.7776,5.785,5.7997,5.7997,5.7997,5.7997,5.7997,5.7997,5.7997,5.7997,5.7905,5.7776,5.7941,5.7795,5.7574,0.0,0.0,0.0,0.0,0.0,0.0,0.0,3.4963,3.5338,3.5748,3.6149,3.6551,3.6943,3.6997,3.7318,3.813,3.8321,3.8636,3.9157,3.9322,3.9467,3.9601,3.9723,3.9869,3.9986,4.0126,4.0255,4.0346,4.0346,4.0568,4.1003,4.1412,4.2021,4.2773,4.3209,4.3563,4.3851,4.3921,4.4122,4.435,4.3825,4.3838,4.4197,4.412,4.4599,4.5351,4.5746,4.6406,4.7095,4.7095,4.7361,4.7636,4.7223,4.7095,4.7021,4.6627,4.6498,4.659,4.6984,4.7094,4.7388,4.8636,4.8958,0.0,0.0,4.9582,4.9793,5.0629,5.0463,5.0398,5.1242,5.1738,5.2003,5.2003,5.2344,5.2747,5.3141,5.3196,5.3196,5.3196,5.3196,5.3196,5.3196,5.3196,5.3196,5.3196,5.3196,5.3196,5.3196,5.3196,5.3196,5.3196,5.3196,5.3581,5.4399,5.4803,5.5592,5.6792,5.7207,5.7611,5.7997,5.7997,5.7997,5.7997,5.7997,5.7997,5.7997,5.7997,5.7997,5.7997,5.7997,5.7997,5.7997,5.7997,5.7997,5.7997,3.2862,0.0,0.0,0.0,0.0,0.0,0.0,0.0,3.5899,3.6551,3.7372,3.7918,3.7918,3.8097,3.8483,3.9128,3.9373,3.9812,4.0509,4.0763,4.0904,4.0946,4.1159,4.128,4.128,4.1482,4.1597,4.1597,4.1597,4.169,4.1858,4.25,4.2852,4.2976,4.3679,4.3929,4.3843,4.3945,4.4368,4.4922,4.4173,4.4334,4.5034,4.4956,4.5434,4.625,4.7049,4.7746,4.8296,4.8296,4.8296,4.8296,4.8296,4.8296,4.8168,4.7516,4.7333,4.7333,4.7333,4.7333,4.7654,4.9013,4.8958,4.8691,0.0,0.0,0.0,4.949,4.915,4.9003,4.9692,5.05,5.0986,5.0839,5.161,5.2399,5.2913,5.3104,5.3196,5.3196,5.2939,5.2865,5.3177,5.3196,5.3196,5.3196,5.3196,5.3196,5.3196,5.3196,5.3196,5.3196,5.3196,5.3654,5.462,5.5273,5.6081,5.7031,5.7685,5.7997,5.7997,5.7997,5.7997,5.7997,5.7997,5.7997,5.7997,5.7997,5.7997,5.7997,5.7997,5.7997,5.7997,5.7997,5.7997,5.7997,3.3035,3.3481,0.0,0.0,0.0,0.0,0.0,0.0,3.7354,3.7443,3.8376,3.903,3.903,3.9873,4.0473,4.0564,4.0598,4.0763,4.1095,4.1135,4.1264,4.149,4.1546,4.156,4.156,4.1583,4.1597,4.1597,4.1597,4.1969,4.2667,4.276,4.3188,4.3859,4.3881,4.3937,4.3974,4.3929,4.4338,4.4986,4.4877,4.5295,4.5935,4.5809,4.626,4.7058,4.7874,4.8223,4.8296,4.8296,4.8296,4.8296,4.8296,4.8296,4.8278,4.8186,4.815,4.815,4.815,4.815,4.8205,4.8398,4.8958,4.927,4.86,0.0,5.0343,4.9739,0.0,5.0545,5.0655,0.0,0.0,5.093,5.2058,5.2858,5.2226,5.2747,5.3196,5.3196,5.193,5.1618,5.3067,5.3196,5.3196,5.3196,5.3196,5.3196,5.3196,5.3196,5.3196,5.3196,5.3196,5.394,5.5456,5.5548,5.6356,5.785,5.796,5.7997,5.7997,5.7997,5.7997,5.7997,5.7997,5.7997,5.7997,5.7997,5.7997,5.7997,5.7997,5.7997,5.7997,5.7997,5.7997,5.7997,3.4294,3.4508,0.0,0.0,3.5971,0.0,0.0,3.7773,3.829,3.829,3.9072,3.9687,3.9887,4.0302,4.0815,4.1444,4.1642,4.1969,4.2537,4.2746,4.2865,4.3002,4.2983,4.2983,4.2983,4.2983,4.2983,4.2983,4.2983,4.3169,4.3503,4.3503,4.3658,4.3945,4.3913,4.3889,4.391,4.4389,4.4999,4.5674,4.6187,4.6799,4.7316,4.681,4.7104,4.7838,4.8186,4.8296,4.8296,4.8296,4.8296,4.8296,4.8296,4.8296,4.8296,4.8296,4.8296,4.8416,4.8921,4.905,4.9178,4.9627,4.9674,4.95,4.9142,4.9205,4.9407,4.9564,0.0,0.0,0.0,0.0,0.0,0.0,5.1756,5.2546,5.2674,5.1775,5.1628,5.3031,5.2609,5.2462,5.3141,5.3196,5.3196,5.3196,5.3196,5.3196,5.3196,5.3196,5.3196,5.3196,5.3196,5.3977,5.5585,5.5603,5.6411,5.7997,5.7997,5.7997,5.7997,5.7997,5.7997,5.7997,5.7997,5.7997,5.7997,5.7997,5.7997,5.7997,5.7997,5.7997,5.7997,5.7997,5.7997,5.7997,3.5801,0.0,0.0,3.6292,3.6577,3.6925,3.7506,3.8356,3.8903,3.8903,3.9894,4.0673,4.0925,4.1431,4.2055,4.2848,4.3078,4.3435,4.4036,4.4014,4.4005,4.4005,4.4005,4.4005,4.4005,4.4005,4.4005,4.4005,4.4005,4.4005,4.4005,4.4005,4.3974,4.3947,4.4122,4.4184,4.4206,4.5036,4.5781,4.6478,4.7121,4.774,4.8241,4.7654,4.7801,4.8296,4.8296,4.8296,4.8296,4.8296,4.8296,4.8296,4.8296,4.8296,4.8296,4.8296,4.8471,4.8783,4.9435,4.9747,5.0023,5.038,5.0206,4.9858,4.9647,4.9288,4.9169,4.9802,4.9426,0.0,0.0,0.0,5.1059,5.0839,0.0,5.2454,5.2821,5.1353,5.0996,5.2976,5.3196,5.3104,5.2884,5.3067,5.3104,5.2884,5.3086,5.3104,5.2884,5.3086,5.3196,5.3196,5.3196,5.3977,5.5585,5.5603,5.6411,5.7997,5.7997,5.7997,5.7997,5.7997,5.7997,5.7997,5.7997,5.7997,5.7997,5.7997,5.7997,5.7997,5.7997,5.7997,5.7997,5.7997,5.7997,5.7997,3.7381,3.6908,3.6363,3.6399,3.7032,3.7577,3.7595,3.8492,3.9192,3.9192,4.1029,4.2327,4.2335,4.4013,4.517,4.5196,4.5204,4.5223,4.5241,4.4461,4.4005,4.4005,4.4005,4.4005,4.4005,4.4005,4.4005,4.4005,4.4005,4.4005,4.4005,4.4005,4.4005,4.4026,4.4673,4.4999,4.5103,4.5783,4.6533,4.7261,4.7289,4.7711,4.8296,4.826,4.8278,4.8296,4.8296,4.8296,4.8296,4.8296,4.8296,4.8296,4.8296,4.8296,4.8296,4.8296,4.8903,4.9555,4.9592,5.017,5.0582,4.9831,5.0206,5.0563,4.9776,5.0188,5.0729,5.0765,5.0747,5.0729,5.0765,5.1408,5.1712,0.0,5.2131,0.0,0.0,5.1969,5.2234,5.3104,5.3196,5.2884,5.2115,5.2747,5.2884,5.2097,5.2755,5.2847,5.2079,5.2784,5.3196,5.3196,5.3196,5.3977,5.5585,5.5603,5.6411,5.7997,5.7997,5.7997,5.7997,5.7997,5.7997,5.7997,5.7997,5.7997,5.7997,5.7997,5.7997,5.7997,5.7997,5.7997,5.7997,5.7997,5.7997,5.7997,3.8869,3.914,3.8865,3.7444,3.8017,3.8905,3.9604,4.0479,4.1249,4.1786,4.3414,4.4801,4.5557,4.6224,4.6706,4.6876,4.6401,4.6093,4.6093,4.5332,4.4867,4.4867,4.4302,4.4005,4.4005,4.4005,4.4005,4.4005,4.4005,4.4005,4.4005,4.4005,0.0,4.4851,4.4959,4.5003,4.5112,4.6366,4.67,4.6461,4.7518,4.8105,4.8296,4.8296,4.8296,4.8296,4.8296,4.8296,4.8296,4.8296,4.8296,4.8296,4.8296,4.8691,4.916,4.916,4.9747,5.0508,5.1032,5.14,5.1518,5.1253,5.0986,5.0729,5.0453,5.0188,5.017,5.0692,5.0802,5.0802,5.0802,5.1463,5.1914,0.0,0.0,5.292,0.0,5.1536,5.1316,5.1581,5.2087,5.2509,5.2766,5.2564,5.2289,5.2024,5.1756,5.1738,5.1987,5.2252,5.2656,5.3177,5.3196,5.3977,5.5585,5.5603,5.6411,5.7997,5.7997,5.7997,5.7997,5.7997,5.7997,5.7997,5.7997,5.7997,5.7997,5.7997,5.7997,5.7997,5.7997,5.7997,5.7997,5.7997,5.7997,5.7997,4.0029,4.0439,4.0365,3.8985,3.9308,3.9998,4.0687,4.2059,4.3218,4.3739,4.5535,4.7059,4.7792,4.8124,4.8251,4.813,4.7646,4.7107,4.6531,4.6011,4.561,4.5313,4.4748,4.4451,4.4451,4.4153,4.4153,4.4451,4.4451,4.4599,4.4896,4.4896,0.0,4.5732,4.5862,4.5907,4.5946,4.7196,4.7353,4.6838,4.7884,4.8296,4.8296,4.8296,4.8296,4.8296,4.8296,4.8296,4.8296,4.8296,4.8508,4.8765,4.8765,4.9344,5.0023,5.0023,5.061,5.1334,5.1858,5.2197,5.2362,5.2079,5.183,5.1581,5.1298,5.1041,5.1022,5.1544,5.1654,5.1654,5.1654,5.2087,5.2435,0.0,0.0,5.281,0.0,5.1132,5.0802,5.0802,5.1499,5.2207,5.2729,5.2564,5.2068,5.1216,5.1187,5.1334,5.1565,5.184,5.2362,5.3177,5.3196,5.3977,5.5585,5.5603,5.6411,5.7997,5.7997,5.7997,5.7997,5.7997,5.7997,5.7997,5.7997,5.7997,5.7997,5.7997,5.7997,5.7997,5.7997,5.7997,5.7997,5.7997,5.7997,5.7997,4.0901,4.0937,4.0956,4.0956,4.0911,4.0902,4.0956,4.3255,4.4982,4.5019,4.7361,4.9039,4.9076,4.9773,4.9921,4.915,4.9057,4.837,4.6773,4.6643,4.6252,4.5462,4.5387,4.535,4.5295,4.4525,4.4506,4.5295,4.535,4.5759,4.6494,4.6494,4.6513,4.6587,4.7292,4.7521,4.7469,4.8182,4.841,4.8296,4.8296,4.8296,4.8296,4.8296,4.8296,4.8296,4.8296,4.8296,4.8296,4.8296,4.8838,4.9537,4.9592,5.0151,5.082,5.0857,5.1426,5.206,5.206,5.2619,5.3012,5.2262,5.2601,5.2957,5.2226,5.2619,5.3159,5.3196,5.3196,5.3196,5.3196,5.3196,5.3196,0.0,0.0,0.0,5.0967,5.071,5.071,5.0802,5.1444,5.1932,5.206,5.2692,5.2131,4.9831,5.1032,5.1565,5.0839,5.1565,5.2362,5.3177,5.3196,5.3977,5.5585,5.5603,5.6411,5.7997,5.7997,5.7997,5.7997,5.7997,5.7997,5.7997,5.7997,5.7997,5.7997,5.7997,5.7997,5.7997,5.7997,5.7997,5.7997,5.7997,5.7997,5.7997,4.2294,4.2776,4.3183,4.3183,4.2521,4.2261,4.3066,4.485,4.63,4.6911,4.9189,5.0989,5.1584,5.1825,5.1881,5.1676,5.1101,5.0302,4.9243,4.863,4.7924,4.7125,4.6513,4.5908,4.5313,4.5658,4.5658,4.5295,4.59,4.629,4.6494,4.6494,4.6828,4.7404,4.7533,4.7574,4.7595,4.8228,4.841,4.8296,4.8296,4.8296,4.8296,4.8296,4.8296,4.8296,4.8296,4.8296,4.8296,4.8296,4.8443,4.8746,4.9399,5.0151,5.093,5.1518,5.2252,5.2884,5.2884,5.3031,5.3159,5.2939,5.2601,5.2417,5.2803,5.2601,5.2472,5.3086,5.3196,5.3196,5.3196,5.3196,5.2994,5.2417,5.1308,5.039,4.9968,4.9352,4.9397,5.0655,5.0445,5.0922,5.2729,5.2013,5.1169,5.0545,5.0316,5.039,5.0784,5.1565,5.2362,5.3177,5.3196,5.3977,5.5585,5.5603,5.6411,5.7997,5.7997,5.7997,5.7997,5.7997,5.7997,5.7997,5.7997,5.7997,5.7997,5.7997,5.7997,5.7997,5.7997,5.7997,5.7997,5.7997,5.7997,5.7997,4.3318,4.4005,4.4451,4.4079,4.4403,4.4807,4.5048,4.5881,4.6921,4.8073,5.0079,5.1565,5.2029,5.2698,5.2977,5.2624,5.1862,5.0878,4.967,4.915,4.8537,4.7738,4.7274,4.681,4.6364,4.6104,4.6104,4.6345,4.6438,4.6865,4.7553,4.7553,4.7794,4.8221,4.8188,4.8119,4.8049,4.831,4.8372,4.8296,4.8296,4.8296,0.0,4.8296,4.8296,4.8351,4.8728,4.8618,4.8351,4.8746,4.9095,4.9536,5.039,5.1187,5.194,5.2399,5.2858,5.3196,5.3196,5.3196,5.3196,5.3196,5.2847,5.2637,5.3104,5.2858,5.2656,5.3104,5.3196,5.3196,5.3196,5.3196,5.3049,5.2601,5.1473,5.0647,5.0647,5.0225,5.027,5.1206,5.1242,5.1701,5.3067,5.1728,5.0655,5.0298,5.0188,5.0306,5.0784,5.1565,5.2362,5.3177,5.3875,5.4675,5.5585,5.6301,5.7109,5.7997,5.7997,5.7997,5.7997,5.7997,5.7997,5.7997,5.7997,5.7997,5.7997,5.7997,5.7997,5.7997,5.7997,5.7997,5.7997,5.7997,5.7997,5.7997,4.4005,4.4692,4.5026,4.4153,4.5955,4.7386,4.6884,4.6995,4.7646,4.9039,5.0673,5.1714,5.1714,5.2958,5.3524,5.2828,5.2122,5.1045,4.9485,4.9383,4.8964,4.8054,4.8017,4.7924,4.7701,4.6327,4.629,4.7701,4.6995,4.7423,4.8909,4.8891,4.8891,4.8891,4.8874,4.8759,4.8587,4.8401,4.8316,4.8296,4.8296,4.8296,4.8296,4.8296,4.8379,4.8563,4.9325,4.9105,4.86,4.9472,5.0225,5.0949,5.1738,5.2472,5.3067,5.3177,5.3196,5.3196,5.3196,5.3196,5.3196,5.3196,5.3196,5.3196,5.3196,5.3196,5.3196,5.3196,5.3196,5.3196,5.3196,5.3104,5.3031,5.3031,5.2362,5.184,5.184,5.184,5.1877,5.1987,5.2527,0.0,5.3177,5.1838,5.0674,4.9978,5.0563,5.0967,5.0967,5.172,5.2472,5.3177,5.4656,5.5548,5.5768,5.7134,5.7941,5.8162,5.8052,5.7997,5.7997,5.7997,5.7997,5.7997,5.7997,5.7997,5.7997,5.7997,5.7997,5.7997,5.7997,5.7997,5.7997,5.7997,5.7997,5.7997,4.4005,4.4692,4.5026,4.4153,4.5491,4.7107,4.8296,4.9652,5.0636,5.0933,5.2382,5.3385,5.3385,5.3627,5.3729,5.3608,5.345,5.2967,5.2011,5.1955,5.1268,4.9754,4.968,4.9057,4.7738,4.7423,4.7423,4.7701,4.7553,4.798,4.8909,4.883,4.8822,4.8813,4.8696,4.8596,4.8513,4.8476,4.8391,4.8296,4.8296,4.8296,4.8296,4.8296,4.8746,4.938,4.9555,4.95,4.949,5.0306,5.0674,5.0949,5.1738,5.2097,5.2344,5.3012,5.3196,5.3196,5.3196,5.3196,5.3196,5.3196,5.3196,5.3196,5.3196,5.3196,5.3196,5.3196,5.3196,5.3196,5.3196,5.2656,5.2197,5.2197,5.1536,5.1004,5.1004,5.1004,5.1261,5.1914,5.1536,5.1728,5.3067,5.2344,5.173,5.1583,5.1712,5.1785,5.1785,5.2546,5.3049,5.3196,5.4124,5.5244,5.6583,5.6866,5.7673,5.8976,5.8327,5.7997,5.7997,5.7997,5.7997,5.7997,5.7997,5.7997,5.7997,5.7997,5.7997,5.7997,5.7997,5.7997,5.7997,5.7997,5.7997,5.7997,4.5305,4.5974,4.6401,4.5992,4.7646,4.9299,5.0079,5.1584,5.2345,5.1509,5.2067,5.2568,5.2568,5.3311,5.3803,5.3803,5.3423,5.3004,5.2624,5.2215,5.1621,5.0822,5.0339,4.9736,4.8964,4.8129,4.7906,4.8314,4.7882,4.806,4.8857,4.875,4.8706,4.8697,4.8596,4.8541,4.8503,4.8428,4.8363,4.8296,4.8296,4.8563,4.8967,4.8967,4.9481,5.028,5.0702,5.083,5.0904,5.1289,5.1426,5.1555,5.2362,5.2619,5.2711,5.3086,5.3196,5.3196,5.3196,5.3196,5.3196,5.3196,5.3196,5.3196,5.3196,5.3196,5.3196,5.3196,5.3196,5.3196,5.3196,5.2884,5.2619,5.2619,5.2307,5.204,5.204,5.204,5.2197,5.2582,5.2278,5.2197,5.2546,5.2601,5.2289,5.1444,5.1767,5.1822,5.1389,5.2535,5.3196,5.3196,5.4792,5.5812,5.6161,5.7416,5.8224,5.8572,5.8198,5.7997,5.7997,5.7997,5.7997,5.7997,5.7997,5.7997,5.7997,5.7997,5.7997,5.7997,5.7997,5.7997,5.7997,5.7997,5.7997,5.7997,4.6754,4.7404,4.7961,4.7961,4.9875,5.1398,5.1398,5.2772,5.3348,5.2085,5.1918,5.1918,5.1918,5.3042,5.3803,5.3803,5.3209,5.2865,5.2865,5.2271,5.1825,5.1658,5.1008,5.0553,5.0386,4.8797,4.8351,4.916,4.8134,4.7951,4.8563,4.8595,4.8578,4.8532,4.8476,4.8457,4.8447,4.8335,4.8296,4.8296,4.8296,4.882,4.961,4.961,5.0206,5.1132,5.1767,5.2115,5.2252,5.2252,5.2252,5.2362,5.2994,5.3196,5.3196,5.3196,5.3196,5.3196,5.3196,5.3196,5.3196,5.3196,5.3196,5.3196,5.3196,5.3196,5.3196,5.3196,5.3196,5.3196,5.3196,5.3196,5.3196,5.3196,5.3196,5.3196,5.3196,5.3196,5.3196,5.3196,5.3196,5.2957,5.2307,5.2829,5.259,5.1169,5.1793,5.1977,5.1353,5.2517,5.3287,5.3453,5.5453,5.64,5.6117,5.7997,5.8701,5.8253,5.807,5.7997,5.7997,5.7997,5.7997,5.7997,5.7997,5.7997,5.7997,5.7997,5.7997,5.7997,5.7997,5.7997,5.7997,5.7997,5.7997,5.7997,4.759,4.824,4.8797,4.8797,5.0246,5.1398,5.1398,5.2772,5.3757,5.358,5.358,5.358,5.358,5.371,5.3803,5.3803,5.3729,5.3701,5.3701,5.3617,5.3246,5.2512,5.2419,5.2029,5.1286,4.9652,4.9187,4.9977,4.8454,4.773,4.7814,4.8344,4.8495,4.8325,4.8316,4.8316,4.8316,4.8306,4.8296,4.8296,4.8296,4.882,4.961,4.961,5.0555,5.1895,5.1969,5.2472,5.3086,5.3086,5.3086,5.3104,5.3177,5.3196,5.3196,5.3196,5.3196,5.3196,5.3196,5.3196,5.3196,5.3196,5.3196,5.3196,5.3196,5.3196,5.3196,5.3196,5.3196,5.3196,5.3196,5.3196,5.3196,5.3196,5.3196,5.3196,5.3196,5.3196,5.3196,5.3196,5.3196,5.3177,5.3086,5.3159,5.2829,5.195,5.2637,5.3049,5.2976,5.3122,5.3526,5.4252,5.5207,5.6374,5.7758,5.7997,5.8437,5.9086,5.8345,5.7997,5.7997,5.7997,5.7997,5.7997,5.7997,5.7997,5.7997,5.7997,5.7997,5.7997,5.7997,5.7997,5.7997,5.7997,5.7997,5.7997,4.9912,5.019,5.0543,5.1045,5.1676,5.2289,5.2772,5.3385,5.3803,5.3803,5.3803,5.3803,5.3803,5.3803,5.3803,5.3803,5.3803,5.3803,5.3803,5.3803,5.3664,5.333,5.2865,5.2215,5.1416,5.0192,4.9479,4.9331,4.8558,4.818,4.818,4.8347,4.8382,4.8296,4.8296,4.8296,4.8296,4.8296,4.8296,4.8296,4.8296,4.882,4.9647,5.0133,5.1032,5.206,5.2546,5.292,5.3196,5.3196,5.3196,5.3196,5.3196,5.3196,5.3196,5.3196,5.3196,5.3196,5.3196,5.3196,5.3196,5.3196,5.3196,5.3196,5.3196,5.3196,5.3196,5.3196,5.3196,5.3196,5.3196,5.3196,5.3196,5.3196,5.3196,5.3196,5.3196,5.3196,5.3196,5.3196,5.3196,5.3012,5.2527,5.292,5.2865,5.206,5.2747,5.2994,5.2509,5.2939,5.3563,5.4363,5.5181,5.6136,5.7281,5.7758,5.8162,5.8492,5.8143,5.7997,5.7997,5.7997,5.7997,5.7997,5.7997,5.7997,5.7997,5.7997,5.7997,5.7997,5.7997,5.7997,5.7997,5.7997,5.7997,5.7997,5.1714,5.1751,5.2011,5.281,5.2958,5.3144,5.371,5.3803,5.3803,5.3803,5.3803,5.3803,5.3803,5.3803,5.3803,5.3803,5.3803,5.3803,5.3803,5.3803,5.3803,5.3803,5.3255,5.2698,5.2122,5.1195,5.0305,4.9518,4.9095,4.8642,4.8163,4.8061,4.8105,4.8296,4.8296,4.8296,4.8296,4.8296,4.8296,4.8296,4.8296,4.8967,5.0004,5.0582,5.1444,5.2435,5.2994,5.3196,5.3196,5.3196,5.3196,5.3196,5.3196,5.3196,5.3196,5.3196,5.3196,5.3196,5.3196,5.3196,5.3196,5.3196,5.3196,5.3196,5.3196,5.3196,5.3196,5.3196,5.3196,5.3196,5.3196,5.3196,5.3196,5.3196,5.3196,5.3196,5.3196,5.3196,5.3196,5.3196,5.3196,5.2976,5.2417,5.2865,5.2957,5.2399,5.2884,5.2957,5.238,5.2884,5.3673,5.4711,5.531,5.6099,5.7152,5.7721,5.7997,5.7997,5.7997,5.7997,5.7997,5.7997,5.7997,5.7997,5.7997,5.7997,5.7997,5.7997,5.7997,5.7997,5.7997,5.7997,5.7997,5.7997,5.7997,5.7997,5.2438,5.2587,5.2847,5.3654,5.3784,5.3784,5.3803,5.3803,5.3803,5.3803,5.3803,5.3803,5.3803,5.3803,5.3803,5.3803,5.3803,5.3803,5.3803,5.3803,5.3803,5.3803,5.3784,5.3775,5.3766,5.2844,5.1981,5.1167,5.0241,4.8966,4.7405,4.7334,4.7675,4.8296,4.8296,4.8296,4.8296,4.8296,4.8296,4.8296,4.8296,4.9287,5.0784,5.0802,5.1783,5.3196,5.3196,5.3196,5.3196,5.3196,5.3196,5.3196,5.3196,5.3196,5.3196,5.3196,5.3196,5.3196,5.3196,5.3196,5.3196,5.3196,5.3196,5.3196,5.3196,5.3196,5.3196,5.3196,5.3196,5.3196,5.3196,5.3196,5.3196,5.3196,5.3196,5.3196,5.3196,5.3196,5.3196,5.3196,5.3196,5.3196,5.3196,5.3196,5.3196,5.3196,5.3196,5.3196,5.3196,5.3196,5.394,5.553,5.5585,5.6374,5.796,5.7997,5.7997,5.7997,5.7997,5.7997,5.7997,5.7997,5.7997,5.7997,5.7997,5.7997,5.7997,5.7997,5.7997,5.7997,5.7997,5.7997,5.7997,5.7997,5.7997,5.7997,5.3357,5.3423,5.3487,5.3766,5.3803,5.3803,5.3803,5.3803,5.3803,5.3803,5.3803,5.3803,5.3803,5.3803,5.3803,5.3803,5.3803,5.3803,5.3803,5.3803,5.3803,5.3803,5.3754,5.3456,5.2863,5.2421,5.1797,5.0994,5.0105,4.911,4.8015,4.7996,4.8105,4.8296,4.8296,4.8296,4.8296,4.8296,4.8296,4.8351,4.8958,4.9509,5.0096,5.1187,5.194,5.2454,5.2994,5.3196,5.3196,5.3196,5.3196,5.3196,5.3196,5.3196,5.3196,5.3196,5.3196,5.3196,5.3196,5.3196,5.3196,5.3196,5.3196,5.3196,5.3196,5.3196,5.3196,5.3196,5.3196,5.3196,5.3196,5.3196,5.3196,5.3196,5.3196,5.3196,5.3196,5.3196,5.3196,5.3196,5.3196,5.3196,5.3196,5.3196,5.3196,5.3196,5.3196,5.3196,5.3196,5.371,5.4491,5.5567,5.6124,5.6932,5.7997,5.7997,5.7997,5.7997,5.7997,5.7997,5.7997,5.7997,5.7997,5.7997,5.7997,5.7997,5.7997,5.7997,5.7997,5.7997,5.7997,5.7997,5.7997,5.7997,5.7997,5.7997,5.3803,5.3803,5.3803,5.3803,5.3803,5.3803,5.3803,5.3803,5.3803,5.3803,5.3803,5.3803,5.3803,5.3774,5.3765,5.3803,5.3803,5.3793,5.3764,5.3764,5.3736,5.3697,5.3647,5.3367,5.2812,5.2635,5.2158,5.1357,5.0182,4.9142,4.8296,4.8296,4.8296,4.8296,4.8296,4.8296,4.8296,4.8296,4.8489,4.8848,4.938,4.9949,5.061,5.162,5.2179,5.2527,5.3012,5.3196,5.3196,5.3196,5.3196,5.3196,5.3196,5.3196,5.3196,5.3196,5.3196,5.3196,5.3196,5.3196,5.3196,5.3196,5.3196,5.3196,5.3196,5.3196,5.3196,5.3196,5.3196,5.3196,5.3196,5.3196,5.3196,5.3196,5.3196,5.3196,5.3196,5.3196,5.3196,5.3196,5.3196,5.3196,5.3196,5.3196,5.3196,5.3196,5.3196,5.3196,5.3196,5.3959,5.4766,5.5567,5.6381,5.7189,5.7997,5.7997,5.7997,5.7997,5.7997,5.7997,5.7997,5.7997,5.7997,5.7997,5.7997,5.7997,5.7997,5.7997,5.7997,5.7997,5.7997,5.7997,5.7997,5.7997,5.7997,5.7997,5.3803,5.3803,5.3803,5.3803,5.3803,5.3803,5.3803,5.3803,5.3803,5.3803,5.3803,5.3803,5.3803,5.3735,5.3734,5.3793,5.3793,5.3764,5.3695,5.3694,5.3636,5.3509,5.3499,5.3499,5.3499,5.3359,5.2903,5.2095,5.0523,4.9288,4.8388,4.8388,4.8351,4.8296,4.8296,4.8333,4.8388,4.8388,4.8893,4.9692,4.9739,5.0665,5.2005,5.206,5.2546,5.3196,5.3196,5.3196,5.3196,5.3196,5.3196,5.3196,5.3196,5.3196,5.3196,5.3196,5.3196,5.3196,5.3196,5.3196,5.3196,5.3196,5.3196,5.3196,5.3196,5.3196,5.3196,5.3196,5.3196,5.3196,5.3196,5.3196,5.3196,5.3196,5.3196,5.3196,5.3196,5.3196,5.3196,5.3196,5.3196,5.3196,5.3196,5.3196,5.3196,5.3196,5.3196,5.3214,5.3287,5.4051,5.4821,5.5585,5.6436,5.7244,5.7997,5.7997,5.7997,5.7997,5.7997,5.7997,5.7997,5.7997,5.7997,5.7997,5.7997,5.7997,5.7997,5.7997,5.7997,5.7997,5.7997,5.7997,5.7997,5.7997,5.7997,5.7997,5.3803,5.3803,5.3803,5.3803,5.3803,5.3803,5.3803,5.3803,5.3803,5.3803,5.3803,5.3803,5.3803,5.3784,5.3774,5.3803,5.3668,5.3617,5.3685,5.3598,5.3529,5.3509,5.34,5.3349,5.3349,5.3272,5.2834,5.2028,5.163,5.0702,4.9288,4.9288,4.893,4.8296,4.8296,4.8673,4.9288,4.9288,4.9766,5.0563,5.1179,5.1657,5.2079,5.2674,5.3031,5.3196,5.3196,5.3196,5.3196,5.3196,5.3196,5.3196,5.3196,5.3196,5.3196,5.3196,5.3196,5.3196,5.3196,5.3196,5.3196,5.3196,5.3196,5.3196,5.3196,5.3196,5.3196,5.3196,5.3196,5.3196,5.3196,5.3196,5.3196,5.3196,5.3196,5.3196,5.3196,5.3196,5.3196,5.3196,5.3196,5.3196,5.3196,5.3196,5.3196,5.3196,5.3196,5.3471,5.4087,5.4876,5.5401,5.5585,5.698,5.7813,5.7997,5.7997,5.7997,5.7997,5.7997,5.7997,5.7997,5.7997,5.7997,5.7997,5.7997,5.7997,5.7997,5.7997,5.7997,5.7997,5.7997,5.7997,5.7997,5.7997,5.7997,5.7997,5.3803,5.3803,5.3803,5.3803,5.3803,5.3803,5.3803,5.3803,5.3803,5.3803,5.3803,5.3803,5.3803,5.3765,5.3774,5.3803,5.3707,5.3667,5.3704,5.3636,5.3549,5.3509,5.3369,5.3289,5.3289,5.323,5.281,5.2005,5.1628,5.083,4.9592,4.9197,4.8976,4.8893,4.8893,4.9362,5.0115,4.9747,5.028,5.1353,5.1426,5.1885,5.2601,5.3031,5.3196,5.3196,5.3196,5.3196,5.3196,5.3196,5.3196,5.3196,5.3196,5.3196,5.3196,5.3196,5.3196,5.3196,5.3196,5.3196,5.3196,5.3196,5.3196,5.3196,5.3196,5.3196,5.3196,5.3196,5.3196,5.3196,5.3196,5.3196,5.3196,5.3196,5.3196,5.3196,5.3196,5.3196,5.3196,5.3196,5.3196,5.3196,5.3196,5.3196,5.3196,5.3196,5.3196,5.3544,5.4363,5.5163,5.5768,5.6143,5.7354,5.7997,5.7997,5.7997,5.7997,5.7997,5.7997,5.7997,5.7997,5.7997,5.7997,5.7997,5.7997,5.7997,5.7997,5.7997,5.7997,5.7997,5.7997,5.7997,5.7997,5.7997,5.7997,5.7997,5.3803,5.3803,5.3803,5.3803,5.3803,5.3803,5.3784,5.3793,5.3803,5.3784,5.3793,5.3803,5.3803,5.3745,5.3744,5.3803,5.3793,5.3754,5.3666,5.3646,5.3578,5.3459,5.3339,5.3287,5.3287,5.323,5.2865,5.2179,5.1499,5.0747,4.9959,4.9205,4.9187,4.9784,4.9784,5.0225,5.0949,5.0243,5.0812,5.2123,5.1444,5.1985,5.3196,5.3196,5.3196,5.3196,5.3196,5.3196,5.3196,5.3196,5.3196,5.3196,5.3196,5.3196,5.3196,5.3196,5.3196,5.3196,5.3196,5.3196,5.3196,5.3196,5.3196,5.3196,5.3196,5.3196,5.3196,5.3196,5.3196,5.3196,5.3196,5.3196,5.3196,5.3196,5.3196,5.3196,5.3196,5.3196,5.3196,5.3196,5.3196,5.3196,5.3196,5.3196,5.3196,5.3196,5.3196,5.3599,5.4528,5.5236,5.6025,5.6939,5.7648,5.7997,5.7997,5.7997,5.7997,5.7997,5.7997,5.7997,5.7997,5.7997,5.7997,5.7997,5.7997,5.7997,5.7997,5.7997,5.7997,5.7997,5.7997,5.7997,5.7997,5.7997,5.7997,5.7997,5.3803,5.3803,5.3803,5.3803,5.3803,5.3774,5.3724,5.3764,5.3774,5.3724,5.3764,5.3803,5.3803,5.3793,5.3784,5.3803,5.3745,5.3647,5.3539,5.342,5.3326,5.3259,5.3238,5.3227,5.3227,5.3206,5.3141,5.3012,5.2884,5.2417,5.162,5.1491,5.1132,5.0618,5.0618,5.1059,5.1803,5.1675,5.216,5.2994,5.2884,5.2976,5.3196,5.3196,5.3196,5.3196,5.3196,5.3196,5.3196,5.3196,5.3196,5.3196,5.3196,5.3196,5.3196,5.3196,5.3196,5.3196,5.3196,5.3196,5.3196,5.3196,5.3196,5.3196,5.3196,5.3196,5.3196,5.3196,5.3196,5.3196,5.3196,5.3196,5.3196,5.3196,5.3196,5.3196,5.3196,5.3196,5.3196,5.3196,5.3196,5.3196,5.3196,5.3196,5.3196,5.3196,5.3196,5.3838,5.5328,5.553,5.6282,5.7776,5.7923,5.7997,5.7997,5.7997,5.7997,5.7997,5.7997,5.7997,5.7997,5.7997,5.7997,5.7997,5.7997,5.7997,5.7997,5.7997,5.7997,5.7997,5.7997,5.7997,5.7997,5.7997,5.7997,5.7997,5.3803,5.3803,5.3803,5.3803,5.3803,5.3793,5.3764,5.3774,5.3784,5.3764,5.3774,5.3784,5.3745,5.3745,5.3716,5.363,5.3617,5.3548,5.34,5.34,5.338,5.3347,5.3285,5.3241,5.3196,5.3196,5.3196,5.3196,5.2766,5.2362,5.1987,5.1565,5.1389,5.1444,5.1444,5.1885,5.2619,5.2179,5.2454,5.3159,5.2729,5.281,5.3196,5.3196,5.3196,5.3196,5.3196,5.3196,5.3196,5.3196,5.3196,5.3196,5.3196,5.3196,5.3196,5.3196,5.3196,5.3196,5.3196,5.3196,5.3196,5.3196,5.3196,5.3196,5.3196,5.3196,5.3196,5.3196,5.3196,5.3196,5.3196,5.3196,5.3196,5.3196,5.3196,5.3196,5.3196,5.3196,5.3196,5.3196,5.3196,5.3196,5.3196,5.3196,5.3196,5.3196,5.3599,5.4363,5.5548,5.5996,5.6785,5.796,5.7997,5.7997,5.7997,5.7997,5.7997,5.7997,5.7997,5.7997,5.7997,5.7997,5.7997,5.7997,5.7997,5.7997,5.7997,5.7997,5.7997,5.7997,5.7997,5.7997,5.7997,5.7997,5.7997,5.7997,5.3803,5.3803,5.3803,5.3774,5.3793,5.3755,5.3688,5.3736,5.3765,5.3727,5.3774,5.3765,5.3714,5.3704,5.3646,5.3509,5.3461,5.341,5.3318,5.3369,5.3429,5.3429,5.3336,5.3243,5.3196,5.3196,5.3196,5.3196,5.2582,5.227,5.227,5.1646,5.1683,5.227,5.227,5.2619,5.3159,5.2546,5.2637,5.3159,5.2527,5.2656,5.3196,5.3196,5.3196,5.3196,5.3196,5.3196,5.3196,5.3196,5.3196,5.3196,5.3196,5.3196,5.3196,5.3196,5.3196,5.3196,5.3196,5.3196,5.3196,5.3196,5.3196,5.3196,5.3196,5.3196,5.3196,5.3196,5.3196,5.3196,5.3196,5.3196,5.3196,5.3196,5.3196,5.3196,5.3196,5.3196,5.3196,5.3196,5.3196,5.3196,5.3196,5.3196,5.3196,5.3196,5.3959,5.4748,5.5567,5.6363,5.7171,5.796,5.7997,5.7997,5.7997,5.7997,5.7997,5.7997,5.7997,5.7997,5.7997,5.7997,5.7997,5.7997,5.7997,5.7997,5.7997,5.7997,5.7997,5.7997,5.7997,5.7997,5.7997,5.7997,5.7997,5.7997,5.3803,5.3803,5.3774,5.3715,5.3714,5.3617,5.338,5.3558,5.3666,5.3539,5.3669,5.3765,5.3714,5.3704,5.3646,5.3509,5.339,5.33,5.3289,5.3251,5.3217,5.3217,5.3217,5.3206,5.3196,5.3196,5.3196,5.3196,5.3141,5.3104,5.3104,5.3049,5.3049,5.3104,5.3104,5.3141,5.3196,5.3141,5.3159,5.3196,5.3141,5.3159,5.3196,5.3196,5.3196,5.3196,5.3196,5.3196,5.3196,5.3196,5.3196,5.3196,5.3196,5.3196,5.3196,5.3196,5.3196,5.3196,5.3196,5.3196,5.3196,5.3196,5.3196,5.3196,5.3196,5.3196,5.3196,5.3196,5.3196,5.3196,5.3196,5.3196,5.3196,5.3196,5.3196,5.3196,5.3196,5.3196,5.3196,5.3196,5.3196,5.3196,5.3196,5.3196,5.3196,5.3196,5.3959,5.4748,5.5567,5.6363,5.7171,5.796,5.7997,5.7997,5.7997,5.7997,5.7997,5.7997,5.7997,5.7997,5.7997,5.7997,5.7997,5.7997,5.7997,5.7997,5.7997,5.7997,5.7997,5.7997,5.7997,5.7997,5.7997,5.7997,5.7997,5.7997,5.3803,5.3803,5.3774,5.3705,5.3704,5.3674,5.3558,5.3636,5.3695,5.3687,5.3725,5.3686,5.3588,5.3499,5.3408,5.3324,5.3272,5.3241,5.3241,5.3217,5.3196,5.3196,5.3196,5.3196,5.3196,5.3196,5.3196,5.3196,5.3196,5.3196,5.3196,5.3196,5.3196,5.3196,5.3196,5.3196,5.3196,5.3196,5.3196,5.3196,5.3196,5.3196,5.3196,5.3196,5.3196,5.3196,5.3196,5.3196,5.3196,5.3196,5.3196,5.3196,5.3196,5.3196,5.3196,5.3196,5.3196,5.3196,5.3196,5.3196,5.3196,5.3196,5.3196,5.3196,5.3196,5.3196,5.3196,5.3196,5.3196,5.3196,5.3196,5.3196,5.3196,5.3196,5.3196,5.3196,5.3196,5.3196,5.3196,5.3196,5.3196,5.3196,5.3196,5.3196,5.3196,5.3196,5.4418,5.5273,5.5585,5.684,5.7685,5.7997,5.7997,5.7997,5.7997,5.7997,5.7997,5.7997,5.7997,5.7997,5.7997,5.7997,5.7997,5.7997,5.7997,5.7997,5.7997,5.7997,5.7997,5.7997,5.7997,5.7997,5.7997,5.7997,5.7997,5.7997,5.3803,5.3803,5.3774,5.3705,5.3704,5.3694,5.3646,5.3666,5.3705,5.3707,5.3696,5.3636,5.3469,5.3359,5.3266,5.3206,5.3196,5.3196,5.3196,5.3196,5.3196,5.3196,5.3196,5.3196,5.3196,5.3196,5.3196,5.3196,5.3196,5.3196,5.3196,5.3196,5.3196,5.3196,5.3196,5.3196,5.3196,5.3196,5.3196,5.3196,5.3196,5.3196,5.3196,5.3196,5.3196,5.3196,5.3196,5.3196,5.3196,5.3196,5.3196,5.3196,5.3196,5.3196,5.3196,5.3196,5.3196,5.3196,5.3196,5.3196,5.3196,5.3196,5.3196,5.3196,5.3196,5.3196,5.3196,5.3196,5.3196,5.3196,5.3196,5.3196,5.3196,5.3196,5.3196,5.3196,5.3196,5.3196,5.3196,5.3196,5.3196,5.3196,5.3196,5.3196,5.3196,5.3196,5.4693,5.5824,5.6338,5.7391,5.7997,5.7997,5.7997,5.7997,5.7997,5.7997,5.7997,5.7997,5.7997,5.7997,5.7997,5.7997,5.7997,5.7997,5.7997,5.7997,5.7997,5.7997,5.7997,5.7997,5.7997,5.7997,5.7997,5.7997,5.7997,5.7997,5.3803,5.3803,5.3774,5.3705,5.3704,5.3656,5.3519,5.3608,5.3646,5.3519,5.3626,5.3606,5.3339,5.3289,5.3266,5.3206,5.3196,5.3196,5.3196,5.3196,5.3196,5.3196,5.3196,5.3196,5.3196,5.3196,5.3196,5.3196,5.3196,5.3196,5.3196,5.3196,5.3196,5.3196,5.3196,5.3196,5.3196,5.3196,5.3196,5.3196,5.3196,5.3196,5.3196,5.3196,5.3196,5.3196,5.3196,5.3196,5.3196,5.3196,5.3196,5.3196,5.3196,5.3196,5.3196,5.3196,5.3196,5.3196,5.3196,5.3196,5.3196,5.3196,5.3196,5.3196,5.3196,5.3196,5.3196,5.3196,5.3196,5.3196,5.3196,5.3196,5.3196,5.3196,5.3196,5.3196,5.3196,5.3196,5.3196,5.3196,5.3196,5.3196,5.3196,5.3196,5.3196,5.3196,5.4693,5.6301,5.7905,5.7997,5.7997,5.7997,5.7997,5.7997,5.7997,5.7997,5.7997,5.7997,5.7997,5.7997,5.7997,5.7997,5.7997,5.7997,5.7997,5.7997,5.7997,5.7997,5.7997,5.7997,5.7997,5.7997,5.7997,5.7997,5.7997,5.7997,5.3735,5.3774,5.3755,5.3598,5.3636,5.3694,5.3646,5.3666,5.3694,5.3646,5.3588,5.3489,5.3328,5.3254,5.3209,5.3196,5.3196,5.3196,5.3196,5.3196,5.3196,5.3196,5.3196,5.3196,5.3196,5.3196,5.3196,5.3196,5.3196,5.3196,5.3196,5.3196,5.3196,5.3196,5.3196,5.3196,5.3196,5.3196,5.3196,5.3196,5.3196,5.3196,5.3196,5.3196,5.3196,5.3196,5.3196,5.3196,5.3196,5.3196,5.3196,5.3196,5.3196,5.3196,5.3196,5.3196,5.3196,5.3196,5.3196,5.3196,5.3196,5.3196,5.3196,5.3196,5.3196,5.3196,5.3196,5.3196,5.3196,5.3196,5.3196,5.3196,5.3196,5.3196,5.3196,5.3196,5.3196,5.3196,5.3196,5.3196,5.3196,5.3196,5.3196,5.3196,5.3196,5.3196,5.4693,5.6301,5.7905,5.7997,5.7997,5.7997,5.7997,5.7997,5.7997,5.7997,5.7997,5.7997,5.7997,5.7997,5.7997,5.7997,5.7997,5.7997,5.7997,5.7997,5.7997,5.7997,5.7997,5.7997,5.7997,5.7997,5.7997,5.7997,5.7997,5.7997,5.3745,5.3765,5.3765,5.3648,5.3696,5.3734,5.3695,5.3704,5.3656,5.3558,5.3469,5.3369,5.3274,5.322,5.3196,5.3196,5.3196,5.3196,5.3196,5.3196,5.3196,5.3196,5.3196,5.3196,5.3196,5.3196,5.3196,5.3196,5.3196,5.3196,5.3196,5.3196,5.3196,5.3196,5.3196,5.3196,5.3196,5.3196,5.3196,5.3196,5.3196,5.3196,5.3196,5.3196,5.3196,5.3196,5.3196,5.3196,5.3196,5.3196,5.3196,5.3196,5.3196,5.3196,5.3196,5.3196,5.3196,5.3196,5.3196,5.3196,5.3196,5.3196,5.3196,5.3196,5.3196,5.3196,5.3196,5.3196,5.3196,5.3196,5.3196,5.3196,5.3196,5.3196,5.3196,5.3196,5.3196,5.3196,5.3196,5.3196,5.3196,5.3196,5.3196,5.3196,5.3453,5.4106,5.5042,5.6301,5.7905,5.7997,5.7997,5.7997,5.7997,5.7997,5.7997,5.7997,5.7997,5.7997,5.7997,5.7997,5.7997,5.7997,5.7997,5.7997,5.7997,5.7997,5.7997,5.7997,5.7997,5.7997,5.7997,5.7997,5.7997,5.7997,5.7997,5.7997,5.3784,5.3765,5.3765,5.3765,5.3784,5.3774,5.3705,5.3704,5.3606,5.3339,5.3289,5.3266,5.3206,5.3196,5.3196,5.3196,5.3196,5.3196,5.3196,5.3196,5.3196,5.3196,5.3196,5.3196,5.3196,5.3196,5.3196,5.3196,5.3196,5.3196,5.3196,5.3196,5.3196,5.3196,5.3196,5.3196,5.3196,5.3196,5.3196,5.3196,5.3196,5.3196,5.3196,5.3196,5.3196,5.3196,5.3196,5.3196,5.3196,5.3196,5.3196,5.3196,5.3196,5.3196,5.3196,5.3196,5.3196,5.3196,5.3196,5.3196,5.3196,5.3196,5.3196,5.3196,5.3196,5.3196,5.3196,5.3196,5.3196,5.3196,5.3196,5.3196,5.3196,5.3196,5.3196,5.3196,5.3196,5.3196,5.3196,5.3196,5.3196,5.3196,5.3196,5.3196,5.3867,5.5475,5.5603,5.6301,5.7905,5.7997,5.7997,5.7997,5.7997,5.7997,5.7997,5.7997,5.7997,5.7997,5.7997,5.7997,5.7997,5.7997,5.7997,5.7997,5.7997,5.7997,5.7997,5.7997,5.7997,5.7997,5.7997,5.7997,5.7997,5.7997,5.7997,5.7985,5.3589,5.3579,5.3579,5.3579,5.3657,5.3715,5.3704,5.3704,5.3606,5.3339,5.3289,5.3266,5.3206,5.3196,5.3196,5.3196,5.3196,5.3196,5.3196,5.3196,5.3196,5.3196,5.3196,5.3196,5.3196,5.3196,5.3196,5.3196,5.3196,5.3196,5.3196,5.3196,5.3196,5.3196,5.3196,5.3196,5.3196,5.3196,5.3196,5.3196,5.3196,5.3196,5.3196,5.3196,5.3196,5.3196,5.3196,5.3196,5.3196,5.3196,5.3196,5.3196,5.3196,5.3196,5.3196,5.3196,5.3196,5.3196,5.3196,5.3196,5.3196,5.3196,5.3196,5.3196,5.3196,5.3196,5.3196,5.3196,5.3196,5.3196,5.3196,5.3196,5.3196,5.3196,5.3196,5.3196,5.3196,5.3196,5.3196,5.3196,5.3196,5.3196,5.3196,5.3196,5.3867,5.5475,5.5603,5.6301,5.7905,5.7997,5.7997,5.7997,5.7997,5.7997,5.7997,5.7997,5.7997,5.7997,5.7997,5.7997,5.7997,5.7997,5.7997,5.7997,5.7997,5.7997,5.7997,5.7997,5.7997,5.7997,5.7997,5.7997,5.7997,5.7997,5.7997,5.7962,5.3617,5.3598,5.3578,5.3509,5.3568,5.3578,5.3528,5.3518,5.3457,5.3264,5.3243,5.3241,5.3196,5.3196,5.3196,5.3196,5.3196,5.3196,5.3196,5.3196,5.3196,5.3196,5.3196,5.3196,5.3196,5.3196,5.3196,5.3196,5.3196,5.3196,5.3196,5.3196,5.3196,5.3196,5.3196,5.3196,5.3196,5.3196,5.3196,5.3196,5.3196,5.3196,5.3196,5.3196,5.3196,5.3196,5.3196,5.3196,5.3196,5.3196,5.3196,5.3196,5.3196,5.3196,5.3196,5.3196,5.3196,5.3196,5.3196,5.3196,5.3196,5.3196,5.3196,5.3196,5.3196,5.3196,5.3196,5.3196,5.3196,5.3196,5.3196,5.3196,5.3196,5.3196,5.3196,5.3196,5.3196,5.3196,5.3196,5.3196,5.3196,5.3196,5.3196,5.3196,5.3867,5.5475,5.5603,5.6301,5.7905,5.7997,5.7997,5.7997,5.7997,5.7997,5.7997,5.7997,5.7997,5.7997,5.7997,5.7997,5.7997,5.7997,5.7997,5.7997,5.7997,5.7997,5.7997,5.7997,5.7997,5.7997,5.7997,5.7997,5.7997,5.7997,5.7962,5.7881,5.3685,5.3646,5.3606,5.3489,5.3479,5.342,5.3328,5.3289,5.3285,5.3206,5.3196,5.3196,5.3196,5.3196,5.3196,5.3196,5.3196,5.3196,5.3196,5.3196,5.3196,5.3196,5.3196,5.3196,5.3196,5.3196,5.3196,5.3196,5.3196,5.3196,5.3196,5.3196,5.3196,5.3196,5.3196,5.3196,5.3196,5.3196,5.3196,5.3196,5.3196,5.3196,5.3196,5.3196,5.3196,5.3196,5.3196,5.3196,5.3196,5.3196,5.3196,5.3196,5.3196,5.3196,5.3196,5.3196,5.3196,5.3196,5.3196,5.3196,5.3196,5.3196,5.3196,5.3196,5.3196,5.3196,5.3196,5.3196,5.3196,5.3196,5.3196,5.3196,5.3196,5.3196,5.3196,5.3196,5.3196,5.3196,5.3196,5.3196,5.3196,5.3196,5.3196,5.3196,5.3867,5.5475,5.5603,5.6301,5.7905,5.7997,5.7997,5.7997,5.7997,5.7997,5.7997,5.7997,5.7997,5.7997,5.7997,5.7997,5.7997,5.7997,5.7997,5.7997,5.7997,5.7997,5.7997,5.7997,5.7997,5.7997,5.7997,5.7997,5.7997,5.7973,5.7892,5.7745,5.3549,5.342,5.3349,5.3339,5.3339,5.3328,5.33,5.3289,5.3285,5.3206,5.3196,5.3196,5.3196,5.3196,5.3196,5.3196,5.3196,5.3196,5.3196,5.3196,5.3196,5.3196,5.3196,5.3196,5.3196,5.3196,5.3196,5.3196,5.3196,5.3196,5.3196,5.3196,5.3196,5.3196,5.3196,5.3196,5.3196,5.3196,5.3196,5.3196,5.3196,5.3196,5.3196,5.3196,5.3196,5.3196,5.3196,5.3196,5.3196,5.3196,5.3196,5.3196,5.3196,5.3196,5.3196,5.3196,5.3196,5.3196,5.3196,5.3196,5.3196,5.3196,5.3196,5.3196,5.3196,5.3196,5.3196,5.3196,5.3196,5.3196,5.3196,5.3196,5.3196,5.3196,5.3196,5.3196,5.3196,5.3196,5.3196,5.3196,5.3196,5.3196,5.3196,5.3196,5.3867,5.5475,5.5603,5.6301,5.7905,5.7997,5.7997,5.7997,5.7997,5.7997,5.7997,5.7997,5.7997,5.7997,5.7997,5.7997,5.7997,5.7997,5.7997,5.7997,5.7997,5.7997,5.7997,5.7997,5.7997,5.7997,5.7997,5.7997,5.7985,5.7881,5.7745,5.7613,5.3539,5.344,5.3388,5.3254,5.3233,5.3233,5.3233,5.3233,5.323,5.3196,5.3196,5.3196,5.3196,5.3196,5.3196,5.3196,5.3196,5.3196,5.3196,5.3196,5.3196,5.3196,5.3196,5.3196,5.3196,5.3196,5.3196,5.3196,5.3196,5.3196,5.3196,5.3196,5.3196,5.3196,5.3196,5.3196,5.3196,5.3196,5.3196,5.3196,5.3196,5.3196,5.3196,5.3196,5.3196,5.3196,5.3196,5.3196,5.3196,5.3196,5.3196,5.3196,5.3196,5.3196,5.3196,5.3196,5.3196,5.3196,5.3196,5.3196,5.3196,5.3196,5.3196,5.3196,5.3196,5.3196,5.3196,5.3196,5.3196,5.3196,5.3196,5.3196,5.3196,5.3196,5.3196,5.3196,5.3196,5.3196,5.3196,5.3196,5.3196,5.3379,5.382,5.3453,5.404,5.6124,5.586,5.6301,5.7905,5.7997,5.7997,5.7997,5.7997,5.7997,5.7997,5.7997,5.7997,5.7997,5.7909,5.7939,5.7997,5.7997,5.7997,5.7997,5.7997,5.7997,5.7997,5.7997,5.7962,5.7892,5.7892,5.7839,5.7756,5.7637,5.7589,5.7589]}]]